ECMWFNIL_850_thetae_000.txt.gz
Theta_e
312 314 313 311 312 315 317 316 316 316 315 314 315 315 316 315 309 306 307 306 306 305 305 305 304 304 305 304 305 304 304 304 304 304 304 303 303 303 302 302 302 302
310 311 312 312 313 314 314 314 315 315 315 314 314 315 316 314 309 307 307 306 306 306 305 305 304 304 304 304 304 304 304 304 304 304 304 303 302 302 301 301 301 301
310 310 310 310 311 311 310 311 312 313 315 314 313 314 315 312 308 308 307 307 307 306 306 306 305 304 304 304 304 304 304 304 304 304 304 303 302 302 301 301 300 300
311 312 311 310 309 309 309 310 310 311 313 313 312 313 313 312 310 309 308 307 307 307 307 307 306 305 305 304 304 304 304 303 303 303 303 303 303 302 302 301 300 299
312 313 313 311 310 309 309 310 310 311 312 312 312 312 312 312 312 311 309 308 307 307 307 307 307 306 306 305 304 304 303 303 303 303 303 303 303 303 302 301 301 300
313 314 313 312 311 311 310 310 310 310 311 312 313 312 312 312 312 312 311 310 308 307 307 307 307 307 306 306 305 304 304 303 303 303 303 303 303 303 303 302 301 300
313 314 314 314 313 312 311 311 310 310 311 312 313 313 313 313 312 313 313 311 310 308 308 307 307 307 307 307 307 306 305 304 303 303 303 303 303 303 303 302 301 300
313 313 313 313 314 314 314 313 313 311 311 311 312 314 314 314 313 313 313 313 312 310 309 308 307 307 307 307 307 307 307 306 304 303 303 303 303 303 303 303 302 301
317 316 314 313 312 312 313 314 314 314 313 312 312 314 315 315 314 314 314 314 313 312 311 310 309 309 308 308 308 308 308 307 306 305 304 303 303 303 303 303 302 302
319 319 319 318 317 315 314 314 314 315 315 314 314 314 315 316 315 314 314 315 315 313 312 312 311 310 310 309 309 309 309 308 307 306 305 304 303 303 303 303 302 301
319 320 320 320 320 319 317 315 314 314 314 315 315 315 316 317 317 316 315 315 315 314 313 313 312 311 311 311 311 311 310 309 308 307 305 304 303 303 303 302 301 300
319 320 320 320 320 320 319 317 316 314 314 314 315 316 316 317 317 317 316 315 315 315 314 313 312 312 311 311 312 312 312 311 309 307 306 304 303 303 302 301 300 298
315 319 321 322 323 322 321 320 320 318 318 317 316 316 316 317 317 317 316 316 316 316 315 314 313 313 312 312 312 312 312 312 310 307 306 304 303 302 302 300 298 297
311 314 317 319 320 322 322 323 322 321 321 320 319 318 317 317 317 316 315 316 316 316 316 315 314 313 312 312 312 312 312 312 309 307 305 304 303 302 302 300 297 296
309 310 311 312 313 316 318 321 323 323 322 322 321 321 320 318 318 317 315 315 316 316 316 315 314 314 313 312 312 312 312 310 308 306 304 303 302 302 300 298 296 294
307 308 308 308 309 309 311 315 319 322 322 322 322 321 321 320 319 318 316 314 315 316 316 316 315 314 313 313 312 312 311 309 307 305 304 303 302 300 297 296 295 294
305 305 306 306 307 308 308 309 315 319 321 321 321 320 320 320 319 318 317 315 314 315 316 316 315 314 313 313 312 311 310 308 306 304 303 302 300 298 296 295 295 294
304 304 304 305 305 306 307 307 312 316 318 319 320 319 318 319 319 318 317 316 314 314 315 315 314 314 313 312 311 310 308 307 305 304 303 300 299 297 296 295 295 295
303 303 303 304 305 305 305 306 309 313 316 316 317 318 317 318 319 318 316 315 314 314 314 314 314 314 312 310 309 308 307 305 304 303 301 299 297 296 296 295 295 294
303 303 303 304 304 304 304 304 306 310 313 314 315 316 317 317 317 317 315 314 314 314 314 314 313 312 310 309 307 306 306 305 303 301 299 297 296 296 295 294 294 294
303 303 303 303 303 303 303 304 305 306 309 312 312 313 317 318 317 316 315 314 314 313 313 312 311 310 309 307 306 306 305 303 301 299 298 296 296 295 294 294 294 295
302 302 302 302 302 303 303 303 304 304 305 308 309 310 314 318 317 316 315 314 313 312 312 311 310 308 307 306 306 304 302 301 299 298 297 296 296 295 295 295 296 296
301 301 301 301 301 303 304 304 304 304 305 307 308 307 311 316 317 315 314 312 311 310 310 308 307 306 306 305 304 302 299 298 297 297 297 297 296 296 296 297 297 296
301 300 301 301 301 303 306 307 306 306 307 308 308 308 310 314 315 314 313 311 311 309 307 306 306 305 304 302 300 298 298 297 296 297 297 297 297 297 297 297 297 296
300 300 300 301 300 301 305 307 307 307 309 311 310 310 312 313 314 314 312 310 309 308 306 306 305 303 300 299 298 297 296 295 295 296 297 297 297 297 297 297 297 297
300 300 300 301 300 301 305 308 309 308 309 311 311 311 312 312 313 314 311 307 307 307 305 304 302 300 298 297 296 295 294 294 294 295 296 297 297 297 297 297 297 297

ECMWFNIL_850_thetae_003.txt.gz
Theta_e
319 319 319 318 318 318 319 318 318 319 317 317 319 318 319 318 312 312 312 308 307 307 306 306 305 305 306 305 307 308 306 305 305 305 306 305 305 304 304 303 303 303
321 320 319 318 318 318 319 319 318 319 317 316 318 318 320 319 314 313 311 308 308 308 307 307 306 305 306 305 305 306 305 305 305 305 305 305 305 304 304 304 303 303
321 321 319 319 318 317 319 319 319 319 318 317 318 318 320 319 315 313 311 309 309 308 307 308 307 306 306 305 305 306 305 305 305 305 305 305 305 305 304 304 304 303
320 321 321 320 319 317 319 320 320 319 318 318 317 317 319 319 315 313 311 309 309 308 308 308 307 307 307 306 306 306 306 305 305 305 305 305 304 305 305 305 304 304
316 319 320 320 320 319 319 320 320 319 319 319 318 317 319 318 316 314 312 310 310 309 308 308 308 308 308 307 307 307 306 306 305 305 305 305 304 304 304 304 305 305
318 318 318 319 320 321 321 320 320 319 319 319 319 318 319 318 316 315 313 312 312 311 309 309 308 308 308 308 307 307 308 308 306 305 306 305 304 304 304 304 305 305
322 319 320 321 320 319 321 322 320 319 318 319 319 319 319 318 317 317 316 314 314 314 312 310 309 309 308 308 308 308 309 309 307 306 307 308 305 304 304 304 304 305
322 319 321 323 320 318 320 322 321 318 317 317 318 319 319 319 318 318 317 315 315 316 315 313 311 310 309 309 309 309 308 309 308 307 308 308 306 304 305 305 304 304
323 320 320 320 318 316 316 318 319 318 318 318 318 318 318 318 318 318 318 317 316 316 317 316 315 313 311 309 309 309 309 309 309 308 308 308 306 305 306 305 304 304
324 323 323 322 321 319 316 315 316 317 318 317 318 319 319 318 318 318 318 318 317 317 317 316 316 314 312 311 310 310 310 310 310 309 309 308 307 306 306 305 304 304
323 323 323 323 322 321 320 319 319 319 318 317 318 318 318 318 318 319 319 319 319 318 317 316 315 314 313 312 311 310 310 311 310 310 310 309 308 307 306 305 304 303
322 323 323 323 322 322 322 322 322 322 321 320 320 320 319 318 318 319 319 319 319 319 318 317 316 315 314 313 312 311 311 311 311 310 311 310 309 307 306 305 304 303
316 318 319 322 322 322 323 324 324 324 323 322 322 321 321 320 319 318 318 319 319 319 319 318 317 316 315 313 313 312 311 311 311 311 311 310 309 308 306 304 303 303
311 312 313 315 316 316 317 318 320 321 323 323 322 321 321 321 321 319 318 319 319 319 320 319 318 317 316 314 314 313 312 312 311 311 311 310 309 307 305 304 303 302
310 310 311 311 311 312 312 313 312 314 317 319 320 320 320 321 321 320 319 319 320 320 320 319 318 317 316 315 314 313 312 312 311 311 310 309 308 306 304 304 302 302
307 307 308 308 309 309 310 310 310 310 311 314 318 321 321 322 322 321 321 320 320 320 319 319 318 317 316 315 314 314 313 312 311 310 308 307 306 305 304 303 302 301
306 305 305 305 305 307 309 311 312 314 315 315 317 318 319 321 322 322 321 320 320 320 319 318 318 317 316 315 314 314 312 311 311 309 307 306 305 304 303 302 302 301
307 306 306 306 307 309 313 314 314 315 317 317 317 315 314 317 320 320 321 321 321 320 318 318 317 316 316 315 314 314 312 311 310 308 306 305 304 303 303 302 301 301
308 308 309 309 309 310 313 315 315 316 316 317 317 314 310 311 314 316 319 320 320 319 317 316 316 315 315 314 314 313 311 310 309 306 305 304 303 302 302 302 301 300
309 309 309 309 309 309 310 312 315 316 316 315 316 315 312 311 312 314 317 319 319 318 317 316 315 314 314 313 313 311 310 309 308 304 303 303 302 302 302 301 300 299
310 309 308 308 308 308 309 311 313 315 315 315 315 315 315 315 314 314 315 317 317 317 316 315 314 313 313 313 312 311 310 309 306 304 303 303 302 301 301 300 299 298
309 308 308 308 308 309 309 310 312 314 315 315 315 315 315 315 315 314 313 314 316 316 315 315 313 313 313 312 311 310 310 308 305 303 303 302 301 301 300 299 299 299
308 308 308 308 308 308 309 310 312 314 315 315 315 315 314 314 314 314 313 314 315 315 314 313 312 312 311 310 310 310 309 306 303 302 301 301 301 301 301 300 300 300
308 308 308 308 308 308 309 310 311 313 314 314 314 314 314 314 314 313 313 314 314 313 312 311 311 311 310 310 309 309 307 305 303 301 301 301 301 301 301 301 300 300
308 308 308 309 309 308 308 309 310 312 313 313 313 313 313 313 313 313 312 312 312 310 309 309 310 310 309 308 307 306 306 305 303 301 301 301 301 301 301 301 301 300
307 307 308 309 309 309 308 308 309 311 312 313 312 312 312 312 312 312 312 311 309 308 307 308 309 308 307 306 305 305 304 302 299 298 299 300 300 300 300 300 300 299

ECMWFNIL_850_thetae_006.txt.gz
Theta_e
317 318 316 317 319 318 318 320 319 318 318 319 319 317 315 311 308 308 307 307 307 307 307 306 306 306 306 308 309 307 306 306 306 306 306 306 306 305 305 304 304 304
316 317 316 315 319 319 318 319 320 318 317 319 320 319 317 314 311 309 308 308 307 307 307 307 306 306 306 306 307 306 306 306 306 306 306 306 305 305 304 304 304 304
317 318 318 316 318 319 319 318 319 318 317 318 319 319 319 317 313 310 309 308 308 308 308 307 307 307 306 306 306 306 306 306 305 305 305 305 305 305 304 304 304 304
319 318 319 319 318 319 319 319 320 320 318 317 318 319 319 318 316 312 309 309 309 308 308 308 308 307 307 307 307 307 306 306 306 305 305 305 306 305 305 305 305 305
321 320 320 319 318 318 319 319 319 320 319 318 318 319 319 319 317 313 310 309 309 309 309 308 308 308 308 308 308 307 307 307 306 306 306 306 306 306 306 306 306 306
322 322 321 321 320 319 318 319 319 320 320 319 318 318 319 319 317 315 312 310 310 309 309 309 309 309 309 308 308 308 308 308 307 306 306 306 306 306 306 306 306 306
323 323 323 322 321 320 319 319 320 319 319 319 319 319 319 319 319 318 316 314 313 312 310 310 310 309 309 309 309 309 308 308 308 308 307 307 307 306 306 305 305 306
323 323 324 323 321 320 319 319 320 320 319 319 319 319 319 319 319 319 318 318 317 315 314 313 311 310 310 310 309 309 309 309 309 308 308 309 309 307 306 306 305 305
323 323 323 322 321 321 320 320 320 320 319 319 319 319 319 319 319 319 319 319 319 318 317 316 315 313 312 311 310 309 310 310 309 309 309 309 309 308 307 308 307 305
324 324 324 323 322 322 322 321 321 321 321 319 318 318 318 318 319 319 318 318 319 319 319 318 317 316 314 313 312 311 310 310 310 310 309 309 309 308 308 309 308 306
325 325 325 323 322 322 321 321 321 321 321 319 318 318 318 318 319 319 318 318 318 319 320 319 319 318 316 316 314 313 312 311 311 310 310 310 310 309 309 308 308 307
323 324 324 323 323 323 323 322 321 319 319 319 319 319 318 316 317 318 318 318 318 319 319 319 319 319 318 317 316 315 314 312 312 311 311 310 310 310 309 309 308 306
319 320 322 322 322 322 322 322 321 319 318 317 318 318 318 317 317 318 318 319 318 318 319 319 319 320 319 318 317 316 315 314 313 312 312 311 311 311 310 309 309 307
314 315 316 316 316 316 317 318 318 317 316 317 317 317 318 319 319 318 319 319 318 318 319 319 319 319 319 319 318 317 316 315 314 313 312 311 311 311 311 310 310 308
310 310 310 311 311 312 312 313 313 313 313 314 315 315 318 319 319 319 319 320 319 319 318 318 319 319 319 319 318 317 316 315 315 314 313 312 311 311 311 311 310 308
309 309 308 309 310 312 312 311 311 312 312 313 313 315 317 318 319 320 321 321 321 321 320 319 318 318 318 318 318 318 317 316 315 314 313 312 311 311 311 310 309 307
307 307 306 306 309 311 313 314 314 315 316 318 318 316 313 313 315 317 319 319 319 319 320 320 319 319 318 317 318 318 317 316 315 314 313 312 311 310 309 308 307 306
306 306 305 304 305 305 307 309 310 312 313 316 318 316 312 310 310 309 312 315 317 319 321 321 320 320 319 317 317 318 317 316 315 314 313 312 310 309 307 307 306 305
306 308 307 306 305 304 303 303 303 307 311 313 315 316 316 314 309 306 305 308 312 317 320 321 321 320 320 319 317 317 317 316 315 314 313 311 309 307 307 307 306 304
308 309 308 307 305 304 303 303 302 306 311 314 314 315 316 316 313 310 307 305 308 313 316 318 321 321 320 320 318 318 317 315 314 314 312 310 309 307 306 305 304 303
310 310 308 306 304 303 302 302 303 305 309 313 314 314 315 316 316 315 313 310 311 314 315 316 319 320 319 319 318 317 316 315 313 312 311 309 308 306 304 304 304 303
311 310 309 307 305 304 304 304 304 306 309 312 315 315 315 315 315 316 315 314 314 314 314 315 317 318 318 317 317 317 315 313 312 311 310 309 307 306 305 305 304 304
310 310 309 309 307 306 306 306 306 306 308 311 314 315 315 315 314 314 315 315 314 314 313 314 316 316 317 316 316 315 314 312 312 311 310 308 307 306 305 304 303 302
309 309 309 309 308 307 306 306 305 303 306 310 313 314 314 314 314 314 314 314 313 312 313 314 315 315 316 316 315 314 313 312 312 311 309 307 305 304 303 302 302 302
307 308 308 307 307 307 306 305 303 302 305 309 312 313 313 314 314 313 314 314 313 313 313 314 315 315 314 313 313 313 312 311 310 309 307 305 303 302 302 302 302 302
306 307 307 307 308 308 307 305 303 302 303 307 311 313 313 313 313 312 313 313 313 313 313 314 314 313 311 310 311 311 310 309 308 306 305 303 301 301 301 301 301 301

ECMWFNIL_850_thetae_009.txt.gz
Theta_e
318 315 311 311 311 310 310 310 311 312 312 312 311 308 307 307 307 307 307 307 307 306 306 306 306 307 306 307 306 306 306 306 306 306 306 306 306 305 305 305 305 304
319 317 314 313 312 311 312 313 312 312 313 314 314 313 311 308 307 307 307 307 307 307 307 307 306 306 307 306 306 306 306 306 306 306 305 305 305 305 304 304 304 304
319 318 316 314 313 313 314 316 315 314 314 315 315 315 314 311 308 308 307 307 307 307 307 307 307 307 307 307 306 306 306 305 305 305 305 305 304 304 304 304 304 304
319 319 316 315 316 316 317 317 318 317 316 316 315 315 315 313 311 309 308 308 308 307 307 307 307 307 307 307 306 306 306 305 305 305 305 305 305 304 305 305 305 305
319 319 317 316 318 319 318 318 319 319 318 317 316 316 316 314 313 312 310 309 308 308 308 308 308 307 307 307 307 307 306 306 306 306 306 306 306 306 306 306 306 306
319 319 317 317 319 320 319 318 319 319 319 318 317 317 317 316 315 314 312 311 310 309 309 309 309 308 308 308 308 308 308 307 307 307 307 307 307 307 306 307 307 307
320 319 319 318 318 319 320 319 319 319 319 319 318 318 318 317 317 317 316 315 313 312 311 310 310 309 309 309 309 309 309 308 308 308 308 308 308 308 307 307 307 307
321 320 320 320 319 319 320 319 319 320 319 319 319 318 318 318 318 318 318 318 317 316 315 314 313 312 311 310 309 310 309 309 309 309 309 309 308 309 308 308 308 308
322 321 321 322 321 321 320 319 320 320 319 319 319 318 319 318 319 319 318 319 319 318 318 317 317 316 315 314 312 311 310 310 310 309 309 309 309 309 309 309 309 308
323 323 323 323 322 321 321 320 320 320 320 319 319 319 319 319 320 320 319 319 319 319 318 318 318 318 318 317 316 315 313 312 311 311 310 310 310 309 309 309 309 309
323 323 323 323 323 322 321 320 320 320 320 319 319 319 318 319 320 320 320 320 320 319 319 318 318 318 318 319 318 318 317 315 314 313 311 310 310 310 309 309 309 309
323 322 323 323 323 322 321 320 320 320 320 320 319 318 318 318 319 318 319 319 319 319 319 319 319 318 318 319 319 319 318 317 316 315 314 312 311 310 310 310 310 309
324 323 323 323 323 322 321 321 321 320 320 320 320 319 318 317 318 318 318 318 318 318 319 319 319 319 319 319 319 319 319 318 318 317 315 314 313 312 311 310 310 310
323 322 322 322 323 323 323 322 321 319 320 321 321 320 318 317 317 316 316 316 316 316 317 317 318 319 319 319 319 319 319 319 318 317 316 315 314 313 312 311 311 310
321 320 319 320 321 321 320 320 319 318 319 320 319 318 316 316 316 316 316 315 316 316 316 317 318 318 319 319 319 319 319 319 318 317 316 315 315 314 313 312 312 311
314 314 314 315 315 314 313 313 314 314 314 315 314 314 312 312 313 314 313 313 314 313 313 315 318 318 318 319 319 319 319 319 319 318 317 316 315 314 314 313 312 312
310 310 310 310 310 310 310 310 310 310 310 310 310 310 312 314 314 313 312 313 315 316 317 318 320 320 319 319 319 319 319 319 319 318 317 316 315 315 315 315 314 313
309 308 308 309 310 310 308 308 309 308 307 308 308 308 310 311 312 312 313 313 315 316 317 318 319 320 321 321 320 319 319 319 319 318 318 317 316 315 316 315 314 313
309 308 307 308 309 309 309 309 311 312 310 309 310 312 311 310 309 310 309 310 310 310 309 310 311 313 316 319 321 321 320 319 318 318 318 317 316 316 316 314 314 313
308 309 308 307 307 307 306 306 308 312 314 314 314 316 317 315 315 314 312 310 310 309 307 306 305 306 308 312 318 321 321 319 319 318 317 316 316 315 314 313 312 311
308 309 308 307 305 304 304 303 304 306 310 313 314 315 316 315 317 317 315 314 313 311 307 305 305 306 307 310 315 319 320 319 318 317 316 316 314 313 312 311 310 309
310 309 309 307 305 304 303 303 303 303 304 306 308 310 312 312 313 315 316 316 315 314 311 308 308 309 309 310 313 316 318 318 317 316 315 315 313 311 310 310 309 308
310 310 310 308 306 305 304 303 303 302 302 302 303 305 308 310 311 313 314 315 315 315 313 311 310 310 311 312 313 315 317 317 316 314 313 313 311 310 310 309 307 307
310 309 309 308 308 307 305 304 303 303 302 301 301 303 305 309 312 313 313 313 314 313 312 312 311 311 311 312 314 315 316 316 315 313 312 312 311 309 309 307 306 306
308 308 308 308 308 307 305 304 304 304 302 301 301 301 303 308 312 313 313 313 313 312 311 311 311 311 311 312 313 314 315 315 314 312 311 310 309 308 307 307 306 305
306 306 307 307 306 306 305 305 305 304 304 302 301 301 303 308 312 312 312 312 312 312 312 312 311 311 311 312 313 314 313 311 310 310 311 310 309 308 307 307 305 303

ECMWFNIL_850_thetae_012.txt.gz
Theta_e
319 320 320 316 310 308 308 307 306 306 306 306 306 306 306 306 306 306 306 306 306 306 306 306 306 306 306 306 306 306 306 306 306 306 306 306 305 305 305 305 304 304
318 320 322 317 311 309 309 308 307 307 307 307 307 306 306 306 306 306 306 306 306 306 306 306 306 306 306 306 306 306 306 306 305 305 305 305 305 304 304 304 304 303
315 318 321 318 313 310 311 311 310 309 309 308 308 308 307 307 307 306 307 306 306 306 306 306 306 306 306 306 306 306 306 305 305 305 305 304 304 304 303 304 303 303
314 316 320 318 315 313 312 313 313 313 313 310 309 309 308 308 307 307 307 307 307 307 307 307 306 306 306 306 306 306 306 305 305 305 305 305 305 305 305 305 304 305
315 317 319 318 316 315 314 315 315 315 315 314 312 311 310 309 308 308 308 308 307 307 307 307 307 306 306 306 306 306 306 306 306 307 307 307 307 307 307 307 307 307
315 317 319 319 317 316 316 316 317 316 316 316 314 313 312 310 310 309 309 309 309 308 308 308 307 307 307 307 307 307 307 307 307 307 307 308 308 308 308 308 308 308
316 317 319 319 318 317 316 317 318 318 317 317 316 314 314 313 313 311 310 310 311 310 309 309 309 309 309 308 308 308 308 308 308 308 308 308 308 308 308 308 308 308
316 317 319 319 318 318 317 318 318 318 318 318 317 317 316 316 316 315 314 315 314 313 312 312 312 312 311 311 310 310 309 309 309 309 308 308 308 308 308 308 308 308
316 318 320 320 318 318 318 318 319 319 318 318 318 318 318 318 318 317 317 317 317 316 316 316 316 316 315 315 314 314 313 312 311 310 309 309 309 309 309 309 309 309
317 319 321 320 318 318 318 319 319 319 319 319 319 318 318 318 318 318 318 318 317 317 317 317 317 317 317 317 317 317 317 316 315 314 312 311 310 310 309 309 309 309
320 321 320 319 318 319 319 319 319 319 319 319 319 318 318 318 318 318 318 318 317 317 316 316 316 316 316 317 317 317 317 318 318 318 316 315 314 313 311 310 310 309
322 322 320 319 318 318 319 319 319 319 319 319 319 318 318 318 318 318 318 318 318 317 317 316 316 317 317 317 317 317 318 318 318 318 318 318 317 316 314 313 312 311
321 321 321 321 320 320 320 320 320 319 319 319 318 319 318 318 318 318 318 319 318 318 317 317 316 317 318 317 317 318 318 318 318 318 319 319 318 318 316 315 314 313
321 321 320 320 320 320 320 320 320 319 319 319 319 319 319 318 318 318 319 318 318 318 317 317 317 317 317 316 316 318 319 320 319 319 319 319 319 318 317 316 315 314
322 321 320 319 319 319 318 318 318 318 318 318 318 318 318 318 319 318 318 318 319 319 318 318 318 317 316 315 316 316 317 317 319 319 319 319 319 318 318 317 316 316
320 320 318 318 319 319 318 318 318 318 318 318 320 320 319 320 319 318 318 318 318 318 318 318 317 317 316 316 316 316 315 315 317 319 319 319 319 318 318 317 317 316
317 318 319 319 319 317 317 318 318 318 318 319 320 320 319 318 317 316 316 317 317 317 317 317 316 316 316 316 316 317 317 318 318 319 319 319 319 318 318 318 318 317
314 316 317 316 315 313 312 314 315 315 315 315 315 316 314 313 313 313 313 315 315 315 315 316 316 317 318 318 318 318 319 319 319 319 319 319 319 318 318 318 317 316
311 311 311 311 310 310 310 310 310 310 310 310 311 311 311 310 310 311 312 313 313 314 314 315 317 317 317 318 319 320 321 321 321 320 320 319 318 318 318 317 317 316
308 308 308 308 307 307 306 305 306 306 307 307 308 309 310 311 310 311 312 314 314 313 312 311 311 310 309 309 310 313 316 319 319 320 320 319 318 318 317 316 315 315
309 309 308 308 308 307 306 305 305 306 307 308 308 310 312 313 313 314 316 317 317 315 312 309 307 306 304 304 305 307 310 313 316 318 319 319 318 317 316 314 314 313
308 308 308 308 307 306 305 305 305 306 308 308 308 308 310 312 313 314 316 317 317 316 313 309 307 305 305 305 307 308 309 310 313 315 317 317 317 316 315 314 313 312
309 309 309 308 306 305 304 303 303 304 305 305 305 305 305 306 308 310 311 312 313 314 313 310 307 306 307 307 307 307 307 308 311 313 315 315 315 315 314 313 312 311
308 310 310 309 308 307 305 304 303 303 303 303 303 303 303 305 306 306 305 306 308 310 311 311 310 309 309 309 309 308 308 309 310 312 314 314 314 314 313 312 311 310
308 310 310 309 309 308 307 306 305 304 303 303 302 302 302 303 305 305 305 306 306 307 308 308 309 309 309 310 310 309 310 311 312 313 313 313 312 312 312 311 311 310
308 309 309 309 309 308 308 307 305 304 304 304 303 303 302 302 303 305 307 309 308 307 306 306 307 309 310 311 311 311 311 312 313 313 312 311 311 311 310 310 309 308

ECMWFNIL_850_thetae_015.txt.gz
Theta_e
312 311 310 309 308 308 308 307 306 305 305 305 306 306 306 306 306 306 306 306 306 306 306 306 306 306 306 306 306 306 306 306 306 305 305 305 305 305 305 305 305 305
312 311 313 311 309 308 308 307 306 305 306 306 305 306 306 305 306 306 306 306 306 306 306 306 306 306 306 306 306 306 306 306 305 305 305 305 305 304 304 304 304 303
312 313 314 312 311 311 309 307 307 306 306 306 306 306 306 306 306 306 306 306 306 306 306 306 306 306 306 306 305 305 305 305 305 304 304 304 304 304 304 303 303 303
313 315 314 309 311 316 313 307 307 307 306 306 306 306 306 306 306 306 306 306 306 306 306 306 306 306 306 306 305 305 305 305 305 306 305 306 306 305 305 305 305 305
315 318 316 310 309 315 315 309 307 307 306 307 306 306 306 306 306 306 306 306 306 306 306 305 305 305 305 306 306 306 307 307 307 307 307 307 307 307 307 307 307 307
317 317 317 313 310 315 317 312 308 308 307 307 307 306 307 306 307 307 306 307 307 306 306 306 306 306 306 307 307 307 307 308 308 308 308 308 308 307 307 307 307 308
318 317 317 315 312 316 318 315 311 310 310 310 310 308 307 307 307 307 307 307 307 307 308 307 307 307 307 307 307 308 308 308 308 308 308 308 308 308 308 308 307 307
316 318 317 315 313 316 318 317 315 313 313 314 315 313 311 309 308 308 308 307 308 308 308 308 308 308 308 308 308 308 308 308 308 308 308 308 308 308 308 308 308 307
317 318 317 315 315 316 318 318 316 315 315 316 317 317 316 315 313 312 311 310 310 309 309 309 310 310 310 310 310 310 309 310 309 309 309 309 309 309 308 308 308 308
317 317 317 316 316 316 318 319 317 316 317 317 317 317 318 317 317 316 315 315 315 314 314 314 314 314 314 313 314 314 314 314 314 313 312 311 310 310 309 309 309 309
316 316 317 316 316 316 318 319 319 317 317 318 318 318 318 318 318 318 317 317 317 317 317 317 317 316 316 317 317 317 317 317 317 316 316 316 315 315 314 313 312 311
314 315 315 315 315 316 318 319 319 318 318 318 318 318 318 318 318 318 317 317 317 318 318 318 318 317 317 317 317 317 318 318 318 318 318 318 318 318 317 317 317 316
315 314 315 317 316 316 318 319 319 318 318 318 318 319 319 318 318 317 317 317 316 316 318 318 318 318 318 317 317 317 317 317 318 318 319 319 318 318 319 318 318 318
319 317 318 318 317 317 319 318 317 317 317 317 318 318 318 318 317 317 317 317 316 317 318 318 318 319 318 318 318 318 317 317 317 318 319 319 319 318 319 318 318 318
320 319 319 318 316 317 318 318 318 317 316 317 317 317 317 317 317 317 317 317 317 318 318 317 317 319 319 319 319 318 318 317 317 316 316 317 318 318 319 318 317 317
319 319 319 318 318 318 318 317 317 317 317 316 316 317 317 317 318 318 317 317 318 318 317 316 317 319 319 319 319 318 318 317 317 315 315 316 318 319 319 318 317 317
321 320 321 321 320 319 317 317 317 317 316 315 316 317 317 317 318 318 317 317 318 317 316 317 318 319 318 318 318 318 317 317 316 316 316 317 318 319 319 318 318 318
320 319 320 320 320 319 318 317 318 317 317 316 315 317 318 317 317 318 318 317 316 316 316 318 318 318 318 318 318 318 318 318 317 317 317 317 317 318 319 319 319 318
317 318 319 320 320 319 318 318 318 319 319 318 317 317 318 317 317 318 317 317 316 316 317 317 317 317 317 317 317 318 318 318 319 319 319 319 319 320 320 319 319 318
313 315 317 318 318 316 315 316 317 317 318 318 317 317 317 318 318 318 317 317 317 317 316 315 315 314 313 313 312 312 310 310 311 313 315 317 318 319 319 319 318 318
308 311 313 314 314 313 313 314 315 315 316 316 316 317 317 317 318 318 317 316 316 315 314 313 312 311 311 309 308 307 306 306 307 307 308 310 312 315 317 318 318 318
307 308 309 311 311 312 312 312 312 312 313 313 313 313 314 314 314 315 314 313 312 310 309 309 310 309 309 308 307 307 307 307 307 307 308 309 311 313 316 316 317 316
308 308 309 309 309 310 310 310 309 309 309 310 310 309 309 309 310 310 310 309 309 308 307 308 309 309 309 308 308 308 307 306 306 306 307 308 309 311 312 314 314 314
309 309 309 308 308 307 307 306 305 306 307 307 308 308 308 307 306 306 306 306 306 306 306 307 308 308 308 308 308 308 307 306 306 306 307 307 307 308 310 312 313 313
308 309 309 309 308 307 306 305 304 303 303 304 304 305 305 304 304 303 304 304 304 304 304 305 306 307 308 308 308 309 309 309 308 308 308 309 309 309 310 311 311 311
308 308 309 309 309 309 309 308 306 304 303 303 303 302 302 302 302 302 303 303 303 303 303 304 304 305 307 309 309 310 310 310 310 310 310 311 310 310 310 310 310 310

ECMWFNIL_850_thetae_018.txt.gz
Theta_e
322 322 321 319 314 308 308 307 306 306 305 305 305 305 305 306 306 306 305 305 305 305 306 306 306 306 306 306 305 305 305 305 306 305 305 305 305 305 305 304 304 304
319 321 321 318 313 308 308 307 306 306 305 305 305 305 305 305 305 305 305 305 305 305 306 306 306 306 306 306 306 305 305 305 305 305 304 304 304 304 304 303 304 303
319 319 319 317 314 309 307 307 307 306 306 305 305 305 305 305 305 305 305 305 306 305 306 306 306 306 305 305 305 304 304 304 304 304 304 304 304 304 304 304 304 304
320 317 315 316 315 311 307 308 308 306 306 306 306 306 305 305 305 305 305 305 305 305 306 306 306 306 305 305 304 305 305 305 305 305 305 306 306 306 306 306 306 306
320 316 312 314 318 314 309 309 308 307 306 306 306 306 306 306 305 305 305 305 305 306 306 306 306 305 305 305 305 306 307 307 308 308 307 308 308 308 308 307 307 308
321 317 312 315 319 314 311 312 309 308 307 306 307 306 306 306 306 305 306 305 305 306 306 306 306 305 305 305 305 306 307 308 308 308 308 308 308 309 309 308 308 309
321 317 314 317 318 312 312 315 310 309 309 307 307 307 306 306 306 306 306 306 306 306 306 306 306 305 305 305 306 306 306 307 307 308 308 308 308 308 308 308 308 308
320 318 316 319 318 313 313 315 313 312 310 308 307 307 307 307 306 307 307 306 306 306 306 306 306 306 306 306 306 306 306 307 307 307 308 308 308 308 307 308 308 308
321 319 318 319 319 315 313 313 315 315 312 310 310 310 310 309 307 307 307 307 307 307 306 307 306 306 306 306 307 306 307 307 307 307 308 308 308 308 308 308 308 308
322 320 319 319 319 318 315 313 315 317 314 313 313 313 314 315 313 311 309 308 308 308 308 308 307 307 307 307 307 308 308 308 309 309 309 309 309 309 309 309 309 309
322 320 319 318 318 318 317 314 315 317 317 315 314 315 316 317 317 316 315 313 312 311 310 309 309 309 310 310 310 310 310 311 313 314 314 314 313 312 312 312 312 312
321 319 318 317 317 318 317 316 316 316 317 317 316 316 316 316 317 318 317 317 316 315 314 313 313 313 314 314 314 314 314 313 314 316 317 317 317 316 316 315 315 315
322 319 317 316 317 317 317 317 317 316 317 319 318 317 316 317 317 318 318 318 317 316 316 316 316 317 317 317 316 316 316 315 313 315 317 318 318 318 318 317 317 317
322 321 317 316 316 317 317 317 316 316 317 318 319 319 317 317 318 317 317 316 316 317 316 316 316 317 317 317 316 316 316 316 315 315 317 318 318 318 318 318 317 317
322 321 319 317 316 316 316 316 317 317 316 316 317 317 317 317 317 317 317 316 316 316 316 316 316 316 317 317 316 316 315 315 315 316 317 318 317 316 316 317 316 316
321 321 320 318 317 317 317 317 317 317 317 316 316 316 315 315 316 316 316 315 316 316 316 316 316 315 316 317 317 317 317 317 317 317 318 318 317 316 315 316 316 317
322 321 321 320 320 320 319 319 319 318 318 317 317 317 316 315 315 315 315 314 315 316 317 316 316 315 316 317 317 317 317 317 317 318 317 317 317 317 316 316 316 318
321 321 321 321 321 321 320 320 319 318 318 317 317 317 317 316 315 315 314 314 315 317 316 315 315 316 316 317 317 317 318 318 318 318 318 318 319 319 318 318 318 318
319 319 319 319 319 320 320 319 319 318 318 317 318 318 317 317 316 315 315 315 316 316 316 315 316 317 317 317 317 317 316 316 315 315 315 314 315 315 316 317 318 319
315 316 316 317 318 319 320 319 319 318 318 318 318 318 317 316 317 317 316 316 316 316 316 316 317 317 317 315 315 313 312 310 309 308 307 307 307 308 308 310 312 315
311 312 313 316 318 319 319 319 318 317 318 318 319 319 318 317 316 317 317 317 317 317 316 317 317 317 315 315 314 312 310 308 307 306 306 306 306 306 306 307 308 311
308 308 310 313 316 317 316 316 316 316 316 317 317 318 318 317 317 317 317 317 317 317 317 317 317 317 315 315 314 312 310 308 307 306 305 305 306 306 306 307 309 311
307 308 309 310 311 313 313 313 314 314 314 315 315 316 316 316 316 316 317 317 316 317 317 316 316 315 314 313 313 312 310 309 307 305 305 304 305 306 306 307 308 309
307 308 309 309 309 310 311 312 312 312 312 312 312 313 313 314 314 315 315 315 314 314 314 313 313 313 312 312 311 311 310 308 307 306 305 305 305 306 306 306 306 307
308 309 309 309 309 309 310 309 308 307 308 308 309 310 311 312 312 312 311 310 310 309 309 310 310 310 310 310 310 310 308 307 307 307 307 307 306 306 306 307 307 308
308 308 308 309 309 309 308 306 304 304 305 305 305 306 306 306 306 305 305 305 304 304 304 305 305 306 307 308 309 309 308 308 308 308 308 307 307 307 308 308 307 308

ECMWFNIL_850_thetae_021.txt.gz
Theta_e
323 318 314 314 313 310 309 307 307 306 306 305 305 305 306 306 305 305 304 304 305 305 305 305 305 305 305 306 306 307 310 310 308 306 305 305 305 305 305 305 304 304
321 317 315 316 314 311 310 308 307 306 305 305 305 305 305 305 305 305 305 305 305 305 305 305 305 305 305 305 305 305 305 305 305 305 305 304 305 304 304 303 303 303
315 316 316 318 315 312 310 308 306 306 306 305 305 305 305 305 305 305 305 305 305 305 306 305 305 305 305 305 305 304 305 304 304 304 304 303 304 303 304 305 306 307
315 316 317 318 316 313 310 308 307 307 306 306 306 305 305 305 305 305 305 305 305 305 305 305 305 305 305 305 304 304 304 304 303 303 304 304 304 305 306 308 309 310
317 316 318 319 317 313 310 308 308 308 307 306 306 306 305 305 305 305 305 305 305 305 305 305 305 305 304 304 304 304 303 303 303 304 305 305 306 306 307 309 310 311
318 316 318 320 316 314 311 308 309 309 307 306 307 306 306 306 306 306 305 305 305 305 306 305 305 305 305 304 304 304 304 304 304 305 305 306 307 307 307 307 308 309
319 318 319 321 318 315 313 310 310 311 309 307 307 307 307 306 306 306 306 306 305 305 305 305 305 305 305 305 305 305 304 304 305 305 306 306 306 307 307 307 307 308
320 319 320 321 319 316 314 311 311 312 311 309 308 307 307 307 307 306 306 306 306 306 306 306 306 305 305 305 305 305 305 305 305 305 305 305 306 306 306 307 307 307
321 320 321 321 318 316 315 312 312 314 313 311 308 307 307 307 307 307 307 307 307 306 306 306 306 306 306 306 306 306 306 306 305 306 305 305 306 306 306 307 307 308
322 320 321 320 317 317 316 312 312 313 314 313 311 308 308 308 307 307 307 307 307 307 307 307 307 307 306 306 307 307 307 307 307 307 307 307 307 307 307 307 308 308
324 322 322 321 318 317 317 314 312 313 314 315 313 311 310 310 309 309 308 309 309 308 308 308 308 307 307 308 308 308 309 309 309 310 310 310 310 310 309 309 309 309
325 323 323 322 318 318 318 317 317 315 314 315 315 314 313 313 313 313 313 314 313 313 312 311 311 310 310 310 310 310 311 312 312 313 314 314 314 314 313 312 311 311
324 323 323 322 319 319 319 319 319 318 316 316 316 316 315 315 315 316 316 317 317 316 316 315 314 314 314 314 314 314 314 315 315 316 316 316 317 316 316 316 315 314
324 324 323 322 320 319 318 318 318 318 318 317 317 317 317 317 317 316 316 317 318 317 317 317 317 316 316 316 317 317 316 316 316 316 316 317 317 317 317 317 316 316
324 324 323 322 320 318 317 317 317 318 318 317 317 317 317 317 317 317 316 316 317 317 317 317 317 317 316 317 317 317 317 316 316 316 316 316 316 316 317 317 316 316
323 323 322 321 320 318 317 317 317 317 316 317 318 318 317 316 316 317 316 316 316 317 317 317 316 315 315 316 316 316 316 316 316 316 316 316 317 317 317 317 317 316
322 322 321 321 320 320 319 318 317 317 317 318 319 319 319 317 316 316 316 316 316 316 316 316 316 315 315 315 315 316 316 316 316 317 316 316 317 317 317 317 317 316
321 322 321 321 321 320 320 319 319 319 319 319 319 319 319 319 318 317 317 316 315 315 315 315 315 315 315 315 315 315 316 316 317 317 317 317 317 317 317 318 318 318
319 320 321 321 321 321 321 321 320 320 320 319 319 318 318 319 318 318 318 317 316 315 315 314 314 314 314 314 314 316 317 317 317 317 316 315 314 314 313 314 316 317
315 315 316 318 319 319 320 320 320 320 319 319 318 318 318 318 318 318 318 317 317 316 315 314 314 314 314 315 316 316 316 315 314 313 311 310 308 308 307 308 311 312
311 311 312 313 315 317 319 319 319 319 319 319 318 318 318 318 318 317 317 317 317 316 315 315 315 315 315 316 316 315 314 312 311 309 308 307 307 306 306 306 307 308
309 309 309 310 313 316 318 318 318 318 318 318 318 318 318 318 318 317 316 317 317 315 315 316 315 315 315 316 315 314 313 311 310 308 307 306 306 306 306 306 306 307
308 307 307 308 310 312 315 316 316 316 316 315 316 317 318 318 318 317 317 317 317 317 317 316 315 315 316 316 315 314 312 310 309 308 306 305 305 306 306 306 306 307
308 307 306 306 307 309 311 313 314 314 314 313 314 315 317 317 317 317 317 317 317 317 317 316 315 316 316 315 314 313 311 309 308 307 306 306 306 306 306 306 306 306
307 308 307 307 308 309 309 310 311 311 311 311 312 313 314 315 316 316 316 316 316 316 316 315 314 314 314 312 311 310 309 309 308 307 306 306 306 306 306 306 306 306
307 307 307 308 309 309 309 309 309 308 307 308 309 310 312 313 314 315 315 315 314 313 312 311 311 310 310 309 310 310 310 310 309 309 308 308 307 306 306 306 306 306

ECMWFNIL_850_thetae_024.txt.gz
Theta_e
323 322 317 315 314 310 308 309 309 309 308 312 314 314 312 308 304 305 306 306 309 309 307 307 306 307 310 312 315 319 317 313 311 311 311 313 315 315 315 314 314 313
323 323 316 313 314 313 311 309 307 306 305 307 310 309 306 305 305 305 305 305 305 305 305 305 305 305 309 311 313 315 312 306 305 305 305 306 307 307 306 306 305 305
318 322 319 315 316 316 313 309 306 305 305 306 306 305 305 306 305 305 305 305 305 305 305 305 305 305 306 307 308 309 307 304 305 305 305 305 304 304 304 303 304 304
315 319 320 317 317 317 315 310 307 306 306 305 305 305 305 305 305 305 306 306 306 306 306 306 305 305 305 305 305 305 304 304 304 304 304 304 303 304 304 304 306 307
317 318 320 318 317 318 316 311 307 306 306 306 305 305 305 305 306 306 305 306 306 305 305 305 305 305 305 304 304 304 304 303 303 303 304 303 304 305 306 307 308 309
320 319 319 319 318 318 317 311 307 307 306 306 306 305 305 305 305 305 305 305 305 305 306 305 305 304 304 304 304 304 304 305 304 305 305 305 306 306 307 309 309 310
321 320 320 319 318 318 317 311 308 308 307 306 306 306 306 306 306 306 306 305 306 306 306 305 305 305 304 304 304 304 305 306 306 307 308 307 307 307 308 309 310 310
322 321 321 320 319 319 317 312 310 310 308 307 306 306 306 306 306 306 306 306 306 307 306 305 305 305 305 305 305 305 306 306 307 308 309 307 306 308 307 307 308 308
323 322 322 320 319 320 318 315 313 311 311 309 307 306 307 307 306 307 306 306 306 306 306 306 305 306 306 306 306 306 306 306 306 307 307 307 308 309 308 307 308 308
323 321 321 320 319 321 320 317 316 313 312 312 310 307 307 307 307 307 307 307 306 306 307 306 306 306 306 306 306 306 306 306 306 306 306 308 310 310 310 309 309 309
322 321 321 320 319 321 321 319 317 315 313 313 313 310 308 307 307 307 307 307 307 307 307 307 306 307 306 307 307 307 307 307 307 308 308 308 310 310 310 310 311 312
324 323 322 322 321 323 323 319 316 317 314 312 314 314 312 310 310 309 307 307 308 308 308 307 307 307 308 307 308 308 308 309 309 310 310 310 311 310 310 310 311 313
326 325 325 324 324 324 322 318 317 318 316 313 313 315 314 313 314 313 312 311 311 309 309 309 309 309 309 309 310 311 311 312 312 312 313 314 314 314 314 314 314 314
326 326 325 325 325 324 322 319 319 319 318 317 315 315 315 315 315 315 316 316 315 313 312 312 312 313 312 312 314 314 314 314 315 315 316 316 317 316 316 317 317 317
325 325 325 324 324 323 322 321 320 320 320 320 319 317 317 317 317 317 316 316 316 316 316 316 316 316 315 315 315 316 316 317 317 317 317 317 318 318 317 317 317 317
324 324 324 324 324 323 322 321 320 320 321 320 320 319 318 318 318 318 318 317 317 317 317 317 317 317 317 316 317 317 317 317 317 317 317 317 317 317 317 316 317 317
323 323 323 323 324 323 323 322 320 320 320 320 319 319 318 317 318 318 318 318 318 318 317 317 317 317 318 317 317 317 317 317 316 317 317 317 317 317 316 317 317 317
322 323 322 322 323 323 323 322 321 321 320 320 319 319 319 319 319 319 319 318 318 318 317 317 317 316 317 317 317 316 316 316 316 315 316 316 317 317 316 316 316 318
320 321 322 322 323 322 322 322 322 322 321 320 320 320 320 321 321 320 320 320 319 319 318 318 317 316 315 316 316 316 316 315 315 315 315 315 316 316 315 316 318 319
316 317 319 320 321 321 322 322 322 322 321 321 321 321 321 321 321 321 321 320 320 320 319 319 318 317 315 315 315 316 315 314 314 314 313 314 316 316 314 314 316 316
312 313 313 314 314 316 317 318 320 321 321 321 321 321 321 320 320 320 320 319 319 319 319 319 318 317 315 314 315 315 315 314 314 313 313 314 314 312 310 309 309 308
310 310 310 310 311 312 314 315 316 318 319 320 320 320 320 319 319 319 319 319 319 319 319 319 318 317 315 314 315 315 314 314 314 314 313 312 310 308 307 307 306 306
309 309 308 308 309 310 313 314 315 316 317 318 318 318 318 318 318 319 319 319 318 318 319 319 318 316 315 315 315 315 315 314 314 313 311 310 308 306 306 306 306 306
308 308 308 308 307 308 311 313 313 313 314 314 314 315 316 317 318 319 319 319 318 317 318 318 317 316 316 316 316 316 315 314 314 312 310 307 306 306 306 306 305 305
307 307 308 308 308 308 310 311 313 314 313 311 311 312 314 315 316 318 318 318 318 317 318 317 316 315 315 315 315 315 314 314 313 311 309 307 306 306 306 306 306 306
306 307 307 307 308 309 309 310 312 313 312 310 309 312 313 313 314 316 317 317 317 317 317 317 315 314 315 316 315 314 313 312 312 311 309 307 307 307 307 306 306 306

ECMWFNIL_850_thetae_027.txt.gz
Theta_e
327 328 327 326 323 322 323 322 321 321 321 321 321 322 322 317 313 314 318 321 322 321 320 318 315 313 313 317 321 321 320 321 321 322 322 323 323 323 323 322 321 320
328 328 327 325 323 321 321 320 320 320 320 320 321 321 317 310 307 309 313 316 317 314 312 310 310 314 316 318 320 319 317 316 317 317 318 320 320 319 319 318 317 316
329 328 326 325 322 319 316 315 317 319 317 317 320 318 312 306 306 307 308 310 308 306 306 305 309 315 318 318 319 318 316 314 313 313 313 314 315 314 313 313 313 314
328 327 324 323 320 317 316 316 316 314 310 313 317 314 308 306 306 306 306 307 306 305 306 305 308 313 316 316 317 315 312 310 308 308 308 310 310 310 311 312 314 315
326 326 322 320 319 317 317 317 315 309 307 310 313 311 309 307 308 308 308 308 307 306 306 306 306 309 311 313 313 310 308 307 306 306 307 307 306 307 308 311 313 315
325 326 322 319 318 318 318 317 313 308 306 308 311 312 312 311 312 313 312 311 311 309 308 307 306 306 308 310 310 309 309 308 306 307 307 307 308 309 310 311 313 314
325 325 325 321 319 319 320 319 313 308 306 308 313 315 314 313 314 314 314 314 313 312 311 309 308 306 306 309 311 311 311 309 309 310 311 311 312 313 313 314 315 314
326 325 326 323 320 320 322 320 314 309 307 310 316 317 314 315 315 313 314 315 314 314 313 312 310 308 309 311 311 310 309 310 313 313 313 313 314 315 315 315 315 315
327 326 325 324 322 322 323 321 314 310 307 309 316 318 316 315 315 314 314 314 314 315 314 313 312 311 311 311 308 307 308 312 315 314 312 313 314 314 314 314 314 314
329 327 326 325 325 324 323 320 317 313 309 309 314 317 318 317 315 314 314 314 314 315 315 315 314 312 312 312 310 309 309 310 313 313 312 313 314 313 313 313 313 314
329 328 327 326 325 324 323 322 320 317 313 313 314 315 317 319 316 314 315 314 313 314 314 315 315 313 314 314 314 313 312 311 312 312 311 314 315 314 314 314 314 315
328 327 327 326 324 324 324 324 323 321 318 317 317 316 315 317 316 316 316 315 314 314 313 314 314 313 314 315 314 314 314 314 314 312 312 314 315 314 314 314 314 316
327 327 327 326 325 325 325 325 324 323 321 319 319 319 317 315 315 316 317 316 315 315 314 314 313 313 314 314 313 314 314 313 314 313 314 315 315 315 315 315 314 316
328 328 328 327 327 326 326 325 324 323 322 321 320 320 320 318 316 317 318 317 317 316 316 315 315 314 315 314 314 315 313 311 311 312 314 316 315 316 318 317 316 316
327 327 327 327 327 326 326 325 324 323 323 322 321 320 320 320 318 318 318 318 318 317 317 317 317 317 316 315 316 316 313 311 310 311 315 317 317 318 319 319 319 318
325 325 325 326 326 326 325 324 324 323 323 322 322 321 320 320 320 320 319 319 318 318 319 319 319 319 318 315 314 314 312 311 312 313 316 319 320 320 320 319 320 320
323 323 324 325 325 325 325 324 323 323 323 323 323 322 321 320 321 321 321 320 320 320 321 321 320 319 317 314 313 313 312 312 314 315 316 319 320 320 320 320 319 319
322 322 323 324 325 325 324 324 323 323 323 323 323 323 322 320 321 322 322 322 322 321 322 322 320 318 317 316 316 316 316 315 316 317 317 318 318 318 319 320 320 318
320 321 322 323 324 324 324 324 324 323 323 323 322 322 321 321 322 321 321 322 323 322 322 323 321 319 317 317 317 317 317 317 317 318 318 318 318 318 318 319 319 317
317 318 319 321 321 321 322 323 323 323 323 322 322 321 321 321 321 320 320 321 321 322 322 321 321 320 319 318 318 317 317 317 317 318 318 317 317 317 316 316 316 315
314 315 316 317 318 319 320 320 321 321 321 321 322 322 322 321 320 320 321 321 321 321 321 320 319 319 318 319 319 318 317 316 316 316 317 316 316 315 315 315 314 314
313 313 313 314 315 317 318 318 319 319 319 319 320 320 321 321 320 319 319 320 321 321 320 319 318 316 317 319 319 318 318 317 316 316 316 315 315 315 315 314 313 313
312 312 312 313 313 314 315 316 317 318 318 319 320 320 320 320 320 319 319 320 320 320 319 319 318 316 317 319 319 319 318 316 315 316 316 315 315 315 314 314 314 311
310 311 311 312 312 313 313 314 315 316 317 318 319 320 320 320 320 320 320 320 320 320 319 317 317 318 319 319 319 318 317 316 315 316 317 316 316 314 313 313 311 307
308 309 310 311 311 312 312 313 314 315 315 316 317 317 318 318 319 320 320 319 318 318 318 317 317 318 318 318 318 317 316 315 316 317 317 315 313 312 311 310 307 307
306 307 308 309 310 311 311 312 312 313 314 315 316 316 316 316 317 319 319 319 318 317 317 318 318 317 317 317 317 316 316 316 316 316 315 312 311 311 310 309 308 310

ECMWFNIL_850_thetae_030.txt.gz
Theta_e
324 325 325 321 320 324 324 322 322 322 322 323 322 324 322 318 317 318 318 320 321 321 321 319 318 319 320 322 322 321 321 321 322 323 324 324 324 323 323 321 320 320
324 327 326 323 322 323 323 322 322 322 322 322 322 322 319 314 311 312 314 318 318 317 316 316 317 320 321 321 320 319 319 319 320 321 321 322 322 321 318 316 316 315
325 327 326 325 323 320 320 320 320 320 321 321 321 319 314 309 307 309 311 311 310 309 309 311 315 319 320 319 317 316 317 317 317 317 317 316 316 316 314 314 314 314
324 326 325 325 323 318 317 317 317 317 317 316 316 313 309 306 305 307 307 306 305 305 306 308 313 317 318 318 317 316 315 313 313 313 312 311 310 311 314 316 316 315
323 324 324 324 323 318 316 317 317 313 311 311 310 308 306 305 306 306 305 306 306 305 306 307 310 314 316 316 315 313 310 309 308 307 307 307 306 308 313 316 315 315
323 322 324 324 322 318 317 319 318 312 309 308 307 306 305 306 309 308 307 307 306 306 306 305 307 311 314 312 310 309 307 306 306 306 305 307 307 308 313 315 315 315
322 321 323 324 321 318 319 320 318 313 308 306 307 308 307 310 313 313 311 310 309 309 309 307 306 308 310 310 310 309 307 306 308 309 309 311 312 314 316 316 315 315
323 322 323 323 322 320 320 320 318 314 307 306 309 309 309 313 315 314 314 313 313 313 312 310 308 307 309 312 312 309 308 310 313 313 312 313 315 316 316 315 313 313
324 323 324 324 323 322 322 321 319 314 308 307 311 310 312 316 315 313 315 314 315 315 313 312 312 311 312 314 311 308 310 314 314 313 312 314 316 315 314 313 312 311
326 325 325 325 323 323 324 322 319 315 308 309 313 312 313 316 314 313 315 315 315 315 314 313 314 312 312 311 308 308 312 314 313 312 312 314 314 313 312 311 311 310
327 326 326 325 324 324 324 322 320 317 311 309 312 313 315 317 314 312 315 315 315 315 314 314 313 312 311 310 307 308 311 313 313 312 312 313 314 313 312 311 311 310
327 327 327 326 326 325 325 323 321 320 316 312 312 313 316 318 315 313 315 315 314 315 315 314 312 311 313 313 310 308 310 311 311 311 312 313 314 314 313 312 312 312
328 327 327 327 326 325 325 324 323 323 320 317 316 315 314 315 315 315 316 315 314 315 314 314 313 310 312 315 313 312 311 310 311 311 311 313 313 313 313 312 313 315
327 327 327 326 326 325 325 325 325 324 322 320 320 318 316 314 313 315 317 316 315 315 314 315 315 313 312 313 312 312 311 310 310 310 310 311 311 312 313 311 312 317
327 327 327 326 326 326 326 326 326 325 324 322 321 320 320 318 316 316 317 317 316 316 315 314 315 314 314 314 312 311 310 309 309 309 309 310 310 311 314 314 314 315
326 326 326 326 326 326 326 326 326 325 324 322 321 321 320 320 319 318 318 317 318 318 317 316 316 315 315 315 314 314 313 310 309 309 309 310 311 312 315 318 317 316
325 325 325 325 326 325 325 325 325 325 324 322 322 321 320 320 320 319 319 319 318 318 318 317 317 316 316 316 315 315 315 314 312 310 310 311 314 316 318 320 320 318
322 323 324 324 325 325 325 324 324 323 323 323 322 322 321 320 319 319 320 319 319 319 318 318 317 317 317 317 317 316 316 316 315 313 312 314 317 319 320 320 320 320
320 322 322 321 322 322 322 323 324 323 322 322 321 321 321 320 319 319 319 320 320 319 319 318 318 317 317 316 317 318 317 315 314 315 315 314 316 319 320 320 320 320
317 318 319 319 319 319 320 321 322 322 323 322 321 320 320 321 321 320 320 320 319 319 319 320 319 318 317 315 316 318 318 317 316 316 317 316 318 320 320 320 320 318
314 315 316 317 317 318 319 320 320 320 321 321 322 321 322 322 321 321 321 320 320 319 319 319 318 317 317 316 316 317 318 318 317 317 317 318 320 320 319 318 318 317
312 313 314 314 315 316 317 318 318 319 319 320 321 321 321 321 321 320 320 320 320 320 319 318 317 317 317 317 316 316 317 318 317 318 317 318 319 319 317 316 317 317
310 311 312 313 314 314 314 315 316 317 318 319 319 319 319 320 320 320 319 318 319 319 319 319 318 318 317 317 317 317 318 317 317 318 318 317 317 317 316 316 316 316
308 309 310 311 312 313 313 314 314 315 316 317 317 318 318 319 320 320 320 319 319 318 318 318 317 317 317 318 319 319 318 318 317 317 319 318 316 316 316 317 316 315
305 306 307 308 310 311 312 312 313 314 314 315 315 316 317 317 318 318 319 319 319 319 318 318 317 317 317 318 319 318 317 317 317 318 319 318 316 316 317 317 316 315
301 303 305 306 307 309 309 310 311 311 312 312 313 314 315 316 316 317 317 317 318 318 319 318 317 316 316 317 318 316 316 317 318 319 319 317 316 316 316 316 315 314

ECMWFNIL_850_thetae_033.txt.gz
Theta_e
322 320 316 314 312 313 317 319 322 323 323 322 322 322 324 321 317 321 325 323 320 319 320 322 323 323 322 320 320 321 322 322 323 323 324 324 324 324 323 321 321 322
324 321 317 315 315 318 321 321 322 323 323 322 322 322 322 320 316 319 322 321 320 318 319 321 322 322 323 321 320 321 322 322 323 323 324 324 323 322 320 319 319 320
326 323 319 317 317 321 322 321 321 323 322 321 321 321 321 318 313 315 319 318 316 315 316 320 321 321 321 320 319 321 321 322 322 323 323 322 320 318 318 317 317 317
326 324 322 319 319 322 322 320 320 321 320 319 319 319 317 312 309 311 314 312 309 309 313 318 321 320 319 318 318 318 319 319 320 321 322 320 317 316 316 315 315 315
327 326 324 322 321 321 320 318 318 317 317 316 314 313 309 307 306 307 308 307 306 306 309 314 318 319 318 317 317 317 317 317 316 317 318 317 315 315 315 314 314 315
327 328 326 325 323 320 317 317 316 315 314 312 310 307 305 305 306 306 305 305 305 305 306 309 314 317 317 315 315 315 314 313 312 312 313 314 314 314 313 312 312 313
328 328 325 325 324 320 316 317 316 314 311 309 308 306 305 306 307 308 308 307 307 306 305 306 310 313 313 313 311 310 309 309 309 309 310 313 313 313 312 312 311 311
328 327 325 325 324 320 317 318 317 314 309 308 308 306 306 308 311 312 312 311 310 309 307 306 307 309 311 311 310 310 310 311 311 310 311 313 313 312 314 315 314 312
328 327 325 324 322 319 319 319 318 314 309 308 309 308 309 312 314 314 314 313 313 312 309 307 308 311 312 311 310 312 313 313 314 315 316 316 315 313 314 315 314 313
327 326 325 324 321 319 320 320 319 315 308 308 310 310 312 315 314 314 314 314 314 313 312 311 311 313 312 310 311 313 313 313 315 316 317 317 315 313 313 314 314 313
324 323 323 323 321 321 322 321 320 316 309 310 312 311 314 317 314 313 314 315 315 314 313 313 312 310 309 309 312 315 314 314 314 315 316 316 314 313 312 312 312 311
325 324 324 324 323 323 323 322 321 317 311 311 314 313 315 317 314 313 315 315 315 315 314 314 312 309 306 307 310 313 313 313 314 314 315 314 313 312 311 310 310 310
325 324 324 325 324 324 324 322 321 319 315 313 314 315 316 317 314 313 314 315 314 315 315 315 313 311 308 306 306 308 310 311 313 314 314 314 313 312 311 310 310 310
324 324 324 325 325 324 324 322 321 321 320 316 315 315 315 316 315 314 315 315 314 314 315 315 314 313 312 309 306 306 307 308 311 312 313 313 313 312 312 311 311 310
325 324 324 324 325 324 324 324 322 322 322 319 318 318 317 316 315 315 315 315 315 315 314 315 314 314 313 312 310 309 307 307 308 310 311 312 312 312 312 312 311 310
325 325 325 325 325 324 325 325 324 324 323 321 320 321 320 318 317 316 315 315 315 315 315 315 315 314 314 313 313 312 311 309 309 309 309 310 310 311 311 311 311 311
324 323 324 324 324 325 325 325 325 325 324 322 321 321 321 320 319 318 317 316 316 316 316 316 315 315 315 315 314 314 314 313 312 311 310 310 310 312 313 313 312 312
321 320 320 320 320 321 321 323 324 325 324 323 322 321 321 321 320 320 319 318 317 317 317 317 317 316 315 315 315 315 315 315 314 314 313 312 313 315 316 315 314 314
319 319 319 318 319 318 318 319 322 324 324 323 322 321 321 321 321 320 320 319 318 318 318 317 317 317 317 316 316 315 315 316 316 316 316 316 316 317 317 317 317 317
315 315 316 316 318 319 318 319 321 321 321 321 322 322 322 321 321 321 320 319 319 318 318 318 318 318 317 317 316 316 316 316 316 316 317 318 318 318 317 318 319 318
314 314 314 314 315 316 316 318 319 320 319 319 319 320 321 321 322 322 321 321 320 320 320 319 319 318 318 317 317 317 317 317 316 317 318 319 319 319 318 318 318 318
313 314 314 314 315 315 314 315 316 317 318 318 317 317 318 318 319 320 321 321 321 321 321 320 320 319 319 318 318 318 318 317 316 316 317 319 320 320 319 318 318 318
310 310 311 312 312 313 314 314 314 314 316 316 316 316 316 316 317 318 318 319 319 319 319 319 319 319 318 318 318 318 318 317 316 316 316 318 320 320 320 319 319 318
308 308 308 308 309 309 310 311 312 313 314 315 315 315 315 315 316 316 317 318 318 318 317 318 317 317 317 316 316 316 317 317 317 317 317 317 318 319 319 319 318 318
306 306 306 306 306 306 306 307 308 310 311 312 314 314 315 315 315 315 316 316 316 316 316 316 316 315 315 315 315 315 315 315 316 318 319 318 318 318 318 318 318 318
303 303 303 303 303 303 303 304 304 305 306 307 308 309 310 311 312 314 315 315 316 316 316 316 316 315 314 315 315 315 314 314 315 316 317 319 319 318 319 319 318 318

ECMWFNIL_850_thetae_036.txt.gz
Theta_e
327 324 320 315 311 309 311 314 316 317 319 320 321 321 319 318 315 314 319 321 321 321 321 320 320 319 316 316 317 319 320 320 321 321 321 322 323 323 323 323 324 325
327 326 323 316 311 309 312 316 316 317 319 320 322 321 321 320 315 313 318 319 319 320 320 320 320 318 316 316 318 319 319 320 321 322 322 323 323 322 322 323 323 325
326 325 322 316 312 311 314 316 316 318 321 322 323 321 321 321 316 313 315 316 317 320 321 320 320 318 316 315 317 319 319 321 322 323 323 323 322 320 321 322 322 323
326 325 323 319 314 312 315 317 317 319 322 322 323 321 322 321 315 310 313 314 315 319 321 321 320 319 316 315 317 319 320 322 322 323 324 323 321 319 320 320 321 322
327 327 325 321 315 314 317 318 317 319 321 322 322 322 322 317 310 308 310 310 310 316 319 319 318 317 315 315 318 319 320 322 323 323 322 321 319 318 318 317 318 318
327 327 325 321 316 316 318 318 317 318 321 322 321 321 318 311 306 306 307 306 307 311 314 315 316 315 314 316 317 317 319 321 322 322 320 318 317 316 316 316 315 315
328 327 325 321 319 318 319 318 317 318 320 320 319 318 311 305 305 306 305 305 305 308 310 312 313 313 314 316 316 315 317 318 321 321 318 315 315 314 314 315 314 314
327 327 325 323 322 321 319 317 316 317 317 317 315 311 307 306 307 306 305 306 305 306 308 309 311 311 313 315 315 315 314 314 317 319 316 314 314 314 314 314 314 314
326 326 326 324 324 323 320 316 317 317 314 312 310 307 307 309 309 308 308 307 306 305 306 307 309 310 311 312 312 311 309 309 312 315 315 313 312 312 312 313 314 314
325 325 324 323 324 324 320 317 318 317 313 310 308 307 311 313 312 311 311 311 309 306 305 306 308 308 308 308 307 307 306 305 308 310 310 309 309 308 308 309 311 312
324 324 324 323 322 322 320 318 319 318 313 309 308 310 313 315 313 313 313 314 313 309 305 305 307 308 308 308 307 307 306 306 307 308 308 308 308 308 308 308 309 309
325 324 324 323 321 320 320 319 319 319 314 310 310 313 315 315 314 313 314 314 314 313 309 307 308 308 309 310 310 309 308 310 311 311 311 310 310 310 310 311 310 310
325 324 323 323 322 321 320 320 319 318 315 312 313 314 315 316 314 313 314 314 314 314 313 312 311 309 309 311 312 311 311 312 314 315 314 313 312 311 312 313 312 312
324 323 323 323 322 321 321 321 320 318 315 315 316 315 315 317 315 312 314 315 314 314 314 314 314 311 309 311 313 313 312 312 314 315 315 314 313 312 312 313 313 313
324 324 323 323 323 322 321 321 321 319 317 318 318 316 316 317 316 313 314 315 314 314 314 315 315 313 310 310 311 311 312 312 313 314 314 314 313 312 312 312 311 311
324 324 323 323 324 323 322 320 319 319 319 318 318 318 317 318 317 314 314 315 315 314 314 314 315 315 313 312 311 310 310 310 312 313 313 313 312 312 311 311 311 310
324 323 323 323 322 322 322 321 319 319 320 319 319 319 318 319 318 317 315 315 315 315 315 315 315 315 314 314 313 312 311 310 311 312 313 313 313 312 311 311 311 311
323 323 323 323 322 322 322 321 319 319 320 321 321 321 320 319 319 318 317 316 316 315 316 316 316 316 315 314 314 314 313 313 312 312 312 312 313 313 312 312 311 311
321 321 321 320 320 321 321 321 321 321 321 321 321 322 322 320 320 319 319 318 317 316 316 316 317 317 316 315 314 314 315 315 314 314 313 313 313 313 312 312 311 311
316 318 318 318 318 319 321 321 322 322 321 320 320 320 321 322 321 320 320 320 319 318 317 317 317 318 318 316 315 314 315 315 315 315 315 314 314 314 314 313 312 311
313 314 315 315 315 317 318 320 320 321 321 321 320 320 320 321 321 321 320 320 320 320 319 318 318 318 318 318 318 316 316 315 315 315 315 315 315 315 315 315 314 313
312 313 313 313 313 314 315 316 317 318 319 320 320 320 320 319 319 319 319 320 320 320 321 320 320 319 319 319 319 319 318 317 317 316 316 315 316 316 316 317 317 317
313 312 312 313 314 314 314 314 314 315 316 317 317 318 318 318 318 317 317 318 319 319 319 319 320 320 319 319 319 320 320 319 319 318 317 317 316 317 317 317 317 317
309 309 309 310 311 312 313 314 314 314 314 314 315 315 316 315 315 316 316 316 317 317 317 317 317 317 317 318 318 319 319 319 319 319 319 318 318 317 317 317 318 318
305 305 305 305 305 306 307 309 311 311 312 312 312 313 314 314 314 315 315 315 315 315 315 316 315 315 315 316 317 317 317 317 318 318 318 318 317 317 317 317 317 317
302 301 300 300 300 301 301 302 304 305 306 307 308 309 310 311 312 313 313 314 314 315 315 315 314 313 313 314 315 315 316 316 316 316 317 316 316 316 317 317 317 317

ECMWFNIL_850_thetae_039.txt.gz
Theta_e
328 326 321 318 318 314 312 313 314 315 317 319 321 321 321 320 319 320 321 321 321 321 320 319 320 319 316 316 318 320 319 319 319 319 320 322 323 324 325 324 323 324
327 324 321 322 322 316 311 313 314 316 318 319 321 321 321 321 318 317 319 321 321 320 320 319 318 317 315 314 316 317 317 318 318 319 320 321 323 324 324 324 324 324
326 324 324 326 325 317 310 312 315 316 318 319 320 321 321 321 319 316 317 320 320 319 319 319 319 317 314 314 315 316 317 319 319 320 320 322 323 323 323 323 324 324
325 325 327 327 323 315 310 313 315 315 317 318 319 320 319 319 319 316 314 317 319 319 319 320 319 315 313 314 316 317 318 319 320 321 321 322 322 322 322 323 323 324
325 327 328 326 321 313 310 314 315 315 317 318 318 319 318 317 317 313 310 313 316 318 320 321 319 314 311 314 317 318 319 320 321 322 322 322 321 321 321 322 323 323
326 327 326 325 322 315 313 314 315 316 316 318 319 319 320 318 313 308 308 312 313 315 319 320 318 313 311 315 319 320 320 321 321 323 323 321 320 319 320 320 322 322
326 326 325 326 324 319 316 316 316 316 316 317 318 319 319 316 309 306 308 310 309 311 317 319 316 312 310 315 319 320 321 322 322 322 322 321 319 317 317 318 319 321
326 325 324 325 324 321 320 319 317 316 316 316 315 315 314 309 305 305 306 306 306 309 315 317 314 311 311 315 318 319 321 322 322 322 320 319 317 316 315 315 317 320
326 324 323 323 323 322 322 321 318 316 316 315 313 311 308 306 305 306 305 305 305 307 311 313 312 311 311 315 316 317 318 319 321 322 318 315 315 315 315 314 315 318
325 323 322 323 322 322 322 321 319 318 316 314 310 307 306 306 307 306 306 306 305 306 307 309 310 310 311 314 315 316 316 316 318 320 318 315 314 314 314 314 314 315
325 323 322 322 323 323 323 321 319 318 317 312 308 307 307 307 308 308 308 308 307 306 305 306 309 310 310 311 313 313 313 312 313 316 317 315 314 314 313 313 314 314
324 323 323 322 323 324 323 321 319 319 318 313 308 308 310 310 310 310 310 311 312 310 307 305 307 309 309 309 310 309 309 308 309 312 314 314 313 313 312 312 313 314
323 323 323 322 323 323 322 321 319 319 318 314 310 310 312 313 312 312 311 312 313 313 311 309 308 308 308 309 310 309 308 307 306 308 310 311 311 312 312 313 314 314
322 322 323 323 323 323 322 320 319 319 318 315 312 312 313 314 314 313 313 313 314 314 314 313 312 311 309 308 309 310 309 308 307 308 309 311 311 312 313 314 315 314
322 321 322 323 323 322 321 320 319 319 318 315 315 315 315 315 316 315 313 313 314 314 314 314 314 314 311 309 308 308 309 309 309 310 311 312 313 313 313 314 314 315
323 322 323 323 323 322 321 321 320 320 318 316 317 318 316 315 316 316 313 313 314 314 314 314 314 314 314 312 309 308 308 309 310 310 311 312 313 313 312 312 313 314
323 323 323 322 322 323 321 320 320 319 318 317 317 319 318 317 317 317 314 313 314 314 315 314 314 314 314 314 313 311 310 309 309 310 310 311 311 312 312 312 312 313
322 322 322 321 321 322 321 320 319 319 318 318 317 318 319 318 318 318 317 315 315 315 315 315 315 315 315 315 314 314 313 312 311 310 310 310 310 311 312 312 312 312
322 322 322 321 321 322 321 321 319 319 319 319 318 318 318 318 318 319 318 317 317 316 316 316 316 316 316 316 316 315 314 314 314 313 312 311 310 310 310 311 311 311
320 320 320 320 321 321 321 321 320 320 320 320 320 320 319 318 318 319 318 318 318 318 317 317 317 316 316 317 317 316 315 314 314 314 314 314 313 312 312 311 311 310
317 318 318 319 319 320 320 320 320 319 320 320 320 320 319 317 317 319 319 319 319 319 319 319 319 318 318 318 318 318 317 316 315 314 314 315 315 314 314 314 313 313
312 314 315 316 317 318 318 319 319 319 320 319 319 319 319 318 318 319 321 320 320 320 320 320 320 320 320 320 320 319 319 318 318 317 316 315 315 315 315 315 315 315
308 309 311 312 313 314 315 316 317 318 319 319 319 319 319 319 320 320 320 320 320 320 320 320 320 320 321 321 320 320 320 320 319 319 319 318 317 317 316 316 315 315
305 305 306 308 310 311 313 314 314 316 317 317 318 318 318 318 318 319 318 318 318 318 318 318 319 319 320 320 320 319 319 319 319 319 319 319 319 318 318 318 317 316
305 304 304 304 305 306 308 309 310 311 312 313 314 315 315 316 316 316 316 316 316 316 316 316 317 317 318 318 318 318 318 318 318 318 318 318 318 318 318 318 318 318
307 307 306 305 304 304 304 304 305 305 306 307 308 309 310 311 312 314 314 314 315 315 315 315 315 315 315 316 316 316 316 316 316 316 317 317 317 317 317 317 317 317

ECMWFNIL_850_thetae_042.txt.gz
Theta_e
324 325 323 319 318 318 318 316 315 315 318 319 320 319 319 318 314 310 310 311 313 317 319 320 320 320 319 317 320 323 322 321 322 322 321 321 321 323 324 324 325 325
326 326 325 322 319 319 318 315 314 316 317 319 320 320 320 319 315 310 308 310 313 316 319 319 318 318 317 316 318 321 321 320 321 321 321 320 320 321 323 324 324 324
328 327 325 322 319 319 318 316 315 316 318 319 320 320 320 320 316 311 309 310 312 315 317 318 318 318 317 314 316 319 320 321 321 321 321 321 320 321 323 323 323 323
328 327 325 322 322 323 321 317 316 317 318 319 320 320 320 318 316 312 309 311 313 314 316 317 318 318 316 315 316 318 319 320 321 321 321 320 321 321 322 323 323 323
328 326 325 324 325 325 322 317 316 317 318 319 319 319 320 318 314 309 307 311 314 316 317 318 319 317 314 315 318 318 319 320 320 321 321 321 322 321 322 322 322 322
328 326 325 326 326 322 317 316 317 318 318 319 319 318 319 317 312 307 306 308 311 314 316 320 320 316 312 314 318 319 319 321 321 322 322 322 321 321 321 321 321 322
327 326 326 327 325 318 313 314 317 317 318 319 318 316 316 314 309 306 306 307 308 308 313 319 320 315 311 314 318 320 321 322 322 322 323 321 320 319 319 319 320 322
326 326 328 327 323 318 315 316 318 318 318 318 316 314 312 309 306 305 305 306 305 304 308 315 317 312 310 314 318 320 321 322 322 322 322 319 318 317 317 317 318 320
326 326 327 326 323 321 318 318 319 319 318 316 314 311 308 306 305 305 305 305 305 304 305 309 311 308 308 313 317 318 320 321 321 322 320 317 315 315 315 315 316 319
325 326 326 325 323 322 320 320 321 319 317 316 313 308 306 305 305 305 305 305 305 305 305 306 307 307 308 312 315 316 317 318 319 321 320 316 314 315 315 314 315 318
325 326 326 324 323 321 320 322 322 319 317 315 310 307 306 306 306 307 307 307 306 305 304 305 305 307 309 311 314 315 315 315 315 317 319 317 314 314 314 314 314 316
325 326 325 323 323 322 321 322 321 319 317 314 309 307 308 308 308 309 309 310 310 308 306 304 305 307 309 310 312 313 313 313 311 313 316 316 315 314 314 313 314 314
326 326 324 323 322 323 323 322 320 318 318 315 310 309 310 310 310 311 311 312 313 312 310 309 308 308 308 308 309 310 309 309 308 309 312 315 315 314 313 312 313 314
325 324 324 323 323 323 322 322 321 319 319 316 313 312 312 313 313 313 312 312 313 313 313 313 312 311 310 309 308 308 309 309 309 308 309 312 313 313 312 311 312 313
323 323 324 324 322 320 319 321 321 319 319 317 315 314 313 314 315 315 314 313 313 314 314 314 314 314 313 312 309 309 309 310 311 309 308 310 312 312 313 313 313 313
321 323 323 322 321 319 319 321 321 319 319 318 316 315 314 314 315 316 314 313 313 314 314 314 314 314 314 314 313 311 309 309 311 311 311 312 314 315 315 315 315 314
321 323 321 320 321 321 320 321 321 319 319 318 316 315 315 315 315 316 315 314 313 313 314 314 314 314 314 314 314 313 312 311 311 311 312 312 313 314 314 315 315 315
321 322 321 321 321 321 321 321 321 320 319 318 316 316 316 317 317 317 317 315 314 314 314 314 315 315 315 315 315 315 314 313 312 312 312 311 311 311 312 312 313 314
320 321 321 321 321 322 322 321 321 320 318 318 317 316 317 318 318 318 318 317 317 316 315 316 316 316 316 316 316 316 316 315 314 314 313 313 313 312 312 312 312 312
320 320 320 321 321 321 321 320 320 319 318 318 317 316 316 317 318 318 318 318 318 317 317 317 316 316 316 316 316 316 316 316 316 315 315 314 314 314 314 314 313 313
318 319 319 320 320 320 320 319 319 319 319 319 319 318 317 318 318 318 318 318 318 318 318 318 317 317 317 317 317 316 316 317 317 316 316 315 315 315 314 314 314 314
312 314 315 316 317 318 319 319 319 319 319 319 319 319 319 319 319 319 318 318 319 319 319 319 319 319 319 319 319 318 318 318 318 318 317 317 317 316 315 315 315 314
307 309 311 312 313 315 317 317 317 318 318 318 318 319 319 319 318 318 318 318 319 320 320 320 320 320 320 320 320 320 319 319 319 319 318 318 318 317 317 317 317 316
305 306 308 308 310 312 313 313 314 315 315 316 317 318 318 318 318 318 318 318 319 319 319 319 319 319 319 319 319 319 320 320 319 319 319 319 319 318 318 318 318 318
306 306 307 307 307 308 308 308 309 310 310 311 313 314 315 316 316 316 316 316 317 317 317 317 316 316 316 316 317 318 318 318 319 319 319 319 319 318 318 318 318 318
308 307 307 308 308 308 308 307 307 307 307 307 308 309 310 311 312 313 313 313 313 314 314 315 315 314 314 314 314 315 315 315 316 316 316 316 316 317 317 317 317 317

ECMWFNIL_850_thetae_045.txt.gz
Theta_e
324 324 321 317 316 316 316 317 318 320 320 319 317 316 315 313 310 312 314 314 316 319 320 321 321 321 320 318 319 322 325 324 325 324 324 324 325 325 325 325 325 326
324 324 320 318 318 318 318 318 319 320 320 319 319 317 316 314 310 310 312 314 316 318 319 319 320 320 319 317 318 322 323 322 322 322 322 323 322 322 323 324 325 326
324 324 321 319 319 319 318 318 319 321 320 320 319 317 316 315 311 309 311 314 315 317 318 319 319 319 317 316 316 320 322 320 320 320 320 321 320 321 322 323 324 325
325 325 323 321 320 318 317 317 319 320 321 320 320 318 317 315 311 309 310 313 315 316 317 318 319 318 316 314 315 317 319 319 319 320 320 321 321 321 322 323 324 324
326 326 323 321 321 320 317 317 318 320 320 321 321 320 317 314 311 308 308 311 313 314 315 316 317 316 314 315 316 317 318 318 319 320 321 322 322 322 322 322 323 323
327 326 323 321 323 323 319 317 318 319 320 321 321 320 317 313 310 308 307 309 310 311 312 314 314 312 312 315 318 318 318 319 320 321 322 322 322 321 321 321 322 323
327 326 323 323 325 324 319 317 318 320 320 320 320 318 315 311 308 306 306 307 308 309 310 312 312 310 311 316 319 319 319 320 321 322 322 322 320 318 318 319 321 322
328 326 323 325 325 321 317 317 319 319 318 318 316 315 312 308 306 305 305 306 306 306 308 311 311 309 311 316 319 320 321 321 322 322 322 320 318 316 316 316 318 322
328 326 324 326 324 317 316 319 320 319 317 316 314 311 308 306 305 304 305 305 305 305 307 309 309 307 309 315 319 319 320 321 322 322 321 319 316 315 315 314 316 320
327 326 325 326 322 317 318 321 321 319 317 315 312 308 306 305 305 305 305 305 304 305 306 307 307 305 307 313 317 318 319 320 321 321 320 318 315 314 315 314 315 319
326 326 326 325 322 319 321 322 321 319 316 313 309 306 306 306 306 306 305 305 305 305 306 306 306 306 307 311 315 317 317 318 319 320 320 318 315 315 315 314 315 319
326 326 324 323 322 321 322 322 321 318 315 310 308 307 308 308 308 308 308 307 306 305 305 305 306 308 309 311 313 315 315 315 315 317 319 318 316 315 315 314 314 317
326 326 324 323 323 322 322 322 320 318 314 310 309 310 310 310 311 311 311 312 311 309 308 307 308 308 309 310 311 312 313 313 311 311 314 317 317 316 315 314 313 315
326 325 324 323 323 322 322 321 319 318 314 310 311 312 312 312 313 313 313 313 313 313 313 312 311 311 310 309 308 308 309 308 307 306 308 311 315 316 315 313 312 313
325 324 323 323 323 322 322 320 319 318 315 312 312 313 314 314 314 314 313 313 313 314 314 314 314 313 313 312 310 308 308 307 308 306 305 307 310 313 312 311 311 312
324 323 322 322 322 321 321 320 319 319 317 315 315 315 314 314 315 315 314 313 314 314 314 314 314 314 314 314 313 311 309 309 310 310 308 308 309 311 311 311 311 312
322 322 322 322 322 321 320 318 318 318 317 316 317 317 314 313 315 316 315 314 313 313 314 314 314 314 314 314 314 313 312 310 310 311 311 311 312 314 314 314 314 314
321 323 322 321 320 319 318 317 318 319 318 318 317 316 315 315 315 316 316 315 313 313 313 314 314 314 314 314 314 314 314 313 312 312 312 312 313 314 314 314 314 314
321 322 321 320 320 319 319 319 319 319 319 318 318 317 317 317 317 316 317 316 315 314 314 314 315 315 315 315 315 315 315 314 314 313 313 313 312 312 312 312 312 312
320 321 321 321 320 320 320 320 320 319 319 318 318 318 318 318 318 318 318 318 318 317 317 316 316 316 316 316 316 316 315 315 315 315 314 314 314 313 313 313 312 312
319 319 320 320 320 319 319 319 319 318 318 318 318 318 317 317 318 318 318 318 318 318 318 318 317 317 317 317 317 317 317 316 316 316 316 316 316 315 315 314 314 314
316 317 317 318 318 319 318 318 318 318 318 318 318 318 318 317 318 318 318 318 318 318 318 318 318 318 318 318 318 318 318 318 318 318 318 318 317 317 317 316 316 316
313 314 315 316 317 318 318 318 318 318 318 318 318 318 318 318 318 318 318 318 318 318 318 319 319 319 319 319 319 319 319 319 319 319 319 319 319 319 318 318 318 317
308 309 311 312 314 315 316 316 316 316 316 316 316 317 318 318 318 318 318 318 317 318 318 318 318 319 318 318 318 318 318 318 318 319 319 319 319 319 319 319 319 318
305 305 306 307 308 309 309 309 310 310 311 312 312 313 313 314 314 314 314 314 315 315 315 315 315 316 316 316 315 315 316 316 316 316 317 317 317 317 318 318 318 318
306 306 306 306 307 307 307 307 307 307 306 306 306 306 307 307 307 307 307 308 308 308 309 308 309 309 310 310 311 311 311 312 312 312 312 313 313 313 314 314 315 315

ECMWFNIL_850_thetae_051.txt.gz
Theta_e
325 332 332 330 330 328 328 330 329 329 329 330 330 329 329 328 323 322 323 320 319 320 320 320 320 320 322 325 327 329 330 328 326 326 325 325 326 327 326 325 326 328
328 332 330 330 330 328 328 330 329 330 330 330 329 328 329 328 325 324 322 320 321 320 320 319 319 319 321 324 324 326 329 328 326 326 325 324 326 326 326 326 326 326
330 330 329 330 329 328 330 330 329 330 329 329 328 328 329 325 324 322 317 321 325 322 321 321 319 319 321 325 323 321 327 328 326 326 325 324 326 326 326 326 326 326
329 328 328 329 326 326 328 328 328 330 329 329 328 328 327 321 321 320 316 322 326 322 322 321 319 320 322 325 322 321 328 329 327 326 324 323 324 326 325 324 325 326
328 327 327 328 325 323 325 327 328 329 328 328 327 326 322 316 319 322 321 324 325 323 323 321 319 320 321 324 324 323 328 329 327 326 325 325 324 324 324 322 322 325
327 325 325 327 326 322 324 328 328 328 327 325 324 322 318 317 322 325 324 325 325 325 324 323 322 321 319 324 325 324 326 326 325 325 325 327 326 325 325 324 324 324
325 322 322 327 326 322 324 328 327 327 326 323 322 321 319 320 325 326 325 325 325 325 324 323 324 322 321 324 325 324 324 325 325 324 324 325 325 325 325 325 327 326
324 320 322 327 325 321 325 328 326 326 324 319 321 323 322 323 325 326 325 325 325 324 324 323 323 323 322 323 324 324 324 324 324 323 324 324 324 325 324 324 327 328
322 321 322 325 322 319 325 327 325 324 322 319 322 324 324 325 325 325 325 324 324 324 323 323 322 322 323 323 324 324 324 324 324 323 324 324 324 324 324 324 326 328
322 323 323 324 321 320 325 326 324 323 322 322 324 324 325 325 323 323 324 322 323 324 323 322 321 320 322 323 323 323 323 323 323 323 323 323 323 323 323 323 325 328
323 325 324 323 321 322 326 326 324 325 324 325 326 325 325 324 322 322 322 321 322 323 322 321 319 319 320 322 323 323 322 322 322 322 323 322 322 322 322 323 324 327
326 326 324 323 323 324 326 325 325 326 326 326 326 325 323 322 322 322 321 320 321 321 320 319 318 317 319 321 322 322 322 322 322 322 322 321 321 321 321 323 323 326
328 326 322 322 325 325 324 325 326 327 326 326 325 323 322 321 321 320 319 319 320 320 319 318 317 317 318 319 321 321 322 322 322 322 321 321 321 320 320 322 323 324
327 326 323 322 326 327 326 327 327 326 325 325 323 321 319 319 319 319 318 319 319 319 318 317 316 317 317 318 319 320 321 321 321 322 321 321 321 320 320 322 322 323
325 324 323 324 326 326 326 327 327 325 324 323 321 320 319 319 319 318 318 318 318 318 318 318 317 316 316 317 318 319 319 320 320 320 320 320 321 321 320 321 321 322
323 322 324 325 325 325 326 326 325 324 322 320 319 319 319 319 318 318 318 318 318 319 319 318 317 317 316 316 317 318 318 319 318 318 318 319 320 320 320 320 321 321
323 325 325 322 322 324 326 325 323 321 320 318 319 320 319 319 319 319 319 319 319 319 316 313 314 314 313 313 315 317 318 319 319 318 318 318 318 319 319 319 319 321
324 325 323 322 324 325 325 325 322 320 319 319 319 320 320 321 320 320 319 319 318 316 312 312 312 312 310 310 311 312 314 315 318 319 318 318 318 318 318 318 318 320
325 325 324 324 325 324 324 324 321 318 317 318 318 317 318 320 320 318 318 317 316 314 313 314 314 313 313 312 311 310 309 310 316 319 317 317 319 319 319 319 319 319
323 323 323 324 324 323 323 320 317 316 316 316 316 316 316 317 318 316 315 315 314 314 314 314 314 314 314 314 314 313 311 311 315 318 317 318 319 319 320 320 319 319
321 321 322 322 321 320 318 315 313 314 315 315 315 315 316 316 317 316 315 314 314 314 314 314 314 315 315 315 315 315 314 314 315 317 318 319 319 319 319 319 319 319
320 320 320 319 319 318 317 315 314 314 315 315 315 316 316 316 316 316 316 315 316 315 314 314 315 316 316 316 316 315 316 316 316 317 319 320 320 320 319 319 320 319
317 318 319 318 318 318 317 317 317 316 317 318 317 317 317 317 317 317 317 317 317 317 317 317 318 318 317 317 317 317 317 317 317 318 319 320 321 321 320 321 321 319
316 318 319 318 318 318 318 318 319 319 319 319 318 318 319 318 318 318 318 318 318 318 318 318 318 318 318 318 318 318 318 319 318 318 319 320 320 320 320 321 321 319
317 318 318 318 318 319 318 318 318 317 318 317 317 317 317 317 317 318 318 318 318 318 318 318 318 319 318 318 318 318 318 318 317 316 316 317 318 317 317 318 318 318
315 315 315 316 316 316 316 316 316 316 316 316 316 316 315 315 316 316 315 315 315 315 315 315 315 314 314 314 314 313 313 313 312 312 312 313 312 312 313 313 314 314

ECMWFNIL_850_thetae_054.txt.gz
Theta_e
330 330 329 329 328 329 331 331 331 332 331 331 329 325 324 324 322 319 320 321 322 323 324 323 321 321 324 328 328 328 328 327 327 327 326 326 326 326 327 327 327 327
330 329 328 328 327 327 329 330 331 331 331 331 329 328 328 326 320 320 321 319 320 324 324 322 321 320 320 323 325 327 328 328 327 326 325 325 326 325 326 328 327 327
329 327 326 327 325 325 328 330 330 331 330 330 330 330 330 326 323 324 322 320 320 321 321 320 320 320 321 323 323 323 326 327 327 326 326 325 326 326 326 327 327 327
327 324 325 326 323 324 328 329 330 330 330 330 329 330 329 326 325 323 321 323 323 320 319 320 320 321 324 326 325 320 322 327 328 327 326 326 326 326 326 326 327 327
325 322 325 327 324 326 329 329 330 330 330 330 329 329 327 324 322 317 317 322 322 320 320 321 321 322 324 327 325 320 323 327 327 327 327 327 327 326 326 325 326 326
323 322 326 328 327 328 330 329 329 330 330 329 328 327 323 319 316 313 316 320 321 322 322 321 322 321 322 326 324 322 325 327 327 328 328 328 328 328 327 326 326 327
322 323 327 329 329 330 330 329 330 330 330 327 325 322 315 313 314 314 319 324 324 324 324 323 324 322 321 325 325 322 323 325 327 327 326 327 327 327 327 326 327 328
323 323 326 328 330 330 329 329 330 330 327 323 322 318 312 315 320 320 321 325 325 324 324 324 324 323 322 323 324 323 320 322 324 323 324 325 324 324 324 323 324 327
325 323 323 326 328 329 328 328 328 327 323 320 320 317 312 319 326 324 324 325 324 323 324 323 323 323 323 323 325 324 322 322 324 323 324 325 323 322 323 322 322 326
326 324 325 325 326 326 326 326 325 324 321 320 321 317 314 321 326 325 325 325 323 323 323 323 322 320 321 324 324 323 324 324 324 324 324 323 322 322 324 324 323 325
327 327 327 326 326 325 324 324 324 324 322 320 322 320 319 324 324 323 325 325 323 324 323 322 321 318 320 323 322 322 324 323 322 323 323 322 323 323 324 324 323 324
328 328 328 327 325 324 324 324 323 323 322 322 323 324 323 323 322 322 324 323 322 323 322 321 320 318 320 323 322 322 323 322 322 322 322 322 322 321 321 323 323 323
328 328 328 328 326 324 322 322 321 321 322 323 325 326 323 320 320 322 322 321 321 322 321 320 318 318 319 321 321 322 322 321 321 322 322 321 321 320 321 322 323 323
327 327 328 328 326 323 321 322 322 322 322 324 325 325 322 319 320 321 320 320 321 321 319 319 318 317 318 320 321 321 322 322 321 321 321 321 320 321 320 321 322 321
327 327 329 326 323 324 325 325 324 324 325 325 325 323 321 320 321 320 319 320 321 320 319 319 318 317 318 319 320 320 321 321 321 320 321 320 320 321 320 320 321 321
326 328 327 324 321 323 326 325 324 325 326 325 324 321 319 320 319 318 319 319 319 319 319 318 317 316 317 317 319 320 320 320 320 319 320 320 320 320 320 320 321 320
326 326 325 323 322 323 324 323 323 324 325 323 322 320 319 319 319 318 319 319 319 319 319 318 317 316 316 316 317 319 319 319 319 318 319 319 319 320 320 319 320 320
326 325 325 325 324 322 321 321 321 322 322 321 321 320 319 319 319 319 318 318 318 318 317 316 316 315 315 315 317 318 318 318 319 318 318 318 319 319 319 319 318 319
325 325 324 323 320 317 318 320 321 321 321 320 320 320 319 319 318 319 318 318 318 316 313 311 311 311 311 312 313 316 316 316 318 318 317 317 319 319 319 319 319 319
325 324 322 318 316 317 320 322 321 321 320 320 320 320 319 319 319 319 319 319 318 315 312 312 312 311 310 310 310 310 310 313 317 318 317 318 319 319 319 320 319 319
325 324 321 320 321 322 323 323 321 321 320 321 321 320 319 320 320 320 319 318 316 314 313 314 314 314 314 313 313 311 309 311 316 317 317 319 319 318 318 319 319 319
323 323 323 323 323 323 323 322 321 321 320 320 320 320 319 318 318 318 317 316 315 314 314 314 314 314 315 315 315 315 313 313 315 316 317 319 319 318 317 318 318 318
321 321 321 321 321 321 320 319 318 318 318 317 317 316 316 316 317 317 316 316 314 313 314 314 314 315 315 315 316 316 316 316 316 317 319 320 320 320 319 319 320 320
318 318 318 317 317 317 316 316 315 315 315 314 314 314 314 315 316 316 316 316 315 315 315 315 316 316 317 317 317 316 317 317 317 318 318 319 320 320 319 319 320 320
317 317 317 317 316 316 316 315 315 314 314 314 315 315 315 316 316 316 316 317 317 317 317 317 318 318 318 318 318 318 318 318 318 318 317 318 319 318 317 317 317 317
317 317 317 316 316 316 316 317 316 316 316 317 317 317 317 317 317 317 317 318 318 318 318 318 318 318 318 318 318 318 318 318 318 318 317 317 318 317 314 313 313 313

ECMWFNIL_850_thetae_057.txt.gz
Theta_e
331 329 328 328 328 329 330 330 331 332 332 333 332 331 329 327 326 325 325 324 323 322 324 325 324 325 327 328 329 328 328 327 327 326 326 327 327 327 327 327 327 328
332 329 327 328 328 328 330 330 331 333 333 332 331 330 328 326 324 324 324 323 323 323 324 324 322 322 326 329 329 328 328 328 327 326 327 327 327 327 327 327 327 327
333 330 326 326 326 326 329 330 331 332 332 331 331 329 326 325 324 323 322 322 324 325 324 323 321 321 324 327 328 328 328 328 327 327 326 326 327 327 327 327 326 327
332 330 326 326 326 327 328 330 331 332 331 331 331 328 327 326 324 321 320 322 324 325 324 323 321 321 323 324 325 325 326 328 327 326 326 325 326 327 327 327 327 327
330 329 327 327 327 328 329 330 330 331 331 331 330 329 329 327 323 322 322 323 323 323 324 322 322 324 326 326 325 322 322 326 327 326 326 326 326 327 327 326 326 327
328 328 328 328 328 329 330 330 330 331 331 330 329 329 329 327 324 324 326 325 323 322 322 322 323 325 327 327 324 320 321 326 326 326 326 326 326 326 326 326 326 326
329 329 328 327 328 329 329 330 330 331 330 329 329 329 328 326 323 323 324 325 324 322 322 323 323 324 326 326 323 319 322 326 326 327 327 327 327 327 327 327 326 326
330 329 327 327 329 329 329 330 330 330 329 329 328 328 327 323 319 321 323 323 323 322 322 323 322 322 325 326 322 319 321 324 325 326 326 325 325 325 326 326 326 326
330 328 326 327 328 328 329 330 330 329 329 328 328 327 324 319 318 322 325 324 322 322 323 323 321 321 323 325 323 319 318 322 324 324 325 324 324 323 323 324 324 326
329 326 325 327 327 328 330 330 329 329 327 326 327 324 321 320 321 322 324 324 322 322 324 323 321 321 323 325 324 321 321 323 324 324 325 324 323 323 324 324 324 325
328 325 325 328 328 329 331 329 326 327 326 325 323 321 323 325 323 321 324 324 323 323 324 323 320 320 323 325 323 323 323 323 323 324 323 323 323 323 324 325 323 323
327 326 327 329 329 330 330 328 326 326 325 323 321 322 326 326 322 322 324 324 323 323 324 323 319 318 322 323 321 322 323 321 322 323 322 323 323 323 323 323 322 321
325 325 328 329 329 329 330 329 328 326 324 322 322 324 327 325 322 322 323 323 323 324 323 321 318 319 322 322 320 322 322 321 322 322 322 322 322 321 321 321 320 320
326 326 328 329 328 329 329 329 328 326 324 323 323 325 326 324 322 322 321 321 322 323 321 320 318 319 322 322 320 322 322 322 322 322 321 321 320 321 321 320 320 320
328 328 329 329 328 329 329 329 327 325 324 324 324 324 324 323 322 321 320 320 321 321 320 319 318 318 319 320 321 321 321 321 321 321 321 320 320 321 320 319 320 320
330 329 329 329 328 328 328 328 326 325 325 325 324 323 323 322 321 320 320 320 321 320 319 318 317 317 318 319 320 321 321 320 320 321 321 319 319 320 319 318 320 320
329 329 329 328 328 327 327 326 326 326 326 325 324 322 322 321 320 319 319 320 320 320 319 319 318 317 318 318 319 320 320 320 320 320 320 319 319 320 320 319 319 319
329 328 328 327 327 327 327 326 325 326 326 324 322 321 320 320 319 319 320 320 320 320 319 319 318 316 316 317 318 320 319 319 319 318 319 319 319 319 320 319 318 318
329 328 328 327 326 327 327 326 325 325 325 323 321 319 319 319 318 319 319 319 319 319 319 318 318 316 316 316 317 318 319 318 318 316 317 318 318 319 319 319 318 318
328 327 326 326 327 326 326 326 325 324 323 321 320 319 319 319 318 319 318 318 319 317 315 314 314 315 315 315 317 318 318 318 317 317 317 318 319 319 319 320 320 320
327 327 326 326 326 325 325 324 324 323 322 320 320 320 319 319 319 318 318 319 318 314 311 310 310 310 310 311 314 316 317 317 317 318 319 319 319 319 319 319 320 320
324 325 326 325 324 324 323 322 321 321 321 320 320 320 319 319 319 319 319 319 316 313 312 313 312 311 311 310 311 312 313 315 317 318 319 319 318 318 318 318 319 319
321 323 324 324 323 323 322 320 320 320 320 320 320 319 320 320 319 319 319 317 315 313 314 314 314 314 314 313 313 312 311 313 315 317 319 319 319 319 318 318 318 318
317 319 321 322 322 322 321 321 321 321 321 320 320 320 320 319 318 318 317 316 315 314 313 313 314 315 315 315 315 315 314 315 316 317 319 319 320 320 319 319 319 318
314 315 317 319 320 320 319 319 319 319 318 318 318 318 317 316 316 316 316 316 315 314 313 314 315 316 315 316 316 316 316 317 318 318 319 320 320 320 320 319 319 319
313 314 314 315 315 315 315 315 315 315 315 316 316 315 315 315 316 316 315 315 315 314 315 316 317 317 317 317 317 317 317 318 318 317 317 318 318 317 317 317 317 317

ECMWFNIL_850_thetae_060.txt.gz
Theta_e
331 330 331 331 331 330 330 330 331 331 332 332 331 331 331 331 332 331 329 327 327 327 327 328 328 328 328 328 328 328 329 329 328 328 328 328 327 328 328 328 328 328
331 331 332 330 329 331 331 331 331 331 331 331 332 332 332 332 331 329 326 325 325 325 326 327 326 326 327 328 328 327 327 328 327 327 328 327 327 328 328 328 328 328
331 332 333 330 329 330 331 331 331 331 331 331 331 332 332 331 329 327 326 324 323 324 326 326 325 325 326 327 328 327 327 327 327 326 327 326 326 327 327 327 327 327
331 332 333 331 329 330 331 332 332 331 331 331 332 332 331 330 328 327 326 324 323 324 324 325 324 324 325 327 328 328 327 327 326 326 326 326 326 326 326 327 327 326
331 331 332 332 330 329 330 332 332 332 332 332 332 331 330 328 326 327 327 325 324 323 323 324 323 322 326 328 328 328 328 327 326 326 327 326 326 326 326 326 327 327
330 330 331 332 331 330 329 331 332 332 333 332 331 330 329 326 326 327 327 325 325 324 323 323 321 321 325 327 326 326 327 326 326 326 326 326 325 325 325 326 326 327
328 329 329 330 331 330 330 331 331 331 332 332 331 330 328 326 327 327 326 325 325 324 323 322 321 321 324 325 324 323 323 326 327 326 325 325 325 325 325 326 326 326
327 328 329 330 330 331 330 329 328 330 331 331 331 330 328 327 326 324 324 325 326 325 323 322 322 323 324 324 323 321 322 326 327 326 325 326 325 325 325 325 325 326
328 328 330 331 330 331 330 328 328 331 331 331 331 330 329 328 325 323 325 326 325 324 322 322 324 325 324 324 321 320 323 327 327 326 326 326 325 325 325 325 325 325
330 328 330 331 330 331 330 328 329 330 330 330 330 329 329 328 325 325 326 325 324 323 323 323 324 325 325 323 319 319 324 327 327 327 326 324 324 324 325 325 325 325
331 330 330 332 331 330 330 329 329 329 330 330 329 329 329 326 324 324 325 324 323 323 323 322 321 323 324 322 319 319 323 325 325 325 324 323 323 323 323 323 323 324
331 331 331 332 331 330 330 329 328 328 329 329 328 329 326 322 322 324 324 323 323 323 324 321 319 323 324 322 321 322 323 324 324 324 323 323 323 323 323 324 323 321
331 331 331 331 330 329 329 330 329 328 329 329 328 326 322 319 323 325 323 323 324 324 324 321 319 323 324 322 322 323 323 323 323 323 322 322 323 323 323 323 322 320
331 331 331 331 330 329 329 329 329 328 328 328 326 323 320 320 324 325 323 323 323 323 323 320 318 322 324 322 321 322 321 322 323 322 322 322 322 321 321 321 320 319
330 331 331 331 329 329 328 328 328 328 327 325 322 322 323 323 323 325 324 323 323 323 323 320 317 321 322 321 321 322 321 321 322 322 322 321 321 321 321 320 319 319
329 330 331 330 329 328 328 328 328 327 326 324 322 323 324 323 323 324 324 323 323 323 322 319 318 321 322 320 321 322 321 321 322 321 321 320 320 321 320 318 319 319
328 328 330 330 329 329 328 328 327 325 324 324 325 325 324 322 322 323 323 323 323 322 321 318 318 320 321 320 321 322 321 321 321 321 320 320 320 320 319 318 319 318
326 327 328 329 329 329 329 328 326 325 323 324 325 325 324 322 322 321 321 322 322 321 320 318 317 318 319 319 320 321 321 320 321 320 320 319 319 320 319 319 318 318
326 326 327 328 328 328 328 328 327 325 323 323 324 324 323 322 321 320 320 321 321 320 319 318 317 317 318 318 320 321 320 319 320 320 319 319 319 319 319 319 318 317
325 325 326 327 328 328 328 327 327 325 323 323 324 323 322 322 321 320 320 320 319 319 318 318 317 317 317 318 319 320 320 318 318 318 319 318 319 319 319 319 318 318
324 324 325 326 327 328 327 326 326 324 323 322 322 322 321 320 320 319 320 320 319 318 318 318 318 316 316 317 318 319 319 317 316 317 318 318 318 319 319 319 319 319
323 324 324 324 327 327 326 324 323 322 322 322 322 321 320 319 319 319 319 319 319 318 317 317 317 317 316 317 318 318 318 317 316 317 318 319 319 319 319 320 320 320
321 323 322 322 324 326 324 323 321 320 320 321 321 320 319 319 319 319 319 319 318 316 313 312 313 315 315 315 317 317 317 317 317 318 319 319 319 319 319 319 320 319
315 317 318 318 321 323 321 321 320 319 319 319 320 319 319 319 319 318 318 318 317 314 311 310 311 312 313 313 314 315 315 316 318 319 319 319 318 319 319 319 319 318
312 312 312 313 318 321 320 320 320 319 318 318 319 319 319 318 318 318 318 317 315 313 313 313 312 313 314 313 313 314 314 314 316 318 318 319 319 319 318 318 318 319
313 312 311 310 313 317 319 319 319 318 318 318 318 318 318 317 317 317 317 315 314 313 314 314 314 315 316 316 316 316 315 315 316 317 318 319 319 319 319 319 319 320

ECMWFNIL_850_thetae_063.txt.gz
Theta_e
332 331 330 329 329 330 330 331 330 330 331 331 332 331 329 327 327 328 327 327 329 329 327 327 328 328 327 327 328 329 329 330 330 329 329 329 329 329 329 329 328 328
332 331 330 329 329 330 331 331 330 329 330 330 331 331 330 328 328 328 328 328 328 328 327 327 328 328 327 327 329 329 330 330 330 330 329 329 329 328 328 328 328 328
332 331 331 330 328 329 330 331 330 329 330 331 331 331 331 330 329 329 329 328 328 328 328 329 329 329 328 328 329 329 329 330 330 330 329 329 328 327 327 327 328 328
332 331 331 331 329 329 329 330 331 330 330 331 331 331 331 330 330 330 330 329 328 328 329 329 329 328 327 327 327 328 328 328 329 329 328 328 327 327 327 327 327 328
330 330 332 331 330 330 330 329 330 330 331 331 330 330 331 332 331 330 330 329 328 328 328 328 328 327 325 325 326 327 327 327 327 327 327 327 327 327 327 327 327 327
329 329 331 331 331 330 330 329 329 329 329 330 327 326 328 332 331 330 330 329 328 327 326 326 326 326 324 324 326 327 327 327 326 326 326 326 326 326 326 326 326 326
331 331 331 331 331 330 328 328 328 329 329 329 327 325 325 328 331 331 330 329 326 324 325 325 325 325 324 324 326 327 327 327 326 326 326 326 326 325 325 325 326 326
331 331 331 330 331 330 328 328 329 329 328 329 328 325 324 325 328 330 329 328 325 323 324 324 325 325 324 324 326 328 327 327 327 326 326 325 325 324 324 324 325 325
330 330 330 330 331 330 329 329 329 328 328 328 327 325 324 324 327 329 328 327 325 324 324 324 324 324 322 323 326 326 326 325 326 326 326 325 324 323 323 324 324 325
330 329 329 329 330 330 330 330 330 329 328 327 326 326 325 324 326 328 328 327 326 325 325 324 323 323 322 322 324 323 322 321 323 325 325 324 324 324 323 324 324 325
331 330 329 329 329 329 330 330 329 330 329 327 326 326 325 323 324 327 327 327 326 326 325 324 322 322 322 322 322 321 319 318 321 324 325 325 325 324 324 325 324 325
330 330 329 329 329 329 330 329 329 329 329 328 327 326 324 322 323 326 327 327 327 327 326 324 323 323 323 322 321 320 319 320 323 325 326 325 325 324 324 325 324 324
328 328 328 329 329 330 330 330 330 330 329 328 327 325 323 322 323 326 327 327 327 327 326 325 324 324 324 322 321 320 320 323 325 326 326 324 323 322 323 324 323 323
326 327 328 328 329 329 330 330 330 330 329 328 327 324 322 322 323 325 327 327 327 326 325 324 324 324 323 322 321 321 321 323 325 325 325 323 322 322 323 323 323 321
325 326 327 328 328 329 330 330 330 330 329 328 327 324 322 323 324 326 326 326 326 324 323 322 321 322 323 322 322 322 323 324 324 324 324 322 322 322 322 323 322 320
324 324 326 327 328 328 329 329 329 329 329 328 327 325 324 323 323 325 325 325 324 324 323 321 320 322 322 322 323 323 323 323 323 323 322 322 322 322 321 321 320 319
324 324 324 326 326 327 328 328 329 328 328 328 327 327 325 322 321 323 324 323 324 324 323 321 320 322 323 321 322 322 321 322 322 322 322 322 321 320 320 320 319 318
323 323 324 325 325 326 327 328 329 328 328 328 327 325 323 319 318 322 323 323 323 323 323 320 319 322 323 320 320 321 321 321 321 322 321 321 320 320 320 319 318 318
321 322 322 324 325 325 326 327 329 328 328 328 325 322 320 317 318 323 325 324 323 323 323 320 318 321 322 320 320 321 321 321 321 321 321 320 320 320 320 318 318 318
320 320 321 323 325 325 325 326 328 328 328 327 323 321 320 318 320 324 325 324 323 323 323 321 319 320 322 321 320 320 321 321 321 321 320 320 320 319 320 319 318 318
318 319 321 322 324 324 325 326 327 327 327 324 321 321 321 320 322 324 324 323 323 323 322 321 318 318 320 320 319 320 320 321 320 320 320 319 319 319 319 319 318 318
316 317 320 321 322 323 323 324 326 326 324 322 322 322 323 323 324 324 323 323 322 322 321 320 318 317 318 318 318 319 320 320 320 319 319 319 319 319 319 319 318 318
313 315 317 319 320 321 319 319 324 325 322 321 323 322 321 323 324 322 322 322 321 320 320 319 318 317 317 318 318 319 320 320 320 319 318 318 318 318 319 319 318 319
312 312 314 315 317 318 315 313 317 323 322 321 321 319 319 321 322 321 320 320 319 319 318 318 317 317 317 318 318 318 318 319 319 318 317 317 318 319 318 318 318 319
311 311 311 312 312 313 312 310 312 317 320 319 318 317 318 319 319 319 319 318 318 318 317 317 317 317 317 317 317 318 318 318 318 317 316 317 318 318 318 318 319 320
310 310 310 310 309 309 309 308 309 313 316 317 317 317 317 318 317 318 319 317 317 316 316 316 316 316 316 316 316 316 317 317 318 317 317 318 319 319 319 319 319 319

ECMWFNIL_850_thetae_066.txt.gz
Theta_e
329 328 328 329 330 331 332 333 332 332 331 331 331 331 331 331 331 331 329 327 327 327 327 327 328 328 328 329 329 329 329 328 328 328 328 329 328 328 329 328 328 329
328 327 327 327 329 330 331 332 333 332 332 332 331 330 331 331 331 331 331 329 328 327 328 328 328 328 328 328 329 329 328 328 328 328 329 329 328 328 329 328 328 329
328 328 327 326 327 329 329 330 331 331 331 332 331 329 328 329 328 329 330 330 330 329 328 329 329 328 328 328 329 328 327 328 329 329 329 329 329 328 328 328 328 329
327 327 327 327 327 327 326 327 328 329 328 330 331 329 328 328 327 326 327 329 330 330 329 329 329 328 327 327 328 327 328 329 329 330 330 330 329 328 328 329 329 329
328 328 328 328 326 324 324 326 327 327 327 329 330 330 329 329 328 326 325 325 328 330 330 329 327 327 327 327 328 328 328 329 330 330 330 330 329 328 328 328 328 328
328 329 329 329 327 324 324 326 326 326 326 328 330 330 330 330 328 325 324 324 325 327 329 329 327 326 327 327 328 329 329 329 329 329 330 329 329 328 328 328 327 327
329 329 330 329 326 324 325 326 326 325 326 328 330 330 330 329 327 324 323 324 325 325 327 328 328 327 328 328 329 329 328 328 328 328 328 328 328 328 328 327 327 327
329 329 330 329 327 326 327 327 326 327 328 329 329 329 329 329 326 324 323 324 326 326 325 326 328 328 328 328 328 328 327 328 327 327 327 327 327 327 326 326 326 326
329 329 329 329 329 329 328 327 327 328 328 329 329 329 329 329 326 324 323 323 325 326 324 324 326 328 327 327 327 326 326 327 327 326 326 326 326 326 325 325 325 325
328 328 329 329 329 329 328 328 328 328 328 329 330 329 328 328 326 324 323 323 323 324 323 323 325 327 327 326 326 326 326 327 327 327 326 326 326 325 325 325 325 325
326 327 328 329 329 329 328 328 328 329 329 329 330 330 328 327 325 324 323 323 322 322 322 323 325 327 326 326 327 326 326 326 327 327 326 326 326 326 325 325 325 324
323 324 326 327 328 329 328 329 329 329 329 329 329 330 329 327 325 323 323 322 321 321 322 323 325 326 326 326 327 326 325 326 326 325 325 325 325 325 325 324 324 324
321 322 323 324 326 328 328 328 329 329 329 329 328 328 329 328 325 324 323 323 321 321 322 323 325 326 325 325 325 325 325 325 324 322 322 324 325 325 325 324 325 325
320 322 322 323 324 326 327 328 328 329 329 329 328 328 327 327 325 325 324 323 322 322 322 323 325 326 325 324 323 324 324 324 321 319 321 323 325 325 325 325 325 325
318 320 322 322 323 324 325 327 327 328 329 329 329 328 327 326 325 325 324 323 322 323 322 323 325 326 325 323 323 324 323 321 319 321 324 325 325 325 325 325 324 323
318 320 321 321 321 323 324 325 327 328 329 329 329 329 327 325 325 324 323 322 322 322 321 323 324 326 326 324 324 323 322 320 320 323 326 326 325 324 323 324 323 322
316 319 320 321 321 321 323 324 326 327 328 329 329 329 328 326 325 324 323 323 322 321 321 323 324 325 325 325 325 323 321 320 321 323 325 325 324 323 323 323 323 322
314 316 318 320 321 321 322 324 325 326 326 328 329 329 329 328 326 324 323 323 323 321 321 323 324 324 323 323 323 323 321 321 322 323 324 324 323 322 322 322 322 321
313 314 316 318 320 321 323 324 324 325 325 326 328 329 329 329 327 324 323 324 323 320 321 322 323 321 320 320 322 322 322 323 323 323 323 323 322 322 321 321 320 319
312 312 313 315 317 320 322 323 324 324 325 326 327 327 328 328 326 323 323 324 321 319 320 322 322 320 319 321 322 323 323 322 322 322 322 322 322 321 320 320 319 318
311 312 312 312 314 317 320 323 324 324 325 325 325 325 326 327 325 323 324 322 319 318 321 323 322 321 321 322 322 322 322 322 321 321 322 321 321 321 320 320 319 318
310 311 311 310 311 314 317 320 322 323 324 324 323 324 326 327 326 325 325 323 321 321 323 324 323 321 321 322 322 321 321 321 321 321 321 321 320 320 320 319 319 318
309 310 310 309 309 311 314 317 319 319 321 321 320 322 324 325 325 325 325 325 324 324 324 324 323 321 320 321 321 320 320 321 321 321 321 320 320 320 319 319 319 319
309 309 310 309 308 308 310 313 314 315 316 316 315 316 321 324 323 323 324 324 323 323 324 324 323 320 319 321 321 320 320 320 320 320 320 320 319 319 319 319 319 318
308 309 309 309 308 307 308 309 311 310 311 312 311 311 315 320 321 322 321 319 318 319 320 321 320 319 319 320 320 320 320 320 320 320 320 319 318 318 319 319 319 318
307 308 308 308 307 307 306 307 308 307 307 309 308 308 312 317 318 317 316 315 315 316 317 318 319 319 319 320 319 320 320 320 320 320 320 319 318 318 319 319 318 318

ECMWFNIL_850_thetae_069.txt.gz
Theta_e
330 330 330 329 329 329 328 329 331 331 330 327 324 324 325 326 328 330 330 329 329 329 329 330 329 327 327 328 328 328 328 327 327 328 329 329 328 328 328 328 328 329
330 330 329 329 329 328 328 328 330 330 329 328 325 325 325 325 327 329 330 330 329 328 327 329 330 330 329 329 328 328 328 327 327 327 329 329 328 328 328 328 328 329
329 329 329 328 327 328 328 328 329 329 328 327 327 326 325 327 327 327 328 329 330 330 328 327 329 330 330 329 329 328 328 327 327 327 328 329 329 328 328 329 329 328
329 328 327 327 326 327 328 328 328 328 327 327 327 327 325 326 327 326 327 327 328 330 330 327 326 328 329 330 329 329 329 328 329 328 328 329 329 328 329 329 329 328
328 328 327 327 327 327 328 328 328 328 327 326 327 327 326 326 327 327 328 328 328 330 330 328 326 326 327 328 329 329 329 329 329 328 328 329 329 329 329 329 329 329
328 328 329 329 328 328 328 328 328 327 326 326 326 326 326 327 328 328 329 328 328 329 328 327 327 327 327 327 328 329 329 329 329 328 328 328 328 329 329 329 329 329
328 328 329 329 329 329 328 328 327 326 327 328 328 326 326 328 329 329 329 329 328 328 327 326 326 326 326 326 328 329 328 328 328 327 329 329 329 329 329 329 329 329
326 327 328 328 328 329 329 329 328 327 328 329 329 327 327 328 329 329 329 328 327 326 326 325 325 325 326 326 328 329 329 329 327 328 329 330 330 330 329 329 329 328
322 323 325 326 328 328 328 329 329 328 328 328 328 328 327 327 327 328 329 328 326 325 324 325 325 326 325 325 326 327 328 329 328 328 329 329 329 329 329 329 329 328
319 320 321 323 325 326 327 328 328 328 328 328 328 329 327 327 327 327 328 327 325 324 323 325 326 325 324 324 325 326 328 329 329 328 328 328 328 328 328 328 328 328
318 319 320 321 322 323 325 326 327 327 328 328 328 328 328 328 328 328 328 326 324 323 324 326 327 325 323 324 325 326 327 328 328 328 328 328 327 327 327 327 327 327
317 318 319 320 321 322 323 325 326 327 328 328 328 328 328 328 328 328 328 327 325 323 324 327 327 324 322 323 324 324 326 327 328 327 327 327 327 327 327 327 326 326
316 317 319 320 321 322 322 323 325 327 327 328 328 328 328 329 329 329 329 327 326 324 324 326 327 324 322 323 324 323 324 325 327 326 327 327 327 326 326 327 326 326
314 315 317 319 321 321 322 322 323 325 326 327 328 329 329 329 329 330 329 328 326 324 324 325 325 324 322 323 324 323 323 325 326 326 326 327 327 326 326 327 327 326
313 313 314 318 320 321 321 321 322 324 326 327 327 328 329 329 329 329 329 329 327 324 323 323 323 322 323 324 324 323 323 325 326 326 326 326 325 326 326 327 327 326
312 313 313 315 319 321 321 321 321 322 324 325 326 327 328 328 329 329 329 329 328 325 322 322 323 323 323 324 323 322 323 324 325 325 326 324 323 323 325 326 326 326
311 312 312 313 315 319 321 321 320 321 322 323 324 325 327 327 328 329 329 329 328 326 324 323 322 323 324 324 323 321 321 322 323 325 325 323 321 322 325 326 325 326
310 311 312 312 312 315 318 320 321 321 322 323 324 325 325 326 326 327 328 328 328 327 326 324 323 323 325 325 323 321 320 321 324 325 323 322 323 324 325 326 325 325
310 310 310 311 311 312 314 317 320 321 322 323 324 324 324 325 325 326 326 326 327 327 327 325 324 324 325 325 323 322 321 322 325 324 322 322 324 326 325 325 324 323
309 309 309 310 310 311 312 314 316 319 320 322 323 323 324 325 325 325 325 326 326 326 327 326 325 325 326 325 324 323 322 323 324 323 322 323 325 325 324 323 323 323
307 308 308 308 309 310 311 311 313 315 317 318 319 321 322 323 324 325 325 325 325 326 327 326 326 326 327 326 324 324 324 324 324 322 322 323 324 324 323 323 323 323
307 307 307 307 308 309 309 310 310 311 313 314 316 317 319 320 322 323 324 325 325 326 327 326 326 326 327 326 324 324 324 324 323 323 323 323 323 323 323 322 322 321
306 306 306 306 307 307 308 308 308 308 309 311 312 314 315 317 319 321 322 323 324 325 326 326 326 326 326 326 324 323 323 323 323 323 322 322 322 322 322 322 321 320
306 306 306 306 306 306 306 306 306 306 306 307 309 310 311 312 314 316 318 319 321 324 325 326 325 326 326 326 323 322 323 323 323 323 321 321 321 321 321 321 320 320
306 306 306 305 305 305 305 305 305 305 305 305 307 308 307 308 310 312 313 314 316 320 324 325 324 325 326 325 323 322 323 322 322 322 321 321 321 320 320 321 320 320
305 305 305 305 305 304 304 305 304 304 305 305 306 306 306 306 307 309 311 311 311 315 319 321 322 323 324 324 322 321 322 321 321 321 321 321 321 320 320 320 320 320

ECMWFNIL_850_thetae_072.txt.gz
Theta_e
328 329 330 330 329 329 329 329 330 331 330 331 331 329 327 325 325 326 326 327 328 328 328 328 329 331 330 328 328 327 328 328 329 330 329 329 331 331 330 330 329 330
328 329 330 330 329 329 329 329 330 330 330 331 331 330 329 327 325 325 326 327 328 328 328 328 329 329 329 328 328 328 329 329 329 329 328 328 330 331 330 330 330 331
328 329 329 329 329 329 329 329 329 330 330 330 330 329 328 328 327 326 327 327 329 329 329 329 329 328 328 328 327 327 328 330 330 330 328 328 330 330 330 330 330 330
328 328 328 329 329 329 329 329 330 330 329 328 328 327 327 328 327 327 327 327 328 330 330 330 329 328 328 328 327 326 327 329 330 330 329 329 329 329 330 331 330 330
327 327 328 328 329 329 329 328 329 329 329 329 328 326 326 327 328 327 327 327 328 330 330 330 330 329 327 327 328 328 328 329 329 329 329 329 329 329 330 331 331 331
324 326 327 328 329 329 329 329 329 329 329 329 330 328 325 326 328 328 327 328 328 329 330 330 330 329 328 327 327 328 328 328 328 329 329 329 329 329 330 331 330 329
320 322 324 326 327 328 329 330 330 329 329 329 330 329 327 327 327 327 327 329 330 329 329 329 330 330 328 327 326 326 326 327 327 328 329 330 330 329 330 330 329 328
318 319 320 321 323 325 327 328 329 329 329 329 329 329 329 329 328 327 328 329 330 330 329 329 330 330 329 328 327 326 325 326 327 328 329 329 329 329 329 329 329 329
317 318 318 319 320 321 323 325 327 328 328 329 329 329 329 330 329 329 329 330 330 330 330 329 329 329 329 328 329 328 327 326 326 327 328 328 328 329 329 329 330 331
316 317 318 319 320 320 321 322 325 327 328 328 328 328 329 329 330 330 331 331 331 331 330 329 328 327 326 327 328 328 328 327 326 327 328 327 327 329 330 329 330 330
315 316 317 319 320 320 321 322 323 324 326 327 327 328 329 329 329 330 331 331 331 331 331 330 328 326 325 325 326 328 327 326 327 328 328 326 325 327 329 329 328 329
314 314 315 317 319 320 321 321 322 322 324 326 327 328 328 329 329 329 330 330 330 331 331 330 328 327 325 325 326 327 327 326 328 328 327 326 325 325 328 330 330 330
314 314 313 314 317 319 320 320 321 321 322 324 325 327 328 328 329 329 329 329 330 330 330 330 329 327 325 325 326 326 325 326 327 328 328 327 325 325 329 330 328 329
311 312 312 312 314 316 318 320 320 320 321 322 323 325 326 327 328 328 329 329 329 330 330 330 330 329 327 325 326 326 325 326 328 328 328 327 325 326 329 330 329 329
310 311 311 311 312 313 316 318 319 320 320 321 321 323 325 326 327 328 328 329 329 330 330 329 328 329 328 327 326 326 325 326 327 328 328 327 327 328 329 329 329 328
309 309 310 311 312 312 313 315 317 319 320 320 321 322 323 325 326 327 327 328 329 329 329 329 328 328 328 327 327 326 324 324 326 327 327 327 328 329 327 326 327 326
308 308 309 309 310 311 312 313 314 316 318 320 321 322 322 323 324 325 326 327 328 328 329 330 328 328 327 327 328 326 324 324 326 327 326 327 329 329 326 325 326 326
307 308 308 308 308 309 310 311 312 313 315 317 319 321 322 323 323 324 325 326 328 328 329 329 329 327 326 326 327 326 323 324 327 327 327 328 329 328 326 325 325 325
307 307 307 307 307 307 308 309 310 311 312 314 316 318 319 321 323 324 325 326 327 327 327 328 328 328 327 326 326 325 324 325 327 327 328 327 327 326 326 326 326 326
306 306 306 306 306 306 307 307 308 309 310 311 313 314 316 318 320 322 324 324 325 325 326 326 327 327 327 325 325 325 325 326 327 327 327 326 325 324 325 325 327 327
306 306 306 306 305 306 306 306 307 308 308 309 310 311 313 314 316 319 321 322 323 323 324 325 325 326 327 326 325 324 326 327 327 326 326 325 325 324 323 324 325 325
305 305 305 305 305 305 305 305 306 306 307 307 307 308 309 311 313 315 317 319 320 321 323 324 324 325 326 327 326 324 325 327 327 325 325 326 325 323 322 322 324 325
305 305 305 305 305 305 304 305 305 306 306 306 306 307 308 308 310 311 313 315 317 318 320 322 324 324 325 326 326 325 325 327 327 326 325 325 324 321 320 321 324 325
304 304 304 304 304 304 304 304 304 305 305 305 306 306 307 307 308 309 310 311 313 315 317 319 321 323 324 325 326 326 326 326 326 325 324 324 323 321 320 321 323 324
304 304 304 304 304 304 304 303 303 304 304 305 305 305 306 306 306 307 308 310 311 312 314 316 318 321 322 323 325 326 326 326 325 324 323 323 323 322 322 322 323 323
303 303 304 304 304 304 304 303 303 303 304 304 304 304 305 305 305 305 306 308 309 310 312 313 315 317 319 320 321 324 326 325 323 322 322 323 323 323 323 322 322 322

ECMWFNIL_850_thetae_075.txt.gz
Theta_e
328 329 330 331 332 333 333 333 332 332 331 330 330 331 332 332 330 329 327 326 327 328 329 331 331 330 330 329 329 330 329 329 330 330 330 330 330 330 329 327 328 328
327 328 329 329 331 332 332 331 330 331 330 329 329 328 329 331 332 331 328 326 326 327 327 329 330 330 332 332 331 331 330 330 330 330 329 329 328 329 329 328 328 328
326 327 328 329 329 330 331 330 329 330 330 329 329 328 327 328 331 331 330 328 327 327 327 328 328 329 331 332 332 332 331 330 330 330 329 328 328 329 329 328 328 327
323 325 327 328 328 328 329 330 330 330 331 330 330 330 328 327 328 330 331 330 328 328 328 328 329 329 329 330 332 332 332 331 330 330 329 328 328 329 329 328 327 326
320 321 323 325 326 327 328 329 330 330 330 330 330 329 329 328 329 329 330 331 331 329 329 329 329 329 329 329 330 331 331 331 330 330 328 327 327 327 327 327 327 326
318 319 319 321 323 325 326 327 329 330 330 330 330 329 328 329 330 329 329 331 332 332 331 330 330 330 329 329 329 329 329 331 331 330 328 327 326 326 327 327 328 328
317 318 318 318 319 320 322 324 326 328 330 330 331 330 330 330 330 330 330 331 332 332 332 332 332 331 330 330 329 329 329 330 332 331 328 328 328 327 327 328 328 328
317 317 317 318 318 319 320 321 322 324 326 328 329 329 329 330 330 330 331 331 330 331 331 332 332 332 332 331 330 329 329 330 331 331 329 330 330 328 328 328 328 328
316 316 316 316 317 318 319 320 321 321 322 324 326 328 329 329 329 330 330 330 329 327 328 330 331 331 332 332 331 330 329 329 330 330 330 330 330 329 330 329 327 328
315 315 315 316 316 317 318 320 320 321 321 322 324 325 327 328 328 329 329 328 328 327 327 328 329 330 331 331 331 330 330 330 329 329 329 329 329 329 330 329 328 328
314 314 314 315 315 315 316 317 319 320 321 321 322 323 324 326 328 329 328 328 329 329 329 329 328 329 330 330 330 330 331 331 330 329 329 329 329 329 330 330 329 326
313 313 313 314 314 314 314 315 316 318 319 320 321 321 322 323 326 328 328 329 330 329 329 329 328 328 329 329 330 329 329 331 331 328 328 329 329 329 330 330 329 326
312 312 312 312 313 313 313 313 313 315 317 319 320 320 320 321 323 325 327 328 329 329 329 329 328 328 328 328 329 329 328 330 330 328 327 328 328 329 330 330 329 328
311 311 311 311 311 312 312 312 312 313 315 316 318 319 320 320 321 323 326 327 327 328 328 329 328 328 327 326 327 328 328 328 329 327 327 328 328 329 329 329 329 328
310 310 311 310 310 310 310 311 311 312 313 314 315 317 318 319 319 321 324 325 326 327 328 328 328 328 328 327 327 327 327 327 328 328 329 329 328 329 329 328 328 328
310 310 310 309 310 310 310 310 310 310 311 312 313 314 316 317 319 320 321 323 325 326 327 328 328 328 328 328 327 328 327 328 329 328 328 328 328 329 331 329 327 327
309 309 309 309 309 309 309 309 309 309 310 311 312 312 313 315 316 317 319 321 323 324 325 327 328 328 328 328 328 328 328 328 329 327 326 327 327 328 330 329 327 326
308 308 308 308 308 308 308 308 308 308 309 310 311 311 312 312 313 314 316 318 321 322 324 325 327 327 327 328 329 329 328 327 328 327 327 326 325 326 328 328 327 327
307 307 307 307 307 307 307 307 307 307 307 308 309 310 310 311 311 312 313 315 317 320 323 324 326 326 326 327 329 329 328 328 327 327 327 326 324 323 325 327 327 328
307 307 307 307 307 307 306 306 306 306 306 307 307 308 309 310 311 311 311 312 314 317 320 323 324 325 325 326 327 328 328 328 327 327 328 327 325 325 326 327 327 327
306 306 306 306 306 306 306 306 306 305 305 305 306 306 307 308 309 309 310 310 311 313 316 319 321 323 324 325 326 326 327 327 327 327 328 328 327 327 326 326 326 327
306 306 306 306 306 306 306 305 305 305 305 304 304 305 305 306 307 308 308 309 310 311 313 315 318 320 321 323 324 325 325 326 326 327 327 328 327 326 326 326 326 327
305 305 305 305 305 305 305 305 304 304 304 304 304 304 304 305 305 306 307 308 308 309 310 312 314 316 317 320 322 323 324 324 325 326 327 327 327 326 327 327 326 325
304 304 305 305 305 305 305 304 304 304 303 303 303 303 303 303 303 304 305 306 307 307 308 310 311 313 314 316 318 320 322 323 324 324 325 327 327 327 327 327 326 325
304 304 304 304 304 304 304 304 304 303 303 303 303 303 303 303 303 303 303 305 306 307 307 308 309 310 312 314 315 317 319 321 322 322 323 325 325 325 326 326 326 325
303 303 303 303 303 303 303 303 303 303 303 303 302 302 302 302 302 302 302 303 304 306 307 307 308 309 309 311 313 314 316 319 320 319 321 323 323 325 326 326 325 324

ECMWFNIL_850_thetae_078.txt.gz
Theta_e
325 325 326 327 327 329 330 331 332 332 332 331 331 331 331 330 329 329 329 329 328 326 326 327 329 329 329 330 331 331 333 333 332 331 329 328 328 329 329 328 328 328
322 323 324 326 327 328 329 330 330 331 331 332 331 331 330 330 329 329 328 328 328 327 326 327 329 329 329 330 331 332 332 331 330 330 329 328 328 329 329 329 328 327
320 320 321 322 324 326 327 328 329 329 330 330 330 330 330 330 330 329 329 328 327 327 327 328 329 329 329 329 330 331 332 331 330 330 330 329 329 329 330 329 327 327
319 319 320 320 320 321 323 325 326 327 328 328 329 330 330 330 330 330 329 329 328 327 328 328 328 329 329 329 330 331 331 330 330 330 330 330 330 330 330 329 327 327
319 319 319 318 318 318 319 320 321 322 324 326 327 329 329 330 330 330 330 330 330 329 328 328 327 327 327 328 330 330 329 330 330 330 331 331 330 331 330 329 329 328
318 318 318 317 317 317 318 318 319 319 320 322 323 325 328 329 330 330 330 330 330 330 329 329 328 328 328 329 330 329 329 329 330 331 332 332 331 331 330 329 329 328
316 316 316 316 317 317 316 317 318 318 319 320 320 321 323 326 328 329 330 330 330 330 330 329 329 330 330 330 331 330 329 329 329 330 331 331 332 330 330 329 329 328
315 315 315 316 316 316 315 315 316 316 317 318 319 320 320 321 323 325 328 329 329 329 329 329 329 328 329 330 330 331 330 329 329 330 330 330 331 331 330 330 329 329
314 314 314 314 314 314 314 314 314 314 314 315 316 318 319 320 320 321 323 326 328 328 328 328 328 327 327 328 329 329 330 330 329 330 330 329 330 330 330 330 329 329
313 313 313 313 313 313 313 313 312 312 313 313 314 315 316 318 319 320 320 322 325 327 328 328 328 328 327 328 329 328 329 329 329 329 328 329 329 330 330 330 329 329
312 312 312 312 312 312 312 312 312 312 312 311 312 313 314 315 317 318 319 320 322 324 326 327 328 328 329 329 329 328 329 329 329 329 328 329 329 329 329 330 329 329
311 311 311 311 311 311 311 311 311 311 311 311 311 312 312 313 314 315 316 318 319 322 324 326 327 327 328 329 329 329 329 329 330 330 329 329 329 330 330 329 329 329
310 310 310 310 310 310 310 309 309 309 310 310 310 311 311 312 312 313 314 315 317 319 321 323 325 326 327 328 328 328 328 329 330 329 329 329 330 330 330 329 329 329
310 309 309 309 309 309 308 308 308 308 309 309 310 310 310 311 312 312 312 313 314 316 318 321 323 324 326 327 327 327 328 329 329 328 328 328 329 329 329 329 328 328
309 309 309 308 308 308 308 308 307 307 308 308 308 308 309 310 311 312 312 312 313 314 316 319 321 322 324 325 326 326 327 328 329 329 328 328 328 329 329 329 328 327
308 308 308 308 308 308 307 307 307 307 307 307 307 307 307 309 310 311 311 311 312 313 314 316 319 321 323 324 324 324 325 327 328 329 328 328 328 328 328 327 327 327
307 307 307 307 307 307 307 307 306 306 306 306 306 306 306 307 307 308 309 310 311 311 312 313 315 318 320 322 322 323 324 325 327 328 329 328 328 328 328 328 327 327
307 307 307 307 307 306 306 306 306 305 305 305 305 304 304 305 305 306 307 308 309 310 310 311 312 314 316 318 320 321 323 324 326 327 328 328 328 329 329 328 327 326
306 306 306 306 306 306 306 306 305 305 304 304 304 304 304 304 304 304 304 305 307 308 309 309 310 311 313 315 318 320 322 324 325 326 327 328 328 328 328 327 327 327
306 305 305 305 305 305 305 305 305 304 303 303 303 303 303 303 303 302 303 303 305 306 307 307 308 310 311 313 315 318 320 322 323 324 326 327 328 328 327 327 327 327
305 305 305 305 305 305 304 304 304 304 303 303 303 303 302 302 302 302 302 302 303 304 305 306 307 309 311 312 313 315 317 319 322 323 325 326 327 328 328 327 327 327
304 304 304 304 304 304 304 304 303 303 303 303 303 302 302 302 302 302 302 301 302 302 302 303 305 307 310 311 312 314 316 318 319 321 323 325 326 326 327 327 327 327
304 304 304 304 303 303 303 303 303 302 302 303 302 302 302 301 301 301 301 301 301 301 301 301 302 304 308 310 311 312 314 316 318 320 321 323 324 325 325 326 326 326
303 303 303 303 303 303 303 303 302 302 302 302 302 302 302 301 300 300 300 300 301 301 300 300 301 302 305 308 310 311 312 314 316 318 320 321 322 323 324 325 326 326
303 303 303 303 302 302 302 302 302 301 301 301 302 302 302 301 300 300 300 300 301 301 301 300 300 301 303 305 308 309 310 312 313 314 317 318 320 321 322 323 325 326
303 302 302 302 302 302 302 302 301 301 301 301 301 301 301 300 300 300 300 299 300 300 300 300 300 300 301 302 305 307 308 309 310 311 312 314 316 318 320 321 323 325

ECMWFNIL_850_thetae_081.txt.gz
Theta_e
319 319 319 320 320 321 322 324 326 328 329 329 328 328 328 329 329 330 330 330 329 329 329 329 328 328 328 328 329 329 329 329 329 329 330 331 332 331 329 330 330 329
318 318 318 318 317 317 318 319 321 323 324 325 325 326 326 327 328 329 329 329 329 329 329 329 329 328 328 328 328 328 328 328 329 329 329 330 331 330 329 329 329 329
318 317 317 317 317 316 316 317 318 319 319 320 321 322 323 324 326 327 328 329 328 328 328 329 329 329 329 328 328 328 327 327 328 329 329 329 330 329 329 328 329 329
316 316 316 316 316 315 315 315 316 317 317 318 319 320 320 321 322 324 326 327 328 327 328 329 329 329 329 328 328 328 328 328 328 328 328 329 330 329 329 329 329 329
315 315 315 315 314 314 314 314 314 314 315 315 316 317 318 319 320 321 323 325 326 326 327 328 329 328 328 328 328 327 327 328 329 328 327 327 329 329 330 330 330 330
314 313 313 313 313 313 313 313 313 313 313 313 313 314 315 317 318 319 320 321 323 325 326 328 328 328 328 328 328 327 326 327 328 329 328 328 328 328 329 329 330 330
312 312 312 311 311 311 311 312 312 312 312 312 312 313 313 314 315 316 317 318 320 322 324 326 326 327 327 327 328 327 327 327 327 328 329 328 329 328 328 329 330 331
311 311 311 311 311 311 311 311 311 311 311 312 312 312 312 312 313 313 314 315 317 319 321 323 324 325 326 327 327 327 327 327 327 328 329 328 329 329 329 329 329 331
310 310 310 310 310 310 310 310 310 310 311 311 312 312 312 312 312 312 312 313 314 316 318 320 322 323 325 326 326 327 327 327 328 328 328 328 329 329 329 329 329 330
309 309 309 309 309 309 309 308 309 309 310 310 311 311 312 312 312 312 312 312 313 313 315 317 319 320 322 323 324 325 326 327 328 328 328 328 329 329 329 328 328 329
309 309 309 309 308 308 308 308 308 308 308 309 309 310 311 311 311 311 311 312 312 312 313 315 316 317 319 321 322 323 325 326 327 328 327 328 329 329 329 329 329 328
308 308 308 308 307 307 307 306 306 306 306 306 307 308 309 310 310 310 310 311 311 312 312 313 314 315 316 318 319 321 323 324 326 327 327 328 328 328 328 328 329 328
307 307 307 306 306 306 305 305 305 305 305 305 305 306 307 308 309 309 309 309 310 311 311 312 312 313 314 315 316 318 320 322 324 325 326 327 328 328 328 328 328 328
306 306 306 306 305 305 304 304 304 304 304 304 304 304 305 306 306 307 307 308 309 309 310 311 311 311 311 312 313 315 316 318 321 322 325 326 327 328 328 327 327 328
305 305 305 305 304 304 304 304 303 303 303 303 303 303 304 304 304 305 306 306 307 308 308 309 310 310 310 310 311 312 314 315 317 320 322 323 325 327 328 328 328 327
304 305 304 304 304 303 303 303 303 303 303 302 302 301 302 303 302 302 303 304 305 306 307 307 308 308 309 310 310 311 312 314 315 317 319 321 322 324 326 328 328 328
304 304 304 304 303 303 302 301 302 302 302 302 301 301 301 301 301 301 302 302 303 304 305 305 306 307 308 309 310 311 312 313 314 315 318 319 321 322 325 326 327 328
304 304 304 303 303 303 302 301 301 302 302 302 301 300 300 300 300 300 301 301 302 302 303 303 304 305 307 308 309 310 311 312 313 314 316 318 320 322 324 325 326 327
303 303 303 303 303 302 301 300 300 301 302 302 301 300 300 300 300 300 300 301 301 301 301 302 303 304 305 306 307 309 310 311 313 314 314 316 319 321 322 324 324 326
303 302 302 302 302 302 300 300 299 300 300 301 301 300 299 300 300 300 300 300 300 300 301 301 301 302 303 304 306 307 309 310 312 313 314 315 317 319 321 322 323 324
302 302 302 302 302 301 299 299 299 298 299 300 300 299 299 299 300 300 300 300 300 300 301 301 301 301 302 303 304 305 306 308 310 312 313 314 315 317 319 321 322 323
301 301 301 301 301 300 299 298 298 298 298 299 299 298 298 299 299 300 300 300 300 300 300 300 300 300 301 301 302 303 304 306 307 309 311 313 314 315 317 319 321 323
301 301 301 301 300 300 299 299 298 298 298 298 298 298 298 298 299 299 299 299 299 299 298 298 299 299 299 300 301 301 302 303 305 306 308 310 311 312 314 316 319 321
301 300 300 300 300 299 299 299 298 298 298 298 298 297 297 297 298 298 298 298 297 297 297 297 297 298 298 298 299 300 301 302 303 304 305 307 309 310 311 313 315 318
301 300 299 299 300 300 299 299 298 298 298 298 298 298 297 297 297 297 297 297 297 297 297 297 297 297 297 297 298 299 300 301 301 302 303 304 306 308 309 310 313 315
301 300 299 299 300 300 299 299 298 298 298 298 298 298 297 297 297 297 297 297 297 297 297 297 296 296 296 297 297 297 298 300 300 301 302 303 304 306 307 308 310 312

ECMWFNIL_850_thetae_084.txt.gz
Theta_e
318 318 318 317 318 318 318 320 321 322 323 324 325 325 325 325 325 325 326 326 326 325 326 327 327 328 328 328 329 329 328 328 328 328 328 328 328 328 329 329 330 330
316 316 316 316 315 315 316 317 318 319 320 320 321 321 321 322 322 322 323 324 324 325 326 326 326 326 327 328 329 328 328 328 328 328 328 328 328 328 328 329 330 330
315 315 315 314 314 314 314 315 315 316 316 317 317 318 318 319 319 320 320 320 321 323 324 325 325 326 326 327 328 328 328 328 327 327 327 327 327 328 327 328 329 330
314 313 313 313 313 313 313 313 313 313 314 314 314 315 315 316 317 317 318 318 319 320 321 322 324 324 325 326 327 327 327 327 326 326 327 327 327 328 327 328 328 328
312 312 312 312 312 312 312 312 312 312 312 313 313 313 313 314 314 314 315 316 318 319 319 319 320 322 323 324 325 326 326 326 326 326 326 327 327 328 328 328 328 328
311 310 310 310 310 311 311 311 311 312 312 312 312 312 312 312 312 313 313 314 315 316 317 318 318 319 320 322 323 324 324 324 325 326 325 326 327 328 328 327 328 328
309 309 309 309 309 309 310 310 311 311 311 311 311 311 312 312 312 312 312 313 313 313 315 316 317 318 318 319 320 321 322 323 323 324 325 325 326 327 328 328 328 328
308 308 308 308 308 309 309 310 310 310 310 311 311 311 311 311 311 312 312 312 313 313 313 314 314 315 316 317 317 318 319 320 321 322 323 324 325 327 327 327 327 327
307 307 307 307 307 308 308 308 309 309 309 310 310 310 310 311 311 311 311 312 312 313 313 313 313 313 314 314 314 315 316 317 318 320 321 322 323 325 327 327 328 328
306 306 306 306 306 306 306 307 307 308 308 309 309 310 310 310 310 310 310 311 311 311 312 312 312 312 312 312 312 313 313 314 314 315 317 320 322 325 326 326 327 328
305 304 304 305 305 305 305 306 306 306 307 307 308 309 309 309 310 309 309 309 309 310 310 310 311 311 311 311 311 312 312 313 313 313 314 316 319 322 324 325 326 327
304 303 303 303 303 304 304 304 304 304 305 305 306 307 308 308 308 308 308 308 308 308 308 308 309 309 309 309 310 311 312 312 313 313 314 314 315 319 322 324 325 326
303 303 302 301 301 302 302 303 303 303 303 304 304 305 305 305 305 306 306 306 306 307 307 307 307 307 307 308 308 309 310 311 312 313 314 314 314 316 319 321 323 325
303 302 301 300 300 300 301 301 300 301 302 302 303 303 303 302 303 303 304 304 304 305 305 305 305 305 306 306 306 308 309 310 312 313 313 314 314 314 316 319 321 322
303 301 300 299 299 299 300 300 299 300 300 301 301 301 301 301 301 302 302 302 302 302 303 303 304 304 303 303 304 306 307 308 310 311 312 313 314 314 315 317 319 320
302 300 298 298 298 298 298 298 298 299 299 299 300 300 300 300 300 300 301 300 301 301 301 301 302 302 302 302 303 304 305 307 308 309 310 311 312 313 314 316 317 319
301 299 297 297 297 297 297 297 298 298 298 298 299 299 299 300 300 300 299 299 299 299 299 299 300 300 300 301 302 303 304 305 306 307 309 310 311 311 313 314 316 318
300 298 298 298 297 297 297 297 297 297 297 298 298 298 298 298 298 298 298 298 298 298 298 298 298 298 299 300 301 302 303 304 305 306 307 308 309 310 311 313 314 316
298 298 298 298 297 297 296 296 297 297 297 297 297 297 297 297 297 297 297 297 297 297 297 297 297 298 298 299 299 300 302 303 304 305 305 306 308 309 310 311 313 315
298 298 298 298 298 297 297 296 297 297 297 297 297 297 297 297 297 297 296 296 296 296 296 296 296 297 297 298 298 299 300 302 303 304 304 305 306 307 308 309 310 312
298 298 298 298 298 298 298 297 297 297 297 297 296 296 296 296 296 296 296 296 296 296 296 296 296 296 296 297 298 298 299 300 301 302 303 304 305 305 306 307 308 310
298 298 298 298 298 298 298 297 297 297 297 297 297 297 297 296 296 297 297 297 296 296 295 294 294 294 295 296 297 298 298 299 300 301 302 303 304 304 305 306 306 308
298 298 298 298 298 298 298 297 297 297 297 297 297 297 297 297 297 297 297 297 296 295 294 293 293 293 294 295 296 297 297 298 299 300 300 302 302 303 304 305 305 306
298 298 298 298 298 298 298 297 297 297 297 297 297 297 297 297 297 297 297 296 296 294 293 293 293 293 294 295 296 296 296 297 298 298 299 300 301 302 303 303 304 305
298 298 298 298 298 298 298 298 297 297 297 297 297 297 297 297 297 297 296 296 295 294 293 293 294 293 293 294 295 296 296 296 297 297 298 298 299 301 302 302 303 304
298 298 298 298 298 298 298 298 297 297 297 296 296 296 297 297 297 296 296 295 294 294 293 293 294 293 293 294 294 295 296 296 296 297 297 298 298 299 300 301 302 302

ECMWFNIL_850_thetae_087.txt.gz
Theta_e
319 319 319 319 319 319 320 320 320 321 321 321 321 322 322 322 322 322 321 321 320 320 320 321 321 322 322 323 323 324 325 326 327 327 327 327 327 327 327 327 327 328
317 316 316 316 316 316 316 317 316 317 317 317 317 318 318 318 318 318 318 318 318 318 318 318 319 319 320 321 322 322 323 324 326 327 327 327 327 326 325 325 326 327
315 314 314 314 314 314 314 314 314 314 314 314 314 314 314 314 314 315 315 315 316 317 317 318 318 318 318 319 319 320 321 322 323 325 326 326 326 325 325 325 325 326
313 313 313 312 312 313 313 313 313 313 313 313 313 313 313 313 313 312 313 313 313 314 315 316 317 317 317 317 317 317 318 319 319 321 322 323 324 324 325 324 325 326
311 311 311 311 311 311 312 312 312 312 312 311 312 311 311 311 311 312 312 312 312 312 313 313 313 314 314 314 315 315 315 315 316 316 317 318 319 321 323 324 324 325
310 310 310 310 310 310 311 311 311 311 311 311 311 311 311 311 311 311 311 311 312 312 312 312 312 312 312 312 313 313 313 313 313 313 314 314 315 317 319 321 323 324
309 309 309 309 309 310 310 311 310 310 310 311 311 310 310 310 311 311 311 311 311 311 311 311 311 312 312 312 312 312 312 312 313 313 313 313 314 314 315 317 320 323
308 308 308 308 308 309 309 309 310 310 310 310 310 310 310 310 310 310 310 310 310 310 310 310 310 311 311 311 311 311 312 312 312 313 313 313 314 314 313 314 316 320
306 306 307 307 307 307 307 308 308 308 308 308 308 309 309 309 309 309 309 309 309 309 309 309 309 309 309 309 310 310 311 311 312 312 312 313 313 314 314 313 313 316
304 305 305 305 305 305 305 306 306 306 306 306 306 306 306 307 307 307 307 307 308 308 308 308 308 308 308 308 308 308 309 310 310 311 311 312 312 313 314 314 313 313
303 303 303 303 303 303 304 304 304 304 304 304 304 304 304 304 304 305 305 305 305 305 305 305 305 306 306 306 307 307 308 308 309 310 310 311 312 313 313 313 313 313
301 301 301 301 301 302 302 302 302 302 302 302 302 302 302 302 302 302 302 303 302 302 303 303 303 304 304 304 305 305 306 307 307 308 309 310 310 311 312 312 313 313
300 300 299 299 300 300 300 300 300 300 300 300 300 300 300 300 300 301 300 300 300 300 301 301 301 302 302 303 303 304 304 305 306 307 308 309 309 309 310 311 312 313
298 298 298 299 298 298 298 298 298 298 298 299 299 298 298 298 298 298 298 298 298 299 299 299 299 300 300 301 301 302 302 303 304 305 306 307 308 308 308 309 310 311
297 297 297 297 297 297 297 297 297 297 297 297 297 297 297 297 297 297 297 297 297 297 297 297 298 298 298 299 299 300 301 301 302 303 304 306 307 308 308 308 309 310
297 297 297 297 297 297 297 297 297 297 297 297 297 296 296 296 296 296 296 296 296 295 296 296 296 296 297 297 298 299 299 300 301 302 303 304 305 306 307 308 308 309
297 296 297 297 297 297 297 297 297 296 296 296 296 296 296 296 296 295 295 295 295 295 295 295 295 294 295 296 297 298 299 299 300 301 301 302 303 304 305 306 307 308
297 297 297 297 297 297 297 297 297 296 296 296 296 296 296 296 296 296 295 295 295 294 294 294 294 294 294 295 296 297 298 298 299 300 300 301 301 302 303 304 305 306
297 297 297 297 297 297 297 297 297 297 296 296 296 296 296 296 296 295 295 294 294 294 294 294 294 294 294 294 295 296 297 298 298 299 299 299 300 300 301 302 303 304
297 297 297 297 297 297 297 297 297 297 297 297 296 296 296 295 295 294 293 293 293 293 293 293 293 294 294 294 295 295 297 297 298 298 298 299 299 299 300 301 301 302
297 297 297 297 297 296 296 296 296 296 296 296 296 296 295 294 293 293 293 293 293 293 293 293 293 293 293 294 294 295 296 297 297 298 298 298 299 299 299 300 301 301
297 297 297 297 297 296 296 296 295 295 296 296 296 295 294 293 293 293 292 292 292 292 292 292 293 293 293 293 293 294 295 296 297 297 297 298 298 299 299 299 300 300
297 297 297 296 296 296 296 295 295 295 295 295 295 294 293 293 293 293 292 292 292 292 292 292 292 292 292 292 292 293 295 296 296 297 297 297 297 298 298 298 299 299
297 297 297 296 296 296 295 295 295 295 295 295 294 294 294 294 294 293 292 292 292 292 292 292 292 292 292 292 292 292 294 295 296 296 296 297 297 297 298 297 298 298
298 297 297 297 296 296 295 295 295 295 295 295 294 294 294 294 294 294 293 292 292 291 291 291 292 292 292 292 292 292 293 295 295 296 296 296 296 297 297 297 297 298
298 297 297 297 297 296 295 296 295 294 294 294 294 294 294 294 294 294 293 293 292 292 291 291 292 292 292 292 292 292 293 294 295 295 296 296 296 297 297 297 297 298

ECMWFNIL_850_thetae_090.txt.gz
Theta_e
318 318 316 316 317 317 317 316 316 315 315 314 314 314 314 313 313 313 313 313 313 313 313 313 314 314 314 315 315 315 315 315 315 315 316 317 318 319 321 322 323 323
316 315 314 314 314 314 314 314 313 313 313 312 312 312 312 312 312 312 312 312 312 312 312 312 312 312 312 312 313 313 313 313 313 313 313 314 314 314 315 317 319 320
314 313 313 313 313 313 312 312 312 312 311 311 311 311 311 311 311 311 311 311 311 311 311 311 311 312 312 311 312 312 312 312 312 312 312 312 313 313 313 313 314 315
313 312 312 312 311 311 311 311 311 311 311 311 311 310 310 310 310 311 311 311 311 311 311 311 311 311 311 311 311 311 311 311 311 312 312 312 312 313 313 313 313 313
311 311 311 310 310 310 310 310 310 310 310 310 310 310 310 310 310 310 310 310 310 310 310 310 310 310 310 310 310 310 310 310 311 311 311 311 312 312 312 313 313 314
310 310 310 310 309 310 310 310 310 310 310 310 310 310 309 309 309 309 309 309 309 309 309 309 309 309 309 309 309 309 309 309 309 310 310 310 311 311 311 312 313 313
309 309 309 309 309 309 309 309 309 309 309 308 308 308 308 308 308 308 308 308 308 307 307 307 307 306 306 306 307 307 307 307 308 308 309 309 310 310 310 311 312 312
308 308 308 308 307 307 307 307 307 307 306 306 306 306 306 305 305 305 305 305 305 305 304 304 304 304 304 304 304 304 305 305 306 306 307 307 308 309 309 310 311 312
307 307 306 306 306 305 305 305 305 304 304 304 303 303 303 303 303 303 302 302 302 302 302 302 302 302 302 302 302 302 303 303 304 304 305 306 306 307 308 309 309 310
305 305 304 304 304 303 303 302 302 302 302 301 301 301 301 300 300 300 300 299 299 299 299 299 299 299 300 300 300 301 301 301 302 302 303 304 305 305 306 307 308 308
303 303 302 302 301 301 300 300 300 300 299 299 299 298 298 298 297 297 297 297 297 297 297 297 297 297 297 298 298 299 299 300 300 301 301 302 303 304 305 306 306 307
301 301 300 300 299 299 299 298 298 298 297 297 297 297 296 296 296 296 296 296 296 296 296 296 296 296 296 296 296 297 298 298 299 299 300 301 301 302 303 304 305 305
299 299 299 298 298 298 297 297 297 297 297 296 296 296 296 296 296 296 295 295 295 295 295 295 295 295 295 295 295 295 296 297 298 298 299 299 300 301 301 302 303 304
298 298 297 297 297 297 297 296 296 296 296 296 296 296 296 295 295 295 295 295 295 295 295 295 295 295 295 295 295 295 295 296 297 297 298 298 299 299 300 301 301 302
297 297 297 297 297 296 296 296 296 296 296 296 296 295 295 295 295 295 295 295 294 294 294 294 294 294 294 294 294 294 295 296 297 297 297 298 298 298 299 299 300 301
297 297 297 297 296 296 296 296 296 296 296 295 295 295 294 294 294 294 294 294 294 294 294 294 294 294 294 294 294 294 294 295 296 297 297 297 297 298 298 298 299 300
297 297 297 296 296 296 296 296 296 296 295 295 294 294 294 294 294 294 294 294 294 294 294 294 294 294 294 294 294 294 294 295 295 296 297 297 297 297 297 298 298 299
297 296 296 296 296 296 296 295 295 295 294 294 294 293 293 293 293 293 293 293 293 293 293 293 293 293 294 294 294 294 294 295 295 296 296 297 297 297 297 297 297 298
296 296 296 296 296 295 295 295 295 294 294 293 293 293 293 293 293 293 293 293 293 293 293 293 293 293 293 294 294 294 294 294 295 296 296 296 297 297 297 297 297 297
296 296 296 296 295 295 294 294 294 294 293 293 293 293 293 293 293 293 293 293 293 293 293 293 293 293 293 294 294 294 294 294 295 295 296 296 296 296 297 297 297 297
296 296 295 295 294 294 294 294 294 293 293 294 294 293 293 293 293 293 293 293 293 292 292 293 293 293 293 293 293 294 294 294 295 295 296 296 296 296 296 297 297 297
295 295 295 294 294 294 294 294 294 293 293 294 294 294 293 293 293 293 293 293 292 292 292 292 292 292 293 293 293 293 294 294 294 295 295 296 296 296 296 296 297 297
295 295 294 294 294 294 294 294 294 294 294 294 294 294 294 293 293 293 293 293 292 292 292 292 292 292 292 292 293 293 294 294 295 295 295 296 296 296 296 296 297 296
296 295 295 294 294 294 294 294 294 294 294 294 294 294 294 293 293 293 293 292 292 292 292 292 292 292 292 292 293 293 293 294 294 295 295 295 296 296 296 296 296 296
296 296 295 295 294 294 294 294 294 294 294 294 294 294 294 293 293 293 293 292 292 292 292 292 292 291 291 292 292 293 293 293 294 294 295 295 296 296 296 296 296 296
297 296 296 295 295 294 294 294 293 294 294 294 294 294 294 293 293 293 293 292 292 292 292 292 292 291 291 292 292 292 292 293 293 294 294 295 295 295 296 296 296 296

ECMWFNIL_850_thetae_093.txt.gz
Theta_e
316 316 316 314 314 314 313 313 313 312 312 311 311 311 311 310 310 311 310 310 311 310 310 311 311 311 311 311 311 311 311 310 311 310 311 311 311 312 312 312 312 313
314 314 313 313 312 312 312 312 311 311 310 311 310 310 310 310 310 310 310 310 310 310 310 310 310 310 309 309 309 309 309 309 309 309 309 310 310 310 311 311 312 312
312 312 311 311 311 311 311 311 310 310 310 310 310 310 309 309 309 309 309 309 309 308 308 308 307 307 307 306 306 306 306 306 306 307 307 307 308 308 309 310 310 311
311 310 310 310 310 310 310 310 310 310 310 309 309 309 308 308 308 308 307 307 306 306 305 305 304 304 304 303 303 303 303 303 303 304 304 304 305 305 306 307 308 308
309 309 309 309 310 310 309 309 309 309 308 308 307 307 306 306 306 305 304 304 303 302 302 301 301 301 300 300 300 300 300 300 300 301 301 302 302 303 303 304 305 306
309 309 309 309 308 308 308 308 307 307 306 305 305 304 304 303 302 302 301 300 300 299 299 298 298 298 298 298 297 298 298 298 298 298 299 299 300 301 301 302 303 304
308 308 307 307 307 307 306 306 305 304 304 303 302 301 300 300 299 298 298 297 297 297 297 296 296 296 296 296 296 296 296 296 296 297 297 298 298 299 299 300 301 302
307 306 306 306 305 305 304 304 303 302 301 300 299 299 298 297 297 296 296 296 296 296 296 296 296 296 296 296 295 295 295 295 295 296 296 296 297 297 298 299 299 300
305 305 304 304 303 303 302 301 300 299 298 298 297 297 296 296 296 296 296 296 296 295 295 295 295 295 295 295 295 295 295 295 295 295 295 296 296 297 297 298 298 299
303 303 302 302 301 300 299 298 298 297 297 296 296 296 296 296 296 295 295 295 295 295 295 295 295 295 295 295 295 295 295 295 295 295 295 296 296 296 297 297 298 298
301 301 300 299 299 298 297 297 296 296 296 296 296 295 295 295 295 295 295 294 295 295 295 295 294 295 295 295 295 295 295 294 294 295 295 296 296 296 297 297 297 298
299 299 298 298 297 297 296 296 296 296 296 296 295 295 295 294 294 294 294 294 294 294 294 294 294 294 294 295 295 295 294 294 294 294 295 295 296 296 296 297 297 298
298 297 297 297 296 296 296 296 296 296 295 295 295 294 294 294 294 294 294 294 294 294 294 294 294 294 294 295 294 294 294 294 294 294 295 295 295 296 296 297 297 297
297 297 296 296 296 296 296 296 296 295 295 294 294 294 294 294 294 294 294 294 294 294 294 294 294 294 294 294 294 294 294 294 294 294 295 295 296 296 296 297 297 297
297 296 296 296 296 296 296 295 295 294 294 294 294 294 294 294 294 294 294 294 294 294 294 294 294 294 294 294 294 294 294 294 294 295 295 295 296 296 296 297 297 297
296 296 296 296 296 295 295 295 294 294 294 294 294 294 294 294 294 294 293 293 293 293 293 294 294 294 294 294 294 294 294 294 294 295 295 296 296 296 296 296 297 297
296 296 296 295 295 295 294 294 294 294 294 294 294 294 293 293 293 293 293 293 293 293 293 293 293 293 294 294 294 294 294 294 294 294 295 295 296 296 296 296 297 297
296 296 295 295 294 294 294 294 294 294 294 294 293 293 293 293 293 293 293 293 293 293 293 293 293 293 294 294 294 294 294 294 294 295 295 296 296 296 296 296 296 297
296 295 295 294 294 294 294 293 294 294 294 294 293 293 293 293 293 293 293 293 293 293 293 293 293 293 293 294 294 294 294 294 294 295 295 296 296 296 296 296 296 296
296 295 294 294 294 294 294 294 294 294 294 294 293 293 293 293 293 293 293 293 293 293 293 293 293 293 293 294 294 294 294 294 295 295 295 296 296 296 296 296 296 296
295 294 294 294 294 294 294 294 294 294 294 294 293 293 293 293 293 293 293 293 293 292 293 292 292 293 293 293 293 294 294 294 295 295 296 296 296 296 296 296 296 295
294 294 294 294 294 294 294 294 294 294 294 294 293 293 293 293 293 293 293 292 292 292 292 292 292 292 293 293 293 294 294 294 295 295 296 296 296 296 296 296 295 295
294 294 294 294 294 294 294 294 294 294 294 294 293 293 293 292 292 292 292 292 292 292 292 292 292 292 292 293 293 293 294 294 295 295 295 295 296 296 295 295 295 294
294 293 293 293 293 294 294 294 294 294 294 293 293 293 293 292 292 292 292 292 292 292 292 292 292 291 292 292 292 293 294 294 294 294 295 295 295 295 295 294 294 294
294 294 294 293 293 293 294 294 294 294 294 293 293 293 293 292 292 292 292 292 292 292 292 292 291 291 291 292 292 293 293 293 293 294 294 294 294 294 294 294 294 294
294 294 294 294 293 293 294 294 294 294 294 293 293 293 293 292 292 292 292 292 292 292 292 291 291 291 291 292 292 293 293 293 293 293 293 293 293 293 293 293 293 293

ECMWFNIL_850_thetae_099.txt.gz
Theta_e
317 317 316 316 315 315 314 314 313 312 311 309 308 306 305 304 302 301 300 299 298 298 297 297 297 297 297 297 297 297 296 296 297 297 296 297 298 298 299 301 302 305
315 315 315 314 314 314 313 312 311 309 308 307 305 303 302 300 299 298 298 297 297 297 297 297 297 297 297 297 296 296 296 296 296 296 296 296 297 297 298 301 302 304
314 314 313 313 313 312 311 309 308 307 305 304 302 300 299 298 297 297 297 296 296 296 296 296 296 296 296 296 296 296 296 296 296 296 297 297 296 297 297 300 302 303
313 312 313 312 311 310 308 306 305 304 302 300 299 298 297 297 296 296 296 296 296 296 296 295 296 296 296 296 296 296 296 295 296 297 299 300 300 299 298 300 303 305
312 312 311 310 308 306 305 304 302 301 299 298 297 297 296 296 296 295 295 295 295 295 295 295 296 296 296 296 296 295 295 295 296 298 301 302 303 302 301 302 305 306
311 310 309 306 305 304 302 301 299 298 297 297 296 296 295 295 295 295 295 296 295 295 295 295 296 296 296 295 295 295 295 295 296 298 300 302 303 304 303 304 305 306
309 307 305 304 302 301 299 298 297 297 296 296 295 295 295 295 295 295 296 296 295 295 295 295 295 296 295 295 295 295 295 295 296 297 300 302 303 304 304 304 305 305
305 303 302 301 299 298 297 297 296 296 296 295 295 295 295 295 295 296 296 296 295 295 295 295 295 295 295 295 295 296 296 296 296 298 301 303 303 304 304 304 304 304
302 301 299 298 298 297 297 296 296 295 295 295 295 295 295 295 295 295 295 295 295 295 295 295 295 295 295 295 295 296 296 297 298 300 302 303 303 304 304 303 304 303
301 299 298 297 297 296 296 296 295 295 295 295 296 296 295 295 295 295 295 295 295 295 295 295 295 295 295 295 295 295 296 297 299 301 303 304 303 303 303 303 303 303
299 298 297 297 296 296 295 295 294 295 296 296 296 295 295 295 295 295 295 295 295 295 294 295 294 295 295 295 295 295 296 298 299 301 303 303 303 303 303 302 302 302
298 297 296 296 296 295 295 294 295 295 296 296 296 296 295 295 294 295 295 294 295 294 294 295 294 295 295 294 295 294 295 298 300 301 303 303 303 303 302 302 302 301
298 297 296 295 295 295 294 294 295 295 295 295 296 296 296 296 295 294 294 294 294 294 294 294 294 295 294 294 295 294 296 300 302 302 303 303 302 302 302 301 301 300
297 297 296 295 294 294 294 295 295 295 295 294 295 295 295 295 295 295 295 294 294 294 294 294 294 295 294 294 295 294 297 302 303 302 303 303 302 302 301 301 300 300
297 297 296 296 296 295 295 295 295 295 295 294 294 294 294 295 295 296 296 295 294 294 294 294 294 294 294 294 295 294 297 301 303 302 302 302 301 301 301 300 299 299
298 298 298 298 298 297 296 295 294 294 294 294 293 294 294 294 294 295 296 296 294 294 294 294 294 294 294 294 295 294 295 300 302 302 302 301 301 300 300 299 299 299
301 301 300 298 298 297 297 296 295 294 294 293 293 294 293 294 294 294 296 295 294 293 294 294 293 294 294 294 295 295 295 298 301 301 301 301 300 300 300 299 299 298
301 301 300 299 298 297 296 296 295 294 294 293 293 293 293 294 294 294 296 296 295 293 293 294 293 294 294 294 294 295 295 298 301 301 300 301 300 300 300 299 299 298
301 301 300 299 297 296 296 296 296 296 296 294 293 293 293 293 293 294 295 296 296 295 293 293 293 294 294 294 294 295 295 298 300 300 300 300 300 299 299 299 299 298
300 299 298 298 297 297 298 298 298 298 298 297 296 295 294 294 293 293 294 295 296 295 293 293 294 293 294 294 294 295 295 298 300 301 300 300 300 299 299 299 298 297
300 299 300 300 300 300 299 299 298 299 299 299 298 297 296 295 293 293 293 294 296 296 294 293 293 293 293 294 294 294 295 298 300 300 300 300 299 299 299 299 298 297
301 301 301 301 300 300 300 299 299 299 299 300 299 298 297 295 294 293 293 292 294 296 295 293 292 293 293 293 294 294 295 298 299 299 300 300 299 299 299 298 298 297
301 301 301 301 300 300 300 300 300 300 300 300 300 299 299 298 296 294 293 292 292 295 296 294 292 293 293 293 294 294 295 297 298 298 299 299 299 298 298 298 298 297
301 301 301 301 301 300 300 300 300 301 300 300 300 300 300 299 298 296 294 293 292 292 294 294 293 292 293 293 293 293 293 296 297 297 298 299 299 298 298 298 297 297
301 301 301 301 301 300 300 301 301 301 301 301 300 300 300 299 299 298 297 296 294 292 292 293 293 292 292 292 293 293 292 294 295 295 296 298 299 297 297 298 297 297
301 301 301 301 300 300 301 301 301 301 301 301 300 300 300 300 300 299 299 299 298 296 293 292 292 292 292 292 292 292 292 293 294 294 294 296 298 298 297 297 297 297

ECMWFNIL_850_thetae_102.txt.gz
Theta_e
319 319 318 318 317 317 316 316 315 313 310 307 306 304 303 301 300 299 298 298 297 297 298 297 297 297 297 297 297 297 297 296 298 297 296 296 297 299 301 301 302 304
318 317 317 316 315 315 315 314 313 311 307 305 303 301 300 298 298 298 297 297 297 297 297 297 297 297 297 297 296 296 296 296 298 299 299 297 297 299 300 303 305 304
316 315 315 314 314 313 313 312 310 307 303 302 300 299 298 297 297 297 296 296 296 296 296 296 297 296 296 296 296 296 296 297 300 302 303 301 298 299 299 302 307 304
314 314 314 313 313 312 310 307 305 302 300 299 298 297 297 296 296 296 296 296 296 296 296 296 296 296 296 296 296 296 296 298 301 303 304 302 300 300 300 302 306 304
313 313 313 312 312 310 306 303 301 300 298 298 297 297 296 296 296 296 296 296 296 296 296 296 296 296 296 296 296 296 296 297 300 301 302 304 303 301 301 303 305 305
312 312 312 310 308 305 302 300 299 298 298 297 296 296 296 297 297 297 297 297 296 296 295 295 296 296 296 296 295 295 296 297 299 300 301 304 304 302 302 304 304 304
311 311 309 307 304 301 299 298 298 297 297 296 296 296 297 298 298 298 297 296 296 295 295 295 295 295 296 296 296 296 296 297 298 300 301 303 304 304 303 304 303 303
309 308 305 302 300 299 298 297 297 296 296 295 296 297 298 298 298 299 297 295 295 295 295 295 295 296 296 296 297 298 299 299 300 302 303 304 304 303 303 303 303 303
306 303 300 299 298 297 297 297 296 296 296 296 296 296 297 297 297 298 297 295 295 295 295 295 295 295 296 296 296 298 300 302 303 304 304 304 304 303 303 303 302 302
301 299 298 298 297 297 297 296 295 296 296 296 296 296 296 297 296 296 295 295 295 295 295 295 295 295 295 295 295 297 300 302 303 304 304 304 304 303 302 302 302 301
299 298 297 297 297 296 296 296 296 297 296 296 296 295 296 298 297 295 295 295 295 295 295 295 295 295 295 295 295 297 301 303 304 304 303 303 303 303 302 301 301 301
298 297 297 296 296 296 296 296 296 297 296 296 296 295 295 296 296 295 294 295 294 294 295 294 295 295 295 295 295 296 302 303 303 304 304 302 302 302 301 300 299 299
297 297 296 296 296 296 296 296 296 296 297 298 299 298 297 295 294 294 294 294 294 294 295 295 295 295 295 295 295 296 299 302 302 303 303 302 302 302 301 299 298 298
297 296 296 296 296 296 296 296 296 296 296 297 298 298 298 297 297 295 294 294 294 294 294 295 295 295 295 295 295 296 297 300 302 303 303 301 301 301 300 300 299 298
297 297 296 296 296 296 297 296 296 295 295 295 295 296 298 300 299 297 294 294 294 294 294 295 295 295 295 294 295 296 296 298 301 302 302 301 301 301 300 300 299 299
297 297 297 297 297 296 296 296 295 295 295 295 295 295 296 297 297 295 294 294 294 294 294 295 295 294 295 294 294 295 296 298 300 301 302 301 300 301 301 300 300 299
298 298 298 297 296 296 295 295 295 295 295 294 295 295 294 295 295 295 294 293 294 294 294 294 294 294 294 294 294 295 296 297 299 301 301 301 300 300 300 300 300 298
300 299 298 297 297 295 294 294 294 294 295 294 294 295 294 295 296 296 295 293 293 294 294 294 294 294 294 294 294 295 296 298 300 301 301 301 300 300 300 299 299 298
300 299 298 298 298 296 294 295 294 294 294 294 294 294 294 294 296 296 295 294 293 293 293 293 294 293 294 294 294 294 296 298 301 301 301 301 300 299 300 299 299 298
301 300 299 298 296 295 296 296 295 294 294 294 294 294 294 294 294 295 297 295 293 293 293 293 293 293 293 293 294 295 295 297 300 301 300 300 300 299 299 300 299 298
302 299 297 297 298 298 299 299 298 297 296 295 294 294 293 293 293 294 296 296 294 293 292 293 293 293 293 293 293 294 295 295 298 300 300 300 300 298 298 299 299 298
299 298 299 300 301 301 300 299 299 298 296 295 294 294 293 293 293 293 294 296 295 293 292 292 292 292 293 293 292 293 294 293 295 298 299 300 300 298 298 299 299 297
300 301 302 302 302 301 298 297 298 298 297 297 296 296 295 293 293 292 292 294 294 294 292 292 292 292 292 292 292 292 293 292 293 295 298 300 300 298 298 298 298 297
302 302 302 302 302 300 297 298 300 299 299 299 298 299 299 297 295 294 292 292 292 293 292 292 292 292 292 292 292 292 292 292 292 293 296 298 299 299 298 298 298 297
302 302 302 302 301 298 297 299 300 299 300 300 299 300 300 300 299 297 295 294 293 293 293 292 292 292 292 292 292 292 292 292 292 292 294 295 297 298 298 297 297 297
302 302 302 302 299 297 298 299 300 301 302 302 301 301 301 300 300 299 299 298 297 296 295 295 293 292 291 291 291 291 291 292 292 292 292 293 294 296 297 297 297 296

ECMWFNIL_850_thetae_105.txt.gz
Theta_e
324 324 323 323 322 321 320 319 319 316 310 308 307 305 304 303 301 300 299 299 299 299 299 299 298 298 298 298 297 297 297 297 297 297 297 297 297 298 301 299 297 296
323 322 322 321 321 320 319 319 317 313 308 306 305 302 301 300 299 299 299 299 299 299 298 298 298 298 297 297 297 297 298 299 299 298 296 296 297 298 301 302 299 297
321 321 320 320 319 318 317 316 313 309 306 304 301 300 299 298 298 298 298 298 298 298 298 298 298 297 297 297 297 298 299 299 299 299 297 296 296 298 303 304 301 297
319 319 318 317 317 316 314 312 309 305 303 301 299 298 298 297 298 298 298 298 298 297 297 297 297 297 297 297 297 298 299 299 299 299 297 296 296 297 301 302 300 297
317 316 315 314 313 312 311 308 305 302 300 299 298 297 297 297 297 297 297 297 297 297 297 297 297 297 296 297 297 297 298 298 298 298 298 297 297 298 299 299 299 298
315 314 312 311 310 309 307 305 302 300 299 298 297 297 297 297 297 297 297 297 297 297 297 297 297 297 297 297 296 296 297 297 297 299 300 299 298 300 300 299 299 299
313 312 311 309 307 305 303 301 300 299 298 297 297 297 297 297 297 297 297 297 297 297 297 297 297 297 297 296 296 297 297 298 300 302 303 301 299 299 300 299 298 298
312 311 310 308 305 303 301 300 299 298 297 297 296 297 297 297 297 297 297 297 297 297 296 296 296 296 296 296 297 298 299 300 302 303 303 302 299 298 298 298 297 296
311 309 307 305 302 300 299 298 298 297 297 296 296 297 297 297 297 297 296 296 296 296 296 296 296 296 296 296 297 298 300 302 302 301 301 301 300 298 297 296 295 295
309 307 304 302 300 298 298 297 296 296 296 297 297 297 297 296 296 296 296 296 296 296 296 295 295 295 295 296 297 297 300 303 303 301 300 301 300 298 296 295 295 295
306 303 301 299 298 298 297 296 296 296 296 297 296 296 296 296 296 296 296 296 296 295 295 295 295 295 295 296 297 298 300 303 303 301 300 300 299 297 296 295 295 295
302 300 299 298 297 297 297 296 296 296 296 296 296 296 296 296 295 295 295 295 295 295 295 295 295 295 295 296 297 298 299 302 303 301 299 300 299 297 298 297 296 296
299 298 298 297 297 297 296 296 296 296 296 296 296 296 295 295 295 295 295 295 295 295 295 295 295 295 295 296 297 298 299 301 302 301 299 300 300 299 299 298 297 297
298 298 297 297 297 296 296 297 296 296 296 296 295 295 295 295 295 295 295 295 295 295 295 295 295 295 295 296 297 297 298 299 301 301 299 300 300 300 300 299 298 298
298 297 297 297 297 297 297 297 296 297 297 296 295 295 296 295 295 295 295 295 295 295 295 295 295 295 295 295 296 296 297 298 299 300 300 300 300 300 300 299 298 298
297 297 297 297 297 297 297 296 296 297 297 296 296 296 296 295 294 295 295 295 295 295 295 295 294 294 294 295 295 296 296 296 298 299 299 299 300 300 300 299 299 298
297 297 297 297 297 297 296 296 296 296 296 296 296 296 295 294 294 295 294 295 294 294 295 295 294 294 294 294 295 296 296 297 298 299 299 299 299 299 300 299 299 299
297 297 297 297 296 296 295 295 295 295 295 295 296 295 295 294 294 294 294 294 294 294 294 294 294 294 294 294 294 295 297 298 299 300 300 299 298 298 299 299 298 299
297 297 296 296 296 295 295 295 295 295 295 295 295 295 295 294 294 294 294 294 294 294 294 294 294 294 294 294 294 294 296 298 299 299 300 300 298 298 299 299 299 299
297 296 296 295 295 295 295 295 295 295 295 295 295 295 295 295 294 293 294 294 294 294 294 294 294 294 293 293 293 293 294 296 297 298 299 300 298 297 298 299 299 298
297 296 295 295 294 294 295 295 295 295 295 294 294 294 295 295 294 294 293 293 293 294 294 294 294 293 293 293 293 293 293 294 295 296 298 299 298 297 298 298 298 297
297 296 295 294 294 294 294 294 294 294 294 294 294 294 294 294 294 294 293 293 293 294 294 294 293 293 293 293 292 292 292 293 294 295 296 298 297 297 297 297 297 296
296 296 295 294 294 294 294 294 294 294 294 294 294 294 293 294 294 293 293 293 293 293 293 293 293 293 293 293 292 292 292 293 293 294 295 296 297 297 296 297 297 296
296 296 295 295 295 295 295 294 294 294 294 294 294 294 293 293 293 293 293 293 293 293 293 293 293 293 293 293 293 293 292 292 292 292 293 294 295 296 296 296 296 295
297 296 296 296 296 295 295 295 295 295 295 295 295 294 293 293 294 294 294 294 294 294 293 293 293 292 293 293 293 293 292 292 292 292 292 292 293 294 294 294 294 294
297 297 298 297 296 295 295 295 295 296 297 297 297 296 295 295 295 296 296 296 296 295 295 294 293 293 293 293 293 293 293 292 292 292 292 292 292 293 293 293 294 294

ECMWFNIL_850_thetae_108.txt.gz
Theta_e
326 326 325 325 324 324 324 324 321 315 311 311 311 309 308 307 306 304 302 300 299 299 299 298 298 298 298 298 298 298 298 298 297 297 297 297 298 299 298 297 296 296
325 325 324 324 323 323 323 322 321 316 311 310 309 308 306 305 303 301 299 299 298 298 298 298 298 298 298 298 298 298 298 298 297 297 297 297 298 299 299 297 296 296
324 324 323 323 322 322 322 321 321 317 311 308 307 305 304 302 300 299 298 298 298 298 298 298 298 298 298 298 298 298 298 298 297 297 296 297 297 297 298 297 296 296
324 323 322 322 322 322 321 320 320 315 309 307 305 302 301 300 298 298 298 298 298 298 298 298 298 298 298 298 298 298 298 298 297 297 296 296 297 297 297 297 296 295
322 322 322 321 321 320 320 319 317 311 306 304 302 300 299 298 298 298 298 298 298 297 297 297 298 298 298 298 298 297 297 297 297 297 296 296 297 297 297 296 295 295
321 320 320 320 320 319 318 316 312 307 303 301 300 299 298 298 298 297 297 298 297 297 297 298 298 298 298 298 297 297 296 297 298 298 297 296 296 296 296 295 295 295
319 318 319 319 318 317 315 311 306 303 301 300 299 298 297 297 297 297 297 297 297 297 297 297 298 298 298 298 297 297 297 298 299 298 297 296 296 295 295 295 294 294
317 317 317 316 315 313 310 306 302 300 299 299 298 298 297 297 297 297 297 297 297 297 297 297 297 297 297 297 297 297 297 298 297 297 297 296 295 294 294 294 294 294
316 315 314 312 310 308 305 302 300 299 299 298 297 297 297 297 297 297 297 297 297 297 297 297 297 297 296 296 297 297 298 298 297 296 297 296 295 294 294 294 294 294
314 313 311 308 306 304 302 300 299 298 298 297 297 297 297 297 297 297 297 297 297 297 297 297 297 296 296 296 297 297 299 299 297 296 296 296 295 295 294 294 294 294
312 311 309 306 304 301 300 299 298 298 297 297 297 297 297 297 297 297 297 297 297 297 297 297 297 296 296 296 297 297 299 299 297 296 296 297 297 296 295 294 295 295
311 309 307 304 301 299 298 298 297 297 297 297 297 297 297 297 297 297 297 297 297 297 297 296 296 296 296 296 296 297 298 298 296 296 298 299 299 298 297 296 296 297
309 307 303 301 299 298 298 297 297 296 296 297 297 297 297 297 297 297 297 297 297 297 296 296 296 296 296 296 296 296 297 297 296 297 299 300 300 299 298 298 298 298
307 304 301 299 298 298 298 297 296 296 296 297 296 296 297 297 297 297 297 297 297 296 296 296 296 296 295 295 296 296 297 297 297 298 299 300 299 299 299 299 298 298
304 301 300 299 298 298 298 297 296 296 296 296 296 296 296 297 297 297 296 296 296 296 296 296 295 296 295 295 295 295 296 297 297 298 299 300 299 299 299 299 298 298
302 300 299 299 298 298 298 297 296 296 296 296 296 296 296 297 297 296 296 296 296 296 296 296 295 295 295 295 295 295 296 297 296 297 298 299 299 298 299 299 298 298
300 299 299 298 298 298 297 297 296 296 296 296 296 296 296 296 296 296 296 296 296 295 295 295 295 295 295 295 295 295 296 297 297 297 298 298 297 298 299 298 298 298
299 299 298 298 298 298 297 297 296 296 296 296 296 296 296 296 296 296 296 295 295 295 295 295 295 295 295 294 295 295 296 297 298 298 298 298 297 297 298 298 298 297
299 298 298 298 298 297 297 297 296 296 296 296 296 296 296 296 296 295 296 296 295 295 295 295 295 294 294 294 294 295 296 296 297 298 299 298 296 297 298 298 297 295
298 298 298 298 297 297 297 297 296 296 296 296 296 296 296 295 295 295 296 295 295 295 295 295 295 294 294 293 293 293 294 295 296 297 299 298 297 296 297 297 296 294
298 298 298 298 297 296 296 296 295 295 296 296 295 295 295 295 295 295 296 295 295 295 294 294 294 294 293 293 293 293 293 294 295 297 298 298 297 296 296 296 294 293
298 297 298 297 296 296 295 295 295 295 295 295 295 295 295 295 295 295 295 295 294 294 294 294 294 293 293 293 293 293 293 293 294 296 296 297 296 295 295 294 293 293
297 297 298 297 296 295 295 295 295 295 295 295 295 295 295 295 295 295 294 294 294 293 293 294 293 293 293 293 293 293 292 292 293 294 295 295 295 294 294 293 293 293
297 297 297 297 296 295 295 295 295 295 295 295 295 295 295 294 294 294 294 294 293 293 293 293 293 293 293 293 293 293 292 292 292 292 293 293 293 293 293 293 293 293
297 297 297 296 295 294 295 295 295 295 295 295 294 294 294 294 294 294 294 293 293 293 293 294 294 294 293 293 293 292 292 292 293 293 293 293 293 293 293 293 293 292
297 297 297 295 294 294 295 295 295 294 294 294 294 294 294 294 294 294 294 294 294 293 294 294 294 294 293 293 293 293 293 293 293 293 293 293 293 293 293 292 292 292

ECMWFNIL_850_thetae_111.txt.gz
Theta_e
332 331 330 329 327 326 324 323 321 318 314 312 311 311 311 310 309 308 306 305 303 300 299 299 299 299 299 299 299 298 299 298 298 298 298 298 298 297 296 296 296 296
330 330 329 327 326 324 323 322 321 317 312 310 310 310 310 309 307 306 304 302 300 299 299 298 299 299 298 298 298 298 298 298 298 297 297 297 297 296 296 296 296 296
329 328 327 325 324 324 322 321 321 319 314 310 309 309 308 307 305 303 302 300 299 299 298 298 298 298 298 298 298 298 298 298 297 297 296 296 297 296 296 295 295 295
328 327 325 325 323 322 322 321 320 319 315 310 308 308 306 304 303 301 300 299 298 298 298 298 298 298 298 298 298 298 298 297 297 296 296 296 296 296 295 295 295 295
327 326 324 323 322 321 321 320 319 319 316 310 307 306 304 303 301 300 299 298 298 298 298 298 298 298 298 298 298 298 297 297 297 296 296 296 296 295 295 295 294 294
325 324 322 322 321 320 320 319 319 318 314 309 306 305 303 301 300 298 298 298 298 298 298 298 297 297 298 297 297 297 297 298 297 296 296 295 295 295 294 294 294 294
323 322 321 320 320 319 319 318 318 316 312 307 305 304 301 299 298 298 298 297 298 297 297 297 297 297 297 297 297 297 297 297 297 296 296 295 295 294 294 294 294 294
322 321 320 319 319 318 318 317 317 313 308 305 304 302 300 298 297 297 297 297 297 297 297 297 297 297 297 297 297 297 297 297 296 296 296 295 294 294 294 294 294 294
320 319 319 318 318 317 317 316 313 308 304 303 302 300 298 297 297 297 297 297 297 297 297 296 296 296 297 297 297 298 298 297 296 296 295 295 294 294 294 294 294 294
318 318 317 316 316 315 315 313 309 304 302 301 300 298 298 297 297 297 297 297 297 297 296 296 296 296 296 297 297 298 298 296 296 295 295 295 294 294 294 294 294 293
317 316 315 314 313 313 312 309 304 301 300 299 298 297 297 297 297 297 297 297 296 296 296 296 296 296 296 296 297 297 297 296 295 296 296 296 295 295 295 295 295 294
315 314 313 312 311 310 308 304 301 300 299 298 298 297 297 297 297 297 296 296 296 296 296 296 296 296 296 296 296 296 296 296 296 296 297 297 296 296 296 296 295 295
314 313 312 309 308 306 304 301 300 299 299 298 297 297 297 297 297 296 296 296 296 296 296 296 296 296 296 296 296 296 296 296 296 296 296 297 297 296 296 296 296 295
313 312 310 308 305 303 301 299 299 299 298 297 297 296 296 296 296 296 296 296 296 296 296 296 296 296 296 296 295 295 296 296 296 296 296 296 297 297 297 296 296 295
312 311 309 306 303 301 300 299 299 298 297 297 296 296 296 296 296 296 296 296 296 296 296 296 296 296 295 295 295 295 295 295 295 296 296 296 297 298 297 297 297 295
312 310 307 304 302 300 300 299 298 297 296 296 296 296 296 296 296 296 296 296 296 296 296 296 296 296 295 295 295 295 295 295 295 295 295 295 296 297 298 297 297 295
311 309 305 302 300 300 299 299 298 297 296 296 296 296 296 296 296 296 296 296 296 296 296 296 296 295 295 295 295 295 295 295 295 296 296 295 296 296 297 297 296 293
310 307 303 300 300 300 299 299 298 297 296 296 296 296 295 296 296 296 296 296 296 296 296 296 295 295 295 295 295 295 295 295 295 296 296 296 295 295 296 296 294 292
309 306 302 300 300 300 299 299 298 297 296 296 295 295 295 296 296 296 296 296 296 296 296 295 295 295 295 295 295 295 295 295 295 295 295 296 296 295 295 295 294 292
307 304 301 300 300 300 299 298 297 297 296 296 295 295 295 296 296 296 296 296 296 295 295 295 295 295 295 295 295 294 295 294 294 295 295 295 296 295 294 294 294 293
306 302 300 300 300 300 299 298 297 297 296 296 296 295 295 296 296 296 295 296 295 295 295 295 295 295 295 295 295 295 294 294 294 295 295 295 295 295 294 294 293 292
304 302 300 300 299 300 299 298 297 296 296 297 296 295 295 295 295 295 295 295 295 295 295 295 295 295 295 295 295 294 294 294 294 294 294 295 295 294 294 293 293 292
303 301 300 299 299 299 299 297 297 297 297 297 296 295 295 295 295 295 295 295 295 295 295 295 295 295 295 295 294 294 294 294 294 294 294 294 294 294 293 293 293 292
302 301 300 299 299 299 298 297 297 297 296 296 296 295 295 295 295 295 295 294 294 294 294 295 295 295 295 294 294 295 294 294 294 293 294 293 293 293 293 293 292 292
302 300 299 299 299 299 298 297 296 296 296 296 296 295 294 295 295 295 294 294 294 294 294 294 294 294 294 294 294 294 294 294 294 293 293 293 293 293 293 292 292 292
302 300 299 298 299 298 298 296 295 295 295 295 295 295 294 294 294 294 294 294 294 294 294 294 294 294 294 294 294 294 294 294 294 294 293 293 293 293 292 292 292 292

ECMWFNIL_850_thetae_114.txt.gz
Theta_e
332 332 331 331 331 331 330 329 326 323 321 318 315 312 310 309 307 306 304 303 303 302 300 300 299 299 299 299 299 299 299 299 299 299 299 299 298 298 298 297 297 297
331 330 330 331 331 330 329 326 324 322 320 315 312 310 309 307 306 304 302 302 301 300 299 299 299 299 299 299 299 299 299 299 299 298 298 298 298 297 297 297 296 296
329 329 330 330 330 329 327 325 323 322 320 315 311 308 307 306 304 302 301 300 300 299 299 299 299 299 299 299 299 299 299 298 298 298 297 297 297 297 297 296 295 295
329 329 329 329 329 327 325 324 322 322 321 316 310 307 305 304 303 301 300 299 299 298 298 298 298 298 298 298 298 298 298 298 298 297 297 297 297 296 296 295 295 295
330 329 329 328 327 326 324 324 322 321 320 318 311 306 304 302 301 299 298 298 298 298 298 298 298 298 298 298 298 298 298 298 297 297 296 297 296 295 295 295 295 295
330 329 328 327 325 324 323 322 321 320 320 317 311 305 302 300 299 298 297 297 297 298 298 298 298 298 298 298 297 297 298 297 297 296 296 296 295 295 295 295 295 295
329 328 327 326 324 323 322 321 321 319 318 315 308 303 301 299 298 297 297 297 297 297 297 297 297 297 297 297 297 297 297 297 296 296 296 295 295 295 295 295 295 295
327 327 326 325 323 322 321 320 320 318 317 312 305 301 299 298 297 297 297 297 297 297 297 297 297 297 297 297 297 297 297 297 296 295 295 295 295 295 295 294 294 294
326 325 324 323 322 321 320 319 319 317 314 309 303 300 299 297 296 296 296 297 297 297 297 297 297 297 297 297 297 297 297 296 296 295 295 295 295 295 294 294 294 294
325 324 322 321 320 319 319 318 317 315 311 305 300 299 298 297 296 296 296 296 296 296 296 297 297 297 297 297 297 297 297 296 296 295 295 295 295 295 294 294 294 294
323 322 321 320 319 318 318 317 315 313 308 302 299 299 297 297 296 296 296 296 296 296 296 296 296 296 296 296 297 297 296 295 296 296 296 296 295 295 294 294 294 294
322 320 320 319 318 317 316 315 313 310 305 300 299 298 297 296 296 296 296 296 296 296 296 296 296 296 296 296 296 296 296 296 296 296 296 296 295 295 294 294 294 294
320 319 318 317 316 315 314 313 311 307 301 299 298 298 297 296 296 296 296 296 296 296 296 296 296 296 296 296 296 296 296 296 296 296 296 296 296 295 295 294 294 294
319 318 317 316 315 313 312 311 308 303 300 299 298 297 297 296 295 296 296 296 296 296 296 296 296 296 296 296 296 296 296 295 295 295 295 295 296 295 295 294 294 294
318 316 315 314 313 311 310 308 304 300 299 299 298 297 297 295 295 295 296 296 296 296 296 296 296 296 296 296 295 295 295 295 295 295 295 295 296 295 295 294 293 293
317 315 314 313 311 308 306 304 301 300 299 298 297 297 296 295 295 295 296 296 296 296 296 296 296 296 295 295 295 295 295 295 295 295 295 295 295 295 294 294 293 293
316 315 313 312 309 306 303 302 300 299 298 297 297 296 295 295 295 296 296 296 296 296 296 296 296 295 295 295 295 295 295 295 295 295 295 294 294 294 294 293 293 293
315 314 312 311 308 305 302 301 300 299 298 297 296 296 295 295 295 296 296 296 295 295 295 295 295 295 295 295 295 295 295 295 295 295 295 294 294 294 293 293 293 293
315 313 311 309 307 304 302 300 299 298 297 297 296 296 295 295 295 296 296 296 295 295 295 295 295 295 295 295 295 295 295 295 295 295 294 294 294 293 293 293 293 293
314 313 311 308 305 303 301 300 299 298 297 296 296 296 295 295 296 296 295 295 295 295 295 295 295 295 295 295 294 294 294 294 294 294 294 294 294 293 293 293 293 293
313 312 310 307 304 301 300 299 299 298 297 296 296 295 295 295 295 295 295 295 295 295 295 295 295 295 295 294 294 294 294 294 294 294 294 294 294 293 293 293 293 292
313 312 310 307 303 300 300 299 299 298 297 297 296 295 295 295 295 295 295 295 295 295 295 295 295 295 294 294 294 294 294 294 294 294 294 294 294 293 293 293 293 292
313 312 310 306 302 301 300 300 298 298 297 297 296 295 295 295 295 295 295 295 295 295 295 294 295 294 294 294 294 295 295 295 295 294 294 294 294 293 293 293 293 292
312 311 309 306 302 301 300 300 299 298 297 297 297 296 295 295 295 295 295 294 294 294 294 294 294 294 294 294 294 295 295 295 295 295 294 294 294 293 293 293 293 292
311 309 307 304 302 301 300 299 298 298 298 297 297 296 295 295 295 295 294 294 294 294 294 294 294 294 294 294 294 295 295 295 295 295 295 294 294 293 293 293 292 292
311 310 308 304 302 301 301 300 299 298 298 297 297 296 295 294 294 294 294 294 294 294 294 294 294 294 294 295 295 295 295 295 295 295 295 294 294 293 293 293 292 292

ECMWFNIL_850_thetae_117.txt.gz
Theta_e
331 332 332 332 332 331 330 329 329 327 324 322 320 316 313 310 308 307 305 303 301 299 299 299 299 299 299 299 299 299 300 300 300 300 299 299 299 299 299 299 298 298
331 331 332 332 331 330 329 329 328 326 323 322 318 314 311 308 307 305 303 301 300 299 298 298 298 299 299 299 299 299 299 299 299 299 299 299 299 298 299 298 298 297
330 331 331 330 330 329 328 328 327 324 323 321 317 311 309 307 305 304 301 299 299 298 298 298 298 298 299 299 299 299 299 299 299 298 298 298 298 298 298 298 297 297
330 331 330 329 329 328 328 327 325 323 322 321 316 310 307 305 304 302 300 299 298 298 298 298 298 298 298 298 299 299 299 299 298 298 298 298 298 298 297 297 296 296
331 331 329 328 329 328 327 326 324 323 322 321 317 310 305 304 302 300 299 298 298 298 298 298 298 298 298 298 298 298 298 298 298 297 298 298 297 297 297 296 296 295
332 330 328 329 329 328 326 325 324 322 321 320 317 309 304 302 300 299 298 297 297 297 297 297 297 298 298 298 298 298 298 298 298 297 297 297 297 296 296 295 295 295
330 328 329 330 329 327 325 324 323 322 321 320 316 308 302 301 299 298 297 297 297 297 297 297 297 297 298 298 298 298 297 297 297 297 296 296 296 295 295 295 295 295
329 329 330 329 327 325 324 323 322 321 320 319 315 307 301 300 298 297 297 297 297 297 297 297 297 297 297 297 297 297 297 297 297 296 296 296 295 295 295 295 295 295
329 330 330 328 325 324 323 322 321 320 319 318 313 305 301 299 297 297 297 297 297 297 297 297 297 297 297 297 297 297 297 297 296 296 296 296 295 295 295 294 294 294
330 329 328 326 324 324 323 322 320 319 318 316 310 303 300 298 297 296 296 296 296 296 297 297 297 297 297 297 297 297 296 296 296 296 296 296 295 295 295 294 294 294
329 328 326 325 324 323 322 320 319 318 317 314 306 301 299 297 297 297 296 296 296 296 296 297 296 297 296 297 297 296 296 296 296 296 296 296 295 295 295 294 294 294
327 326 325 324 323 322 320 319 318 317 316 311 303 299 298 297 296 296 296 296 296 296 296 296 296 297 296 296 296 296 296 296 296 296 296 296 295 295 294 294 294 294
327 326 324 324 322 321 319 318 317 316 314 307 301 299 298 296 296 296 296 296 296 296 296 296 296 296 296 296 296 296 296 296 296 295 295 295 295 294 294 294 294 294
326 325 324 322 321 319 318 317 316 315 311 304 299 298 297 297 296 296 296 296 296 296 296 296 296 296 296 296 296 296 296 295 295 295 295 295 295 294 294 294 294 294
326 324 322 321 319 318 317 316 315 313 307 301 299 298 297 296 296 296 296 296 296 296 296 296 296 296 296 296 295 295 295 295 295 295 295 295 294 294 294 294 294 294
325 323 321 320 318 317 316 315 313 310 304 300 298 298 297 296 295 296 296 296 296 296 295 296 296 296 296 296 295 295 295 295 295 295 294 294 294 294 294 294 294 294
324 322 320 319 317 316 315 313 311 307 301 299 298 297 297 296 295 296 296 296 296 295 295 296 296 296 296 295 295 295 295 295 295 295 294 294 294 294 294 294 294 294
323 321 320 318 317 316 313 311 308 304 300 299 298 297 297 296 295 296 296 295 295 295 295 296 295 295 295 295 295 295 295 295 295 295 294 294 294 294 294 294 294 294
323 321 319 317 316 315 312 309 306 302 300 299 298 297 297 296 295 296 296 295 295 295 295 295 295 295 295 295 295 295 295 295 295 295 294 294 294 294 294 294 294 294
322 320 319 317 316 314 310 306 303 300 299 299 297 296 296 295 296 295 295 295 295 295 295 295 295 295 295 295 295 295 295 295 295 295 294 294 294 294 294 294 294 294
322 320 318 316 315 312 308 304 301 300 299 298 297 296 296 295 295 295 295 295 295 295 295 295 295 295 295 295 295 295 295 294 295 294 294 294 294 294 294 295 295 295
320 318 316 315 313 311 306 303 301 300 299 298 297 296 295 295 295 295 295 295 295 295 295 295 295 295 295 295 295 294 294 294 294 294 294 294 294 294 294 295 295 295
317 315 314 313 312 310 306 302 301 300 299 298 297 296 295 295 295 295 295 295 295 295 295 295 295 295 295 295 294 294 294 294 294 294 294 294 294 294 294 295 295 295
318 318 315 313 312 309 305 302 300 300 299 298 297 296 296 295 295 295 295 295 295 295 295 295 295 295 294 294 294 294 294 295 295 295 294 295 294 294 295 295 295 294
318 318 317 314 312 309 305 301 300 300 299 298 296 296 295 295 295 295 295 295 295 294 294 294 294 294 294 294 294 295 295 295 295 295 295 295 295 294 295 295 294 294
316 318 317 315 312 309 304 301 301 300 299 298 297 296 295 294 294 294 294 295 295 294 294 294 294 294 294 294 295 295 295 295 295 295 295 295 295 295 295 295 295 294

ECMWFNIL_850_thetae_120.txt.gz
Theta_e
332 332 332 332 332 331 331 330 330 329 326 323 321 319 315 312 309 308 305 302 300 300 299 299 299 299 299 299 299 299 299 299 299 299 299 299 299 299 298 298 298 298
332 332 332 332 332 331 330 330 329 328 325 322 320 316 313 310 308 306 303 301 299 299 299 299 299 299 299 299 299 299 299 299 299 299 298 298 298 298 298 298 297 297
332 332 332 331 331 330 330 329 328 326 324 322 318 313 311 308 306 304 301 299 299 298 299 299 299 299 299 299 299 299 299 299 299 298 298 298 298 298 298 297 297 297
331 331 331 331 330 330 329 328 327 325 324 322 317 311 309 307 305 303 300 299 298 298 298 299 299 299 299 299 299 299 299 299 298 298 298 298 298 298 297 297 296 296
331 331 331 330 329 329 329 328 327 325 323 322 318 311 308 306 303 301 299 298 298 298 298 298 299 299 299 298 298 299 299 299 298 298 298 298 297 297 297 296 296 296
331 331 330 330 329 329 328 327 326 324 323 322 318 311 306 304 302 299 298 298 298 298 298 298 298 298 298 298 298 298 298 298 298 297 297 297 297 297 296 296 296 296
331 331 331 330 329 329 328 326 325 324 322 321 318 310 305 303 300 298 298 298 297 297 298 298 298 298 298 298 298 298 298 298 297 297 297 297 297 297 296 296 295 295
330 331 331 330 328 328 327 325 325 323 321 321 318 310 303 301 299 298 298 297 297 297 297 297 298 298 298 298 297 298 298 298 297 297 297 296 296 296 296 296 295 295
330 331 331 329 328 328 327 325 324 322 320 320 317 309 302 300 298 297 298 297 297 297 297 297 297 298 298 297 297 297 297 297 297 297 296 296 296 296 295 295 295 295
331 331 330 328 328 328 326 324 323 322 320 320 316 307 300 299 298 297 297 297 297 297 297 297 297 298 298 297 296 296 297 297 297 296 296 296 295 295 295 295 294 294
332 331 329 328 329 328 325 323 323 321 320 319 315 305 300 299 297 297 297 297 297 297 297 297 297 297 297 297 296 296 296 296 296 296 295 295 295 295 295 294 294 294
332 330 329 329 329 327 325 323 322 321 319 319 313 304 300 298 297 297 297 296 298 298 297 297 297 297 297 296 296 296 296 296 296 296 295 295 295 295 295 294 294 294
331 329 329 330 328 326 324 322 321 320 319 317 311 302 299 298 297 297 297 298 299 298 297 297 297 297 297 296 296 296 296 296 296 296 295 295 295 295 294 294 294 294
329 329 330 329 327 325 322 322 321 319 318 316 308 301 299 297 297 296 297 300 300 298 297 297 296 296 297 296 296 296 296 296 296 295 295 295 295 295 295 294 294 294
329 329 329 327 325 324 322 321 320 318 317 314 305 300 298 297 296 296 297 299 299 297 296 296 296 296 296 296 296 296 295 296 295 295 295 295 295 295 295 294 294 294
330 329 328 326 324 323 322 320 319 317 316 311 303 299 298 296 296 296 296 298 298 296 297 296 296 296 296 296 296 296 295 295 295 295 295 295 295 295 294 295 294 294
329 328 327 325 324 322 321 320 317 316 315 309 302 299 298 296 296 296 296 297 297 297 297 296 296 296 296 296 296 296 296 295 295 296 295 296 296 296 296 295 294 294
328 327 326 325 324 322 320 318 316 315 313 307 301 299 298 297 296 296 296 296 296 297 296 296 296 296 296 296 295 296 296 296 295 295 296 296 297 297 298 297 295 294
327 326 325 324 323 321 319 317 315 314 312 306 300 299 298 297 296 296 295 296 296 296 296 296 296 296 296 295 295 295 295 297 297 295 295 297 297 297 298 297 296 295
327 325 324 323 321 318 316 314 313 312 311 305 300 299 298 296 295 295 295 295 296 296 296 296 296 296 296 295 295 296 295 297 298 296 295 297 296 296 296 295 295 296
326 325 323 322 319 316 315 314 312 311 309 304 300 299 298 297 295 295 295 295 296 296 295 296 295 295 295 295 295 295 295 296 297 296 296 297 296 295 295 294 294 295
327 325 324 322 319 317 316 314 312 311 308 303 300 300 299 298 296 295 295 295 296 295 295 296 296 295 295 295 295 295 295 296 296 296 297 297 296 294 295 294 295 295
326 325 324 322 320 320 319 316 313 311 307 303 300 300 299 297 296 295 295 295 295 295 295 295 295 295 295 295 295 295 294 296 297 297 298 297 295 294 295 295 295 295
326 325 324 323 321 321 319 317 315 311 305 301 300 300 298 296 295 295 295 295 295 295 295 295 295 295 295 295 295 294 295 296 298 299 299 297 296 295 295 295 295 295
326 325 325 323 322 321 319 317 314 310 304 301 301 300 298 296 294 294 294 294 294 295 294 295 295 295 295 295 295 294 294 296 299 301 300 298 297 296 295 295 296 295
326 325 323 322 321 319 318 316 314 310 304 300 300 300 299 297 294 294 294 294 294 294 294 294 295 295 295 295 294 294 294 295 298 301 300 297 296 296 295 295 295 295

ECMWFNIL_850_thetae_123.txt.gz
Theta_e
332 333 332 330 331 331 330 330 329 329 327 326 324 322 320 317 313 311 309 307 305 302 301 300 300 300 300 300 300 300 300 299 299 299 299 299 299 299 299 299 299 299
332 332 330 329 331 331 330 330 328 328 328 326 323 322 319 315 312 310 308 306 303 301 300 300 300 300 300 300 300 299 299 299 299 299 299 299 299 299 299 299 298 299
331 329 329 330 331 330 330 329 328 329 328 325 322 321 319 314 311 309 307 304 301 300 300 300 300 300 299 299 299 299 299 299 299 299 298 298 298 298 298 298 298 298
329 328 330 331 331 330 330 329 329 329 327 324 322 321 317 313 310 308 305 302 300 300 300 299 300 299 299 299 299 299 299 299 298 298 298 298 298 298 298 298 298 298
329 330 331 331 331 331 330 329 329 329 326 323 322 319 315 312 310 307 304 301 300 300 299 299 299 299 299 299 299 299 298 298 298 298 298 298 298 298 298 298 298 298
331 331 330 331 331 331 330 329 329 328 325 323 321 318 314 311 308 305 302 300 299 299 299 299 299 299 299 298 298 298 298 298 298 298 298 298 298 297 297 297 297 297
331 331 330 331 331 330 329 329 328 327 325 323 321 319 314 309 306 303 300 299 299 299 299 299 299 299 298 298 298 298 298 297 297 297 297 297 297 297 297 297 297 297
331 331 331 331 330 329 329 329 328 327 325 323 322 319 313 307 305 302 299 299 299 299 299 299 299 299 298 298 298 298 297 297 297 297 297 297 297 297 297 297 296 296
331 330 330 330 330 329 329 329 327 326 324 323 322 319 311 306 304 301 299 299 298 298 299 298 298 298 298 298 298 298 297 297 298 297 296 296 296 296 296 296 296 296
330 329 330 330 329 328 329 328 326 325 324 322 321 317 308 305 304 301 298 298 298 299 299 298 298 298 298 298 297 297 297 297 297 296 297 297 297 296 297 296 296 296
330 330 330 330 329 328 328 328 326 325 323 321 321 316 308 306 304 300 299 299 299 300 300 298 298 298 298 298 297 297 297 297 297 297 297 298 297 297 297 296 296 297
330 331 330 330 329 328 328 327 325 324 322 321 319 314 309 306 303 301 302 301 301 302 301 299 298 298 299 299 297 297 297 298 297 297 297 297 296 296 296 296 297 297
330 330 330 330 329 327 328 327 325 324 322 320 318 313 309 305 303 303 304 304 305 305 303 300 298 300 300 299 297 297 298 298 297 297 296 296 296 296 295 296 296 297
330 330 330 330 328 327 327 326 325 323 321 319 316 312 309 305 305 305 305 306 308 306 303 301 299 301 302 300 299 299 298 298 297 297 297 297 296 296 295 296 296 296
329 330 331 330 328 327 326 325 324 323 320 317 315 312 309 306 307 307 305 308 309 305 303 301 300 302 303 301 301 300 298 297 298 298 298 297 297 296 296 296 296 296
330 330 331 329 327 327 326 324 324 322 319 316 314 312 308 306 308 308 307 309 308 305 305 302 300 304 304 302 302 301 298 299 300 300 299 298 298 298 297 297 296 296
331 331 330 328 327 326 325 323 322 320 318 316 314 312 307 304 307 308 308 309 308 306 306 302 302 304 302 300 301 301 300 302 302 301 302 301 300 299 298 298 297 296
331 330 329 328 327 325 324 322 321 319 318 316 315 312 306 304 306 307 308 309 309 308 306 303 302 303 300 298 299 299 301 303 304 304 304 303 302 301 300 299 298 297
332 330 328 327 326 324 324 322 320 320 319 317 314 311 307 306 307 308 308 309 309 309 307 303 301 300 298 297 297 297 298 303 306 306 305 305 304 304 303 302 299 297
331 329 327 325 324 325 325 323 321 320 319 317 314 310 307 306 306 307 308 308 307 308 308 304 300 298 297 296 296 296 296 301 306 306 305 306 305 305 305 304 302 301
329 328 327 326 326 326 326 323 321 320 317 316 314 310 307 305 303 304 306 306 306 307 308 305 300 297 297 296 296 296 296 301 306 306 305 306 305 304 303 302 301 303
329 328 328 328 327 327 326 323 321 319 316 314 313 311 308 306 302 301 302 305 306 306 307 306 302 297 296 296 296 296 296 300 305 305 305 306 305 302 301 299 298 300
329 328 328 328 328 327 325 323 320 318 316 314 313 311 307 304 302 301 301 302 304 305 308 308 303 297 296 296 295 296 296 299 304 305 305 306 305 301 300 300 297 298
328 328 328 328 327 326 325 323 319 317 317 316 315 314 308 303 301 300 300 301 302 303 306 307 303 297 296 296 295 296 295 297 303 306 305 306 306 301 301 303 298 296
328 328 328 328 327 326 324 323 320 318 318 316 315 314 310 304 299 299 300 301 301 300 302 304 302 297 296 296 295 295 294 296 303 307 305 306 306 302 302 304 300 295
328 328 328 328 327 326 324 323 321 318 317 315 313 312 309 304 300 299 298 298 299 298 297 300 303 301 297 295 295 295 294 296 303 307 306 306 306 304 303 304 301 296